     2              OBSERVATION DATA    GPS                 RINEX VERSION / TYPE
teqc 1997Sep10 19971030 21:34:43UTC                         PGM / RUN BY / DATE
                                                            COMMENT
Original Marker Name: 65955.SCRP                            COMMENT
Campaign Name: NGS Imperial Valley 1990                     COMMENT
4-Character Station Name: SCRP                              COMMENT
6-Character Antenna Code: TI4100                            COMMENT
Vertical Measurement Point: PAE                             COMMENT
Vertical Offset to Rinex Ref. Point: 0.0000                 COMMENT
Radial Measurement Point: RRP                               COMMENT
Radial Offset to Rinex Ref. Point: 0.0000                   COMMENT
Antenna Height from Field Measurement: 1.3355 m             COMMENT
Original XYZ: -2455504.0080 -4767204.7159 3441646.0526      COMMENT
New XYZ position is based on association with SCEC monument COMMENT
E1C8P4W3+0101. Position of that monument is believed to be  COMMENT
valid to within 1 m horizontally; vertical accuracy         COMMENT
should be no worse than 3-times this value.                 COMMENT
                                                            COMMENT
Revised Rinex header created by UCSD GPS archive for        COMMENT
GSAC on 11-Nov-1999 (1999:315) 16:03:28 GMT                 COMMENT
For assistance contact dagnew@ucsd.edu or hjohnson@ucsd.edu COMMENT
                                                            COMMENT
SCRIPPS 1989 UCSD IGPP                                      MARKER NAME
5 NATIONAL GEODETIC SURVEY                                  OBSERVER / AGENCY
122 TI 4100 1.9                                             REC # / TYPE / VERS
4102 TI 4100                                                ANT # / TYPE
 -2455522.0000 -4767213.0000  3441655.0000                  APPROX POSITION XYZ
        1.3355        0.0000        0.0000                  ANTENNA: DELTA H/E/N
     1     1     0                                          WAVELENGTH FACT L1/2
     4    P1    P2    L1    L2                              # / TYPES OF OBSERV
    15                                                      INTERVAL
  1990     3    10     3    41   44.000000                  TIME OF FIRST OBS
  1990     3    10     7    54   14.000000                  TIME OF LAST OBS
     0                                                      # OF SATELLITES
                                                            END OF HEADER
 90  3 10  3 41 44.0800000  0  4G 6G 9G11G13
  20589338.547    20589339.380     1067673.736 2   -634458.148 2
  21996210.054    21996215.197      684463.854 9  -1503121.921 9
  20883418.050    20883421.104      951087.543 6  -1396219.121 7
  23672873.749    23672882.008      478946.605 8  -1560516.034 7
 90  3 10  3 41 59.0800000  0  4G 6G 9G11G13
  20587233.095    20587232.654     1056608.154 5   -643080.664 4
  21988676.623    21988679.720      644870.284 9  -1533974.023 8
  20879727.842    20879732.795      931695.663 8  -1411329.647 8
  23662482.913    23662491.049      424335.777 9  -1603069.779 7
 90  3 10  3 42 14.0800000  0  4G 6G 9G11G13
  20585148.495    20585147.645     1045645.685 3   -651622.852 3
  21981150.947    21981154.058      605324.097 9  -1564789.207 9
  20876063.455    20876068.074      912437.918 9  -1426335.659 8
  23652100.632    23652108.670      369782.422 9  -1645578.730 7
 90  3 10  3 42 29.0800000  0  4G 6G 9G11G13
  20583081.936    20583082.605     1034786.575 5   -660084.462 6
  21973635.659    21973638.069      565825.653 9  -1595567.183 8
  20872424.781    20872428.760      893314.181 9  -1441237.230 8
  23641730.785    23641737.444      315286.667 9  -1688042.787 7
 90  3 10  3 42 44.0800000  0  4G 6G 9G11G13
  20581034.539    20581036.117     1024031.082 9   -668465.369 7
  21966126.660    21966130.844      526375.092 9  -1626307.849 8
  20868810.854    20868815.458      874324.696 9  -1456034.203 7
  23631372.266    23631378.275      260848.926 9  -1730461.673 7
 90  3 10  3 42 59.0800000  0  4G 6G 9G11G13
  20579008.358    20579009.134     1013379.511 9   -676765.279 8
  21958629.954    21958630.724      486972.914 9  -1657010.817 8
  20865223.776    20865227.392      855469.580 8  -1470726.476 8
  23621024.237    23621029.350      206469.310 9  -1772835.228 7
 90  3 10  3 43 14.0800000  0  4G 6G 9G11G13
  20577000.837    20577002.087     1002832.121 9   -684984.017 9
  21951140.651    21951143.705      447619.391 9  -1687675.869 7
  20861658.847    20861662.697      836748.847 8  -1485314.017 7
  23610686.365    23610692.857      152148.253 9  -1815163.181 8
 90  3 10  3 43 29.0800000  0  4G 6G 9G11G13
  20575012.717    20575014.095      992389.208 9   -693121.334 9
  21943659.777    21943664.276      408314.781 9  -1718302.821 7
  20858122.217    20858125.604      818162.568 8  -1499796.800 7
  23600360.418    23600366.192       97886.082 9  -1857445.243 8
 90  3 10  3 43 44.0800000  0  4G 6G 9G11G13
  20573044.804    20573047.098      982050.976 9   -701177.080 7
  21936189.784    21936193.867      369059.333 8  -1748891.447 8
  20854612.266    20854615.205      799710.583 8  -1514174.956 8
  23590045.921    23590050.314       43682.947 9  -1899681.289 7
 90  3 10  3 43 59.0800000  0  4G 6G 9G11G13
  20571098.095    20571100.176      971817.743 8   -709151.020 8
  21928730.855    21928731.883      329853.465 9  -1779441.428 8
  20851126.518    20851129.590      781393.070 9  -1528448.320 7
  23579743.445    23579748.958      -10460.833 9  -1941871.119 8
 90  3 10  3 44 14.0800000  0  4G 6G 9G11G13
  20569170.790    20569172.398      961689.731 9   -717042.967 8
  21921280.339    21921281.766      290697.472 9  -1809952.544 7
  20847666.802    20847670.757      763209.918 8  -1542616.972 7
  23569450.870    23569458.502      -64544.849 9  -1984014.369 7
 90  3 10  3 44 29.0800000  0  4G 6G 9G11G13
  20567263.089    20567264.741      951667.230 9   -724852.692 7
  21913838.642    21913839.720      251591.778 9  -1840424.473 9
  20844230.858    20844234.504      745161.295 9  -1556680.811 7
  23559169.711    23559175.221     -118568.661 9  -2026110.702 9
 90  3 10  3 44 44.0800000  0  4G 6G 9G11G13
  20565377.053    20565377.257      941750.557 9   -732579.974 8
  21906406.870    21906406.144      212536.476 9  -1870857.132 8
  20840820.244    20840826.298      727247.264 8  -1570639.762 8
  23548901.353    23548906.553     -172532.213 9  -2068160.074 7
 90  3 10  3 44 59.0800000  0  4G 6G 9G11G13
  20563509.904    20563510.280      931939.820 9   -740224.683 7
  21898983.397    21898985.220      173532.053 9  -1901250.148 8
  20837437.243    20837441.507      709467.893 8  -1584493.774 8
  23538644.117    23538650.197     -226435.156 9  -2110162.241 8
 90  3 10  3 45 14.0800000  0  4G 6G 9G11G13
  20561662.158    20561664.251      922235.427 9   -747786.547 7
  21891570.957    21891573.945      134578.877 9  -1931603.240 8
  20834080.406    20834084.290      691823.124 8  -1598242.913 8
  23528398.110    23528403.683     -280277.210 9  -2152116.958 7
 90  3 10  3 45 29.0800000  0  4G 6G 9G11G13
  20559836.735    20559838.485      912637.638 8   -755265.344 8
  21884167.882    21884170.691       95677.125 9  -1961916.262 9
  20830748.554    20830751.368      674313.093 8  -1611887.060 6
  23518164.321    23518169.772     -334057.936 9  -2194023.881 8
 90  3 10  3 45 44.0800000  0  4G 6G 9G11G13
  20558030.571    20558032.880      903146.680 9   -762660.883 8
  21876775.188    21876777.761       56827.139 9  -1992188.945 8
  20827444.317    20827445.470      656937.759 8  -1625426.246 7
  23507941.312    23507947.873     -387777.039 9  -2235882.783 7
 90  3 10  3 45 59.0800000  0  4G 6G 9G11G13
  20556244.557    20556247.465      893762.731 9   -769973.038 8
  21869392.210    21869395.677       18029.252 9  -2022421.038 8
  20824162.077    20824165.795      639697.143 8  -1638860.463 8
  23497729.879    23497735.656     -441434.430 9  -2277693.590 7
 90  3 10  3 46 14.0800000  0  4G 6G 9G11G13
  20554479.374    20554482.255      884486.118 9   -777201.549 8
  21862018.898    21862022.080      -20716.029 9  -2052612.135 8
  20820906.697    20820912.297      622591.277 8  -1652189.695 7
  23487531.062    23487538.054     -495029.583 9  -2319455.919 8
 90  3 10  3 46 29.0800000  0  4G 6G 9G11G13
  20552734.455    20552737.192      875317.134 9   -784346.194 9
  21854656.683    21854659.744      -59408.899 9  -2082762.383 9
  20817676.363    20817679.835      605620.328 8  -1665413.797 7
  23477343.537    23477350.328     -548562.212 9  -2361169.522 7
 90  3 10  3 46 44.0800000  0  4G 6G 9G11G13
  20551011.114    20551013.093      866255.979 9   -791406.809 8
  21847303.097    21847306.571      -98048.574 9  -2112871.188 8
  20814473.273    20814476.656      588784.233 8  -1678532.788 8
  23467169.957    23467173.841     -602032.296 9  -2402834.383 6
 90  3 10  3 46 59.0800000  0  4G 6G 9G11G13
  20549307.262    20549308.526      857302.960 9   -798383.171 8
  21839961.887    21839963.479     -136634.922 9  -2142938.425 8
  20811295.903    20811298.089      572082.924 8  -1691546.778 8
  23457006.479    23457010.985     -655439.381 9  -2444450.177 7
 90  3 10  3 47 14.0800000  0  4G 6G 9G11G13
  20547624.644    20547625.980      848458.303 9   -805275.088 8
  21832628.061    21832630.894     -175167.352 8  -2172963.658 9
  20808141.427    20808145.670      555516.567 8  -1704455.586 7
  23446855.345    23446860.667     -708783.337 8  -2486016.752 6
 90  3 10  3 47 29.0800000  0  4G 6G 9G11G13
  20545962.947    20545964.024      839722.361 9   -812082.307 8
  21825305.991    21825307.414     -213645.879 9  -2202946.863 8
  20805016.528    20805018.282      539085.227 9  -1717259.189 7
  23436716.291    23436720.594     -762063.691 9  -2527533.783 8
 90  3 10  3 47 44.0800000  0  4G 6G 9G11G13
  20544319.336    20544319.955      831095.205 9   -818804.760 8
  21817994.502    21817995.660     -252070.061 9  -2232887.761 8
  20801914.904    20801917.413      522788.898 9  -1729957.583 7
  23426588.467    23426594.158     -815280.035 9  -2569000.941 7
 90  3 10  3 47 59.0800000  0  4G 6G 9G11G13
  20542698.450    20542699.627      822577.158 8   -825442.194 8
  21810692.220    21810693.471     -290439.502 9  -2262785.985 7
  20798839.241    20798841.555      506627.467 9  -1742550.872 7
  23416474.587    23416479.819     -868432.154 9  -2610418.045 8
 90  3 10  3 48 14.0800000  0  4G 6G 9G11G13
  20541096.965    20541100.717      814168.509 8   -831994.389 8
  21803401.824    21803403.053     -328754.016 9  -2292641.415 8
  20795789.820    20795791.978      490600.967 9  -1755039.021 8
  23406372.280    23406377.195     -921519.964 9  -2651785.050 7
 90  3 10  3 48 29.0800000  0  4G 6G 9G11G13
  20539518.604    20539521.370      805869.481 8   -838461.164 7
  21796121.285    21796123.158     -367013.152 9  -2322453.700 8
  20792766.288    20792769.324      474709.403 9  -1767422.031 7
  23396282.776    23396286.964     -974543.061 9  -2693101.627 7
 90  3 10  3 48 44.0800000  0  4G 6G 9G11G13
  20537960.704    20537962.672      797680.344 9   -844842.291 7
  21788851.830    21788852.858     -405216.698 9  -2352222.666 8
  20789767.133    20789771.136      458952.914 9  -1779699.814 8
  23386204.483    23386210.221    -1027501.341 9  -2734367.708 8
 90  3 10  3 48 59.0800000  0  4G 6G 9G11G13
  20536421.609    20536423.817      789601.384 8   -851137.586 8
  21781592.046    21781592.232     -443364.178 9  -2381947.939 8
  20786794.549    20786796.802      443331.450 9  -1791872.370 7
  23376139.330    23376144.763    -1080394.408 9  -2775582.972 7
 90  3 10  3 49 14.0800000  0  4G 6G 9G11G13
  20534906.152    20534908.245      781632.731 8   -857346.906 8
  21774343.997    21774343.938     -481455.496 9  -2411629.465 7
  20783847.617    20783850.964      427845.107 8  -1803939.627 7
  23366085.870    23366092.069    -1133221.876 9  -2816747.106 8
 90  3 10  3 49 29.0800000  0  4G 6G 9G11G13
  20533410.756    20533412.820      773774.704 9   -863470.040 8
  21767105.872    21767105.862     -519490.223 9  -2441266.880 7
  20780926.218    20780927.763      412493.931 8  -1815901.576 7
  23356045.261    23356051.620    -1185983.480 9  -2857859.918 8
 90  3 10  3 49 44.0800000  0  4G 6G 9G11G13
  20531937.482    20531939.461      766027.602 9   -869506.725 8
  21759878.514    21759879.914     -557467.987 9  -2470859.923 8
  20778029.648    20778031.730      397277.810 8  -1827758.257 7
  23346017.250    23346023.878    -1238678.918 9  -2898921.182 8
 90  3 10  3 49 59.0800000  0  4G 6G 9G11G13
  20530484.871    20530486.020      758391.676 9   -875456.777 8
  21752660.815    21752664.060     -595388.473 9  -2500408.331 8
  20775159.296    20775162.576      382196.741 8  -1839509.700 8
  23336003.122    23336008.609    -1291307.902 9  -2939930.671 8
 90  3 10  3 50 14.0800000  0  4G 6G 9G11G13
  20529052.264    20529054.859      750867.121 9   -881320.050 9
  21745456.981    21745457.837     -633251.474 8  -2529911.932 8
  20772317.186    20772318.877      367250.738 8  -1851155.915 7
  23326000.112    23326005.709    -1343870.013 8  -2980888.030 7
 90  3 10  3 50 29.0800000  0  4G 6G 9G11G13
  20527641.605    20527643.786      743454.170 9   -887096.367 7
  21738263.565    21738264.822     -671056.376 9  -2559370.278 8
  20769499.339    20769501.982      352439.858 8  -1862696.830 7
  23316010.886    23316016.896    -1396365.137 9  -3021793.190 8
 90  3 10  3 50 44.0800000  0  4G 6G 9G11G13
  20526252.613    20526253.963      736153.057 9   -892785.534 8
  21731080.386    21731082.667     -708802.948 9  -2588783.168 7
  20766706.590    20766708.944      337764.059 8  -1874132.492 7
  23306034.529    23306039.628    -1448793.114 9  -3062646.042 8
 90  3 10  3 50 59.0800000  0  4G 6G 9G11G13
  20524884.626    20524885.088      728964.076 9   -898387.328 9
  21723908.763    21723910.192     -746491.129 9  -2618150.567 8
  20763938.491    20763941.236      323223.397 9  -1885462.859 7
  23296070.679    23296076.340    -1501153.491 9  -3103446.210 7
 90  3 10  3 51 14.0800000  0  4G 6G 9G11G13
  20523536.788    20523539.197      721887.513 8   -903901.521 8
  21716747.613    21716749.479     -784120.391 9  -2647472.048 8
  20761198.493    20761201.180      308817.862 9  -1896687.911 7
  23286119.858    23286126.504    -1553446.062 9  -3144193.560 7
 90  3 10  3 51 29.0800000  0  4G 6G 9G11G13
  20522212.901    20522214.051      714923.488 9   -909328.031 9
  21709598.798    21709599.935     -821690.255 9  -2676747.228 9
  20758483.199    20758484.254      294547.498 9  -1907807.653 8
  23276181.895    23276187.597    -1605670.547 8  -3184887.806 8
 90  3 10  3 51 44.0800000  0  4G 6G 9G11G13
  20520910.022    20520910.683      708072.285 9   -914666.623 8
  21702460.250    21702462.114     -859200.648 9  -2705976.085 7
  20755792.066    20755794.642      280412.215 8  -1918822.124 8
  23266257.572    23266262.515    -1657826.669 7  -3225528.824 7
 90  3 10  3 51 59.0800000  0  4G 6G 9G11G13
  20519627.461    20519628.667      701334.229 9   -919917.059 9
  21695333.657    21695335.760     -896651.220 9  -2735158.312 8
  20753127.070    20753131.660      266411.988 8  -1929731.361 8
  23256343.633    23256350.450    -1709914.166 8  -3266116.340 8
 90  3 10  3 52 14.0800000  0  4G 6G 9G11G13
  20518366.535    20518367.584      694709.471 9   -925079.199 8
  21688218.569    21688221.315     -934041.698 9  -2764293.718 9
  20750489.170    20750492.860      252546.866 8  -1940535.335 8
  23246445.016    23246451.667    -1761932.614 8  -3306650.093 7
 90  3 10  3 52 29.0800000  0  4G 6G 9G11G13
  20517127.502    20517129.882      688198.285 9   -930152.850 8
  21681114.427    21681117.030     -971371.499 9  -2793381.842 8
  20747875.497    20747879.519      238816.841 8  -1951234.031 8
  23236559.546    23236565.070    -1813881.934 9  -3347129.966 7
 90  3 10  3 52 44.0800000  0  4G 6G 9G11G13
  20515910.277    20515912.886      681800.960 9   -935137.761 9
  21674021.189    21674024.327    -1008640.626 8  -2822422.700 7
  20745289.163    20745291.959      225221.878 8  -1961827.509 7
  23226688.275    23226693.804    -1865761.585 9  -3387555.545 7
 90  3 10  3 52 59.0800000  0  4G 6G 9G11G13
  20514715.001    20514717.611      675517.659 9   -940033.819 8
  21666940.508    21666944.691    -1045848.414 8  -2851415.754 8
  20742727.265    20742729.751      211761.975 9  -1972315.711 7
  23216828.860    23216833.426    -1917571.455 9  -3427926.775 7
 90  3 10  3 53 14.0800000  0  4G 6G 9G11G13
  20513540.531    20513543.184      669348.625 9   -944840.862 9
  21659871.974    21659874.419    -1082994.658 8  -2880360.835 8
  20740189.785    20740194.851      198437.189 8  -1982698.630 6
  23206982.307    23206988.096    -1969311.415 9  -3468243.499 8
 90  3 10  3 53 29.0800000  0  4G 6G 9G11G13
  20512386.641    20512390.137      663294.125 8   -949558.638 9
  21652814.396    21652817.677    -1120079.081 8  -2909257.759 9
  20737680.200    20737685.607      185247.519 7  -1992976.261 8
  23197150.637    23197155.129    -2020981.066 9  -3508505.456 7
 90  3 10  3 53 44.0800000  0  4G 6G 9G11G13
  20511256.301    20511259.353      657354.445 9   -954186.961 7
  21645772.262    21645772.618    -1157101.268 9  -2938106.171 7
  20735196.909    20735201.315      172192.950 8  -2003148.654 7
  23187331.165    23187335.999    -2072579.977 8  -3548712.300 7
 90  3 10  3 53 59.0800000  0  4G 6G 9G11G13
  20510148.883    20510151.076      651529.747 8   -958725.674 8
  21638739.695    21638739.565    -1194060.903 9  -2966905.865 8
  20732739.256    20732743.517      159273.360 8  -2013215.827 7
  23177525.173    23177531.639    -2124108.054 9  -3588863.932 7
 90  3 10  3 54 14.0800000  0  4G 6G 9G11G13
  20509062.930    20509064.093      645820.258 8   -963174.602 7
  21631718.117    21631719.567    -1230957.766 9  -2995656.637 8
  20730306.912    20730310.357      146488.862 7  -2023177.766 7
  23167732.384    23167738.551    -2175565.055 9  -3628960.203 7
 90  3 10  3 54 29.0800000  0  4G 6G 9G11G13
  20507999.015    20507999.163      640226.292 9   -967533.527 8
  21624709.046    21624708.622    -1267791.414 9  -3024358.159 8
  20727899.806    20727902.616      133839.305 8  -2033034.526 7
  23157954.570    23157960.934    -2226950.569 9  -3669000.752 8
 90  3 10  3 54 44.0800000  0  4G 6G 9G11G13
  20506956.561    20506956.839      634748.016 9   -971802.313 8
  21617711.544    21617710.483    -1304561.558 9  -3053010.207 7
  20725517.494    20725520.620      121324.700 8  -2042786.128 7
  23148189.323    23148195.527    -2278264.404 9  -3708985.441 8
 90  3 10  3 54 59.0800000  0  4G 6G 9G11G13
  20505935.287    20505936.236      629385.684 9   -975980.754 8
  21610725.939    21610728.098    -1341267.890 9  -3081612.524 7
  20723163.464    20723165.636      108945.165 9  -2052432.501 7
  23138438.106    23138444.934    -2329506.342 9  -3748914.100 7
 90  3 10  3 55 14.0800000  0  4G 6G 9G11G13
  20504936.964    20504938.872      624139.543 9   -980068.661 8
  21603753.443    21603754.634    -1377910.040 9  -3110164.834 7
  20720833.901    20720835.445       96700.554 8  -2061973.742 7
  23128700.421    23128705.368    -2380675.860 9  -3788786.344 7
 90  3 10  3 55 29.0800000  0  4G 6G 9G11G13
  20503960.246    20503962.555      619009.800 8   -984065.849 8
  21596792.063    21596794.365    -1414487.637 9  -3138666.841 8
  20718528.185    20718530.458       84590.849 9  -2071409.844 7
  23118976.739    23118981.797    -2431772.869 9  -3828602.099 7
 90  3 10  3 55 44.0800000  0  4G 6G 9G11G13
  20503006.025    20503008.247      613996.619 9   -987972.214 8
  21589843.763    21589844.837    -1451000.439 9  -3167118.380 8
  20716249.217    20716252.011       72616.072 9  -2080740.824 7
  23109267.964    23109273.401    -2482797.194 9  -3868361.199 7
 90  3 10  3 55 59.0800000  0  4G 6G 9G11G13
  20502074.583    20502076.504      609100.305 9   -991787.510 9
  21582907.698    21582911.902    -1487447.851 9  -3195518.941 8
  20713996.687    20713998.718       60776.236 8  -2089966.629 7
  23099571.139    23099577.377    -2533748.247 9  -3908063.207 7
 90  3 10  3 56 14.0800000  0  4G 6G 9G11G13
  20501166.121    20501168.071      604321.044 9   -995511.597 7
  21575985.985    21575987.263    -1523829.935 9  -3223868.600 8
  20711768.402    20711770.656       49071.180 8  -2099087.433 8
  23089890.389    23089896.967    -2584626.050 9  -3947708.153 8
 90  3 10  3 56 29.0800000  0  4G 6G 9G11G13
  20500278.609    20500282.178      599659.190 9   -999144.222 8
  21569075.074    21569076.460    -1560146.037 9  -3252166.831 9
  20709566.158    20709568.697       37500.948 8  -2108103.168 7
  23080222.432    23080228.281    -2635430.459 9  -3987295.892 7
 90  3 10  3 56 44.0800000  0  4G 6G 9G11G13
  20499413.734    20499416.126      595114.890 9  -1002685.228 7
  21562177.614    21562177.934    -1596396.233 9  -3280413.709 7
  20707390.091    20707392.954       26065.517 9  -2117013.870 7
  23070568.945    23070574.123    -2686160.959 9  -4026826.048 7
 90  3 10  3 56 59.0800000  0  4G 6G 9G11G13
  20498570.721    20498572.872      590688.317 9  -1006134.508 8
  21555291.079    21555292.403    -1632579.738 9  -3308608.604 8
  20705239.300    20705243.433       14764.822 9  -2125819.589 7
  23060929.181    23060933.413    -2736817.261 8  -4066298.389 7
 90  3 10  3 57 14.0800000  0  4G 6G 9G11G13
  20497750.234    20497752.943      586379.733 9  -1009491.827 7
  21548418.906    21548420.220    -1668696.226 9  -3336751.290 8
  20703115.115    20703119.126        3598.864 8  -2134520.312 8
  23051304.129    23051307.466    -2787398.945 9  -4105712.572 7
 90  3 10  3 57 29.0800000  0  4G 6G 9G11G13
  20496954.042    20496955.204      582189.442 9  -1012756.968 9
  21541558.491    21541559.606    -1704745.936 9  -3364841.933 9
  20701014.700    20701020.092       -7432.486 8  -2143116.157 8
  23041692.444    23041696.980    -2837905.840 8  -4145068.496 8
 90  3 10  3 57 44.0800000  0  4G 6G 9G11G13
  20496179.572    20496180.348      578117.554 9  -1015929.865 7
  21534710.978    21534712.364    -1740727.874 9  -3392879.786 8
  20698942.102    20698946.640      -18329.253 8  -2151607.108 8
  23032095.412    23032099.357    -2888338.164 8  -4184366.312 8
 90  3 10  3 57 59.0800000  0  4G 6G 9G11G13
  20495427.480    20495428.488      574164.299 8  -1019010.320 8
  21527877.215    21527879.181    -1776641.532 9  -3420864.412 8
  20696894.012    20696898.155      -29091.343 8  -2159993.141 7
  23022511.485    23022516.919    -2938695.240 8  -4223605.487 7
 90  3 10  3 58 14.0800000  0  4G 6G 9G11G13
  20494697.340    20494698.004      570329.938 9  -1021998.121 8
  21521055.673    21521057.618    -1812487.598 9  -3448796.392 8
  20694871.941    20694875.015      -39718.801 8  -2168274.253 7
  23012943.730    23012948.616    -2988976.853 9  -4262785.890 7
 90  3 10  3 58 29.0800000  0  4G 6G 9G11G13
  20493989.980    20493992.962      566614.716 9  -1024893.105 8
  21514246.625    21514249.999    -1848264.914 9  -3476674.812 9
  20692875.309    20692878.160      -50211.691 8  -2176450.521 8
  23003390.323    23003392.217    -3039182.927 9  -4301907.384 7
 90  3 10  3 58 44.0800000  0  4G 6G 9G11G13
  20493306.403    20493309.482      563018.787 9  -1027695.136 9
  21507451.904    21507453.934    -1883973.308 8  -3504499.502 8
  20690904.329    20690906.830      -60570.095 8  -2184521.975 7
  22993851.712    22993853.894    -3089312.844 9  -4340969.575 7
 90  3 10  3 58 59.0800000  0  4G 6G 9G11G13
  20492643.657    20492647.040      559542.449 8  -1030403.956 8
  21500669.669    21500672.436    -1919612.444 9  -3532270.233 8
  20688958.453    20688962.262      -70794.043 8  -2192488.658 7
  22984326.347    22984329.234    -3139366.464 9  -4379972.311 7
 90  3 10  3 59 14.0800000  0  4G 6G 9G11G13
  20492004.409    20492007.718      556185.842 8  -1033019.482 8
  21493900.226    21493904.074    -1955181.974 8  -3559986.726 8
  20687038.820    20687041.081      -80883.639 9  -2200350.636 8
  22974815.458    22974819.366    -3189343.717 9  -4418915.549 6
 90  3 10  3 59 29.0800000  0  4G 6G 9G11G13
  20491389.086    20491392.054      552949.228 8  -1035541.518 8
  21487144.586    21487149.321    -1990682.004 9  -3587649.061 8
  20685144.592    20685148.449      -90838.818 8  -2208107.917 7
  22965319.935    22965324.574    -3239244.182 9  -4457798.933 8
 90  3 10  3 59 44.0800000  0  4G 6G 9G11G13
  20490794.738    20490798.409      549832.754 8  -1037969.926 9
  21480402.918    21480407.036    -2026111.893 8  -3615256.748 8
  20683274.693    20683278.508     -100659.817 9  -2215760.614 8
  22955837.469    22955842.690    -3289067.800 9  -4496622.454 7
 90  3 10  3 59 59.0800000  0  4G 6G 9G11G13
  20490224.977    20490229.160      546836.760 8  -1040304.454 8
  21473673.475    21473677.073    -2061470.778 9  -3642809.083 9
  20681432.088    20681436.289     -110346.632 9  -2223308.773 8
  22946372.700    22946377.319    -3338814.089 9  -4535385.708 6
 90  3 10  4  0 14.0800000  0  4G 6G 9G11G13
  20489679.340    20489682.692      543961.396 8  -1042545.006 8
  21466959.732    21466962.105    -2096758.972 8  -3670306.347 8
  20679614.670    20679619.470     -119899.177 8  -2230752.297 7
  22936920.968    22936925.641    -3388482.893 9  -4574088.582 7
 90  3 10  4  0 29.0800000  0  4G 6G 9G11G13
  20489155.053    20489157.002      541206.891 9  -1044691.364 8
  21460258.631    21460261.262    -2131975.809 9  -3697748.021 9
  20677821.922    20677825.268     -129317.478 9  -2238091.213 8
  22927484.133    22927489.114    -3438073.752 9  -4612730.723 7
 90  3 10  4  0 44.0800000  0  4G 6G 9G11G13
  20488653.886    20488656.453      538573.452 8  -1046743.385 7
  21453571.243    21453572.802    -2167121.239 9  -3725134.031 8
  20676055.414    20676057.592     -138601.563 8  -2245325.546 8
  22918061.268    22918066.082    -3487586.509 9  -4651312.013 7
 90  3 10  4  0 59.0800000  0  4G 6G 9G11G13
  20488174.959    20488178.512      536061.218 9  -1048700.969 9
  21446897.057    21446898.080    -2202194.788 9  -3752464.040 9
  20674314.594    20674315.562     -147751.592 8  -2252455.410 7
  22908654.348    22908660.170    -3537020.915 9  -4689832.266 7
 90  3 10  4  1 14.0800000  0  4G 6G 9G11G13
  20487721.301    20487723.338      533670.490 9  -1050563.849 8
  21440236.445    21440238.509    -2237195.985 9  -3779737.689 8
  20672598.089    20672599.864     -156767.725 9  -2259480.953 8
  22899263.018    22899268.004    -3586376.684 9  -4728291.218 8
 90  3 10  4  1 29.0800000  0  4G 6G 9G11G13
  20487289.765    20487292.158      531401.482 9  -1052331.898 8
  21433590.254    21433592.363    -2272124.495 9  -3806954.673 8
  20670908.227    20670910.063     -165649.960 8  -2266402.170 8
  22889886.435    22889891.377    -3635653.532 9  -4766688.680 7
 90  3 10  4  1 44.0800000  0  4G 6G 9G11G13
  20486880.665    20486882.287      529254.377 8  -1054004.953 8
  21426957.980    21426959.401    -2306980.207 9  -3834114.952 8
  20669243.779    20669247.619     -174398.248 8  -2273219.012 8
  22880525.071    22880527.270    -3684851.283 9  -4805024.501 8
 90  3 10  4  1 59.0800000  0  4G 6G 9G11G13
  20486494.633    20486496.943      527229.426 8  -1055582.829 8
  21420338.626    21420339.927    -2341762.550 9  -3861218.038 8
  20667604.859    20667607.762     -183012.752 8  -2279931.604 8
  22871177.477    22871181.676    -3733969.713 9  -4843298.525 8
 90  3 10  4  2 14.0800000  0  4G 6G 9G11G13
  20486132.296    20486134.348      525326.738 8  -1057065.431 7
  21413733.632    21413735.469    -2376471.297 9  -3888263.790 7
  20665991.040    20665995.179     -191493.452 9  -2286539.936 8
  22861845.334    22861848.588    -3783008.665 9  -4881510.603 8
 90  3 10  4  2 29.0800000  0  4G 6G 9G11G13
  20485794.227    20485794.933      523546.568 8  -1058452.552 7
  21407142.726    21407144.877    -2411106.026 9  -3915251.848 8
  20664402.454    20664407.124     -199840.467 8  -2293044.095 8
  22852528.733    22852531.748    -3831967.881 9  -4919660.578 8
 90  3 10  4  2 44.0800000  0  4G 6G 9G11G13
  20485478.738    20485479.803      521889.179 8  -1059744.022 8
  21400564.146    21400566.720    -2445666.584 9  -3942182.126 9
  20662839.029    20662843.208     -208053.806 8  -2299444.076 8
  22843227.157    22843230.179    -3880847.017 9  -4957748.128 8
 90  3 10  4  2 59.0800000  0  4G 6G 9G11G13
  20485186.975    20485188.968      520354.689 8  -1060939.734 9
  21394002.367    21394004.762    -2480152.299 9  -3969054.087 9
  20661301.792    20661305.157     -216133.555 8  -2305739.978 7
  22833940.117    22833944.381    -3929645.805 9  -4995773.092 8
 90  3 10  4  3 14.0800000  0  4G 6G 9G11G13
  20484919.021    20484920.572      518943.377 9  -1062039.445 7
  21387453.385    21387456.475    -2514563.163 9  -3995867.725 8
  20659788.912    20659792.679     -224079.798 8  -2311931.822 7
  22824668.369    22824673.598    -3978364.049 9  -5033735.273 6
 90  3 10  4  3 29.0800000  0  4G 6G 9G11G13
  20484674.391    20484674.883      517655.388 8  -1063043.084 8
  21380919.617    21380921.695    -2548898.752 9  -4022622.699 8
  20658302.429    20658305.025     -231892.611 7  -2318019.690 7
  22815413.934    22815417.694    -4027001.414 9  -5071634.442 8
 90  3 10  4  3 44.0800000  0  4G 6G 9G11G13
  20484452.744    20484453.377      516490.847 9  -1063950.514 7
  21374400.391    21374402.807    -2583158.743 9  -4049318.779 7
  20656842.215    20656843.993     -239572.088 7  -2324003.668 9
  22806174.200    22806178.499    -4075557.686 9  -5109470.439 7
 90  3 10  4  3 59.0800000  0  4G 6G 9G11G13
  20484252.730    20484256.413      515450.101 8  -1064761.472 8
  21367896.184    21367897.069    -2617342.619 9  -4075955.536 9
  20655406.214    20655408.558     -247118.228 8  -2329883.748 7
  22796950.734    22796954.250    -4124032.725 9  -5147243.114 8
 90  3 10  4  4 14.0800000  0  4G 6G 9G11G13
  20484078.330    20484082.139      514533.248 8  -1065475.901 8
  21361405.950    21361406.599    -2651450.089 9  -4102532.765 8
  20653994.971    20653997.914     -254531.084 9  -2335659.975 8
  22787741.332    22787746.046    -4172426.115 9  -5184952.188 7
 90  3 10  4  4 29.0800000  0  4G 6G 9G11G13
  20483925.223    20483930.608      513740.583 8  -1066093.539 9
  21354930.075    21354930.552    -2685480.946 9  -4129050.287 8
  20652608.964    20652612.723     -261810.770 8  -2341332.458 8
  22778547.458    22778552.870    -4220737.833 9  -5222597.617 8
 90  3 10  4  4 44.0800000  0  4G 6G 9G11G13
  20483799.560    20483803.929      513072.202 8  -1066614.351 8
  21348469.703    21348469.273    -2719434.816 9  -4155507.825 8
  20651249.648    20651252.041     -268957.440 8  -2346901.274 8
  22769370.354    22769373.952    -4268967.181 9  -5260178.861 8
 90  3 10  4  4 59.0800000  0  4G 6G 9G11G13
  20483696.305    20483699.946      512528.374 7  -1067038.111 8
  21342022.612    21342022.912    -2753311.245 9  -4181905.041 7
  20649913.843    20649916.921     -275971.155 7  -2352366.503 7
  22760206.935    22760211.661    -4317114.123 9  -5297695.908 8
 90  3 10  4  5 14.0800000  0  4G 6G 9G11G13
  20483617.292    20483619.198      512109.265 8  -1067364.670 7
  21335591.589    21335590.986    -2787110.000 9  -4208241.723 7
  20648604.599    20648606.631     -282851.929 8  -2357728.125 7
  22751059.709    22751066.349    -4365178.490 9  -5335148.587 7
 90  3 10  4  5 29.0800000  0  4G 6G 9G11G13
  20483561.542    20483562.490      511815.058 8  -1067593.929 9
  21329173.687    21329173.449    -2820830.627 9  -4234517.538 8
  20647320.747    20647322.558     -289599.776 8  -2362986.153 8
  22741929.038    22741934.928    -4413160.151 9  -5372536.822 8
 90  3 10  4  5 44.0800000  0  4G 6G 9G11G13
  20483530.205    20483530.854      511645.953 9  -1067725.678 8
  21322771.697    21322771.480    -2854472.824 9  -4260732.247 7
  20646062.254    20646062.405     -296214.769 8  -2368140.671 8
  22732815.299    22732820.907    -4461058.561 9  -5409860.203 7
 90  3 10  4  5 59.0800000  0  4G 6G 9G11G13
  20483521.591    20483523.229      511601.908 8  -1067759.989 9
  21316383.946    21316385.640    -2888036.511 9  -4286885.757 7
  20644828.101    20644829.845     -302697.377 8  -2373192.035 8
  22723716.366    22723721.777    -4508873.959 9  -5447118.865 9
 90  3 10  4  6 14.0800000  0  4G 6G 9G11G13
  20483537.418    20483538.641      511683.433 9  -1067696.451 8
  21310011.647    21310014.558    -2921521.115 9  -4312977.631 7
  20643619.339    20643624.372     -309047.322 8  -2378140.019 8
  22714633.511    22714637.631    -4556605.824 8  -5484312.443 7
 90  3 10  4  6 29.0800000  0  4G 6G 9G11G13
  20483577.743    20483578.636      511890.751 9  -1067534.909 9
  21303656.886    21303657.858    -2954926.165 9  -4339007.521 9
  20642436.842    20642441.426     -315264.633 8  -2382984.669 8
  22705566.441    22705570.624    -4604253.915 9  -5521440.763 8
 90  3 10  4  6 44.0800000  0  4G 6G 9G11G13
  20483639.588    20483641.109      512223.905 8  -1067275.296 8
  21297314.995    21297315.631    -2988251.492 9  -4364975.291 8
  20641279.337    20641282.940     -321349.560 8  -2387726.176 8
  22696515.219    22696517.753    -4651817.957 9  -5558503.575 7
 90  3 10  4  6 59.0800000  0  4G 6G 9G11G13
  20483725.701    20483729.355      512683.203 8  -1066917.431 8
  21290988.215    21290990.137    -3021496.634 9  -4390880.571 9
  20640148.047    20640151.182     -327302.222 7  -2392364.624 8
  22687479.529    22687484.800    -4699297.784 9  -5595500.791 7
 90  3 10  4  7 14.0800000  0  4G 6G 9G11G13
  20483839.117    20483841.396      513268.647 8  -1066461.239 8
  21284677.074    21284679.550    -3054661.433 9  -4416723.268 8
  20639039.982    20639042.489     -333122.707 8  -2396900.051 8
  22678460.100    22678464.147    -4746693.097 8  -5632432.135 7
 90  3 10  4  7 29.0800000  0  4G 6G 9G11G13
  20483973.137    20483976.074      513980.528 8  -1065906.533 8
  21278380.393    21278383.841    -3087745.344 9  -4442502.909 8
  20637956.977    20637958.798     -338811.117 8  -2401332.568 8
  22669456.479    22669461.665    -4794003.713 9  -5669297.485 9
 90  3 10  4  7 44.0800000  0  4G 6G 9G11G13
  20484133.686    20484135.179      514819.015 9  -1065253.154 8
  21272099.917    21272102.855    -3120748.086 8  -4468219.316 7
  20636897.267    20636901.959     -344367.442 8  -2405662.144 8
  22660469.472    22660473.750    -4841229.331 9  -5706096.588 6
 90  3 10  4  7 59.0800000  0  4G 6G 9G11G13
  20484318.133    20484318.780      515784.342 8  -1064500.948 8
  21265834.874    21265838.928    -3153669.279 9  -4493872.173 8
  20635864.330    20635869.263     -349791.682 8  -2409888.806 8
  22651500.263    22651502.649    -4888369.776 9  -5742829.339 7
 90  3 10  4  8 14.0800000  0  4G 6G 9G11G13
  20484525.988    20484526.193      516876.692 8  -1063649.765 8
  21259586.094    21259587.938    -3186508.719 9  -4519461.318 9
  20634858.524    20634861.745     -355083.947 8  -2414012.620 7
  22642546.458    22642549.209    -4935424.687 9  -5779495.441 7
 90  3 10  4  8 29.0800000  0  4G 6G 9G11G13
  20484757.827    20484757.945      518096.204 9  -1062699.505 9
  21253352.638    21253355.347    -3219266.009 9  -4544986.486 8
  20633877.532    20633880.404     -360244.380 8  -2418033.715 7
  22633607.816    22633611.802    -4982393.824 9  -5816094.711 8
 90  3 10  4  8 44.0800000  0  4G 6G 9G11G13
  20485013.875    20485015.155      519443.039 9  -1061650.012 8
  21247135.538    21247137.804    -3251940.792 9  -4570447.327 8
  20632919.955    20632924.315     -365273.154 8  -2421952.233 8
  22624687.263    22624689.410    -5029276.997 9  -5852626.989 8
 90  3 10  4  8 59.0800000  0  4G 6G 9G11G13
  20485293.449    20485295.929      520917.341 9  -1060501.207 9
  21240933.633    21240934.496    -3284532.700 9  -4595843.596 7
  20631989.117    20631992.503     -370170.410 8  -2425768.259 8
  22615781.526    22615784.332    -5076073.996 9  -5889092.135 7
 90  3 10  4  9 14.0800000  0  4G 6G 9G11G13
  20485597.549    20485600.101      522519.385 9  -1059252.852 8
  21234748.200    21234749.035    -3317041.357 9  -4621175.005 7
  20631081.643    20631084.859     -374936.172 8  -2429481.835 7
  22606892.528    22606895.484    -5122784.573 9  -5925489.920 8
 90  3 10  4  9 29.0800000  0  4G 6G 9G11G13
  20485926.861    20485930.214      524249.246 8  -1057904.910 9
  21228577.790    21228578.468    -3349466.309 9  -4646441.191 7
  20630199.643    20630202.547     -379570.581 7  -2433093.054 7
  22598020.837    22598023.114    -5169408.571 9  -5961820.238 8
 90  3 10  4  9 44.0800000  0  4G 6G 9G11G13
  20486281.387    20486284.553      526107.186 9  -1056457.159 9
  21222422.519    21222424.220    -3381807.446 9  -4671642.055 7
  20629341.255    20629344.798     -384073.723 8  -2436601.980 7
  22589163.894    22589167.985    -5215945.616 9  -5998082.798 8
 90  3 10  4  9 59.0800000  0  4G 6G 9G11G13
  20486659.694    20486662.030      528093.380 8  -1054909.471 8
  21216284.705    21216286.215    -3414064.163 9  -4696777.145 8
  20628510.211    20628513.135     -388445.672 8  -2440008.658 7
  22580324.463    22580329.813    -5262395.588 8  -6034277.508 7
 90  3 10  4 10 14.0800000  0  4G 6G 9G11G13
  20487061.954    20487063.919      530207.939 9  -1053261.756 7
  21210162.139    21210164.304    -3446236.375 9  -4721846.379 9
  20627703.326    20627705.995     -392686.609 8  -2443313.287 7
  22571501.484    22571506.673    -5308758.219 9  -6070404.158 8
 90  3 10  4 10 29.0800000  0  4G 6G 9G11G13
  20487487.481    20487491.035      532451.027 9  -1051513.900 8
  21204056.380    21204059.304    -3478323.718 9  -4746849.486 9
  20626921.895    20626924.397     -396796.581 7  -2446515.814 8
  22562697.346    22562701.763    -5355033.281 9  -6106462.583 7
 90  3 10  4 10 44.0800000  0  4G 6G 9G11G13
  20487938.592    20487941.773      534822.801 9  -1049665.750 9
  21197967.216    21197968.739    -3510325.858 9  -4771786.193 7
  20626164.389    20626166.439     -400775.685 8  -2449616.407 8
  22553907.925    22553911.394    -5401220.500 9  -6142452.559 8
 90  3 10  4 10 59.0800000  0  4G 6G 9G11G13
  20488416.322    20488417.685      537323.551 9  -1047717.116 8
  21191893.531    21191895.519    -3542242.361 9  -4796656.181 7
  20625432.152    20625435.050     -404624.068 7  -2452615.153 8
  22545135.119    22545138.847    -5447319.667 9  -6178373.921 8
 90  3 10  4 11 14.0800000  0  4G 6G 9G11G13
  20488916.114    20488916.932      539953.339 9  -1045667.930 8
  21185835.912    21185839.211    -3574072.856 8  -4821459.143 8
  20624724.853    20624727.114     -408341.749 8  -2455512.028 8
  22536378.979    22536384.172    -5493330.679 9  -6214226.592 8
 90  3 10  4 11 29.0800000  0  4G 6G 9G11G13
  20489440.258    20489443.067      542712.409 8  -1043518.012 8
  21179796.325    21179797.204    -3605817.136 9  -4846194.913 8
  20624042.024    20624044.932     -411928.917 8  -2458307.228 7
  22527640.259    22527643.621    -5539253.326 9  -6250010.409 8
 90  3 10  4 11 44.0800000  0  4G 6G 9G11G13
  20489989.532    20489993.227      545600.777 9  -1041267.339 8
  21173771.634    21173773.135    -3637474.604 9  -4870863.049 8
  20623384.043    20623387.751     -415385.634 8  -2461000.738 7
  22518918.176    22518921.421    -5585087.225 9  -6285725.071 7
 90  3 10  4 11 59.0800000  0  4G 6G 9G11G13
  20490563.903    20490567.227      548618.796 8  -1038915.647 8
  21167763.957    21167765.914    -3669045.228 9  -4895463.522 8
  20622751.240    20622752.111     -418712.006 8  -2463592.714 7
  22510213.051    22510217.740    -5630832.208 9  -6321370.462 8
 90  3 10  4 12 14.0800000  0  4G 6G 9G11G13
  20491162.314    20491165.668      551766.577 8  -1036462.839 8
  21161774.916    21161774.655    -3700528.441 9  -4919995.867 8
  20622144.759    20622142.902     -421908.144 8  -2466083.197 6
  22501524.801    22501529.056    -5676488.139 9  -6356946.473 8
 90  3 10  4 12 29.0800000  0  4G 6G 9G11G13
  20491787.140    20491789.606      555044.175 8  -1033908.860 8
  21155799.317    21155799.517    -3731924.022 9  -4944459.929 9
  20621560.705    20621560.366     -424974.137 8  -2468472.257 7
  22492853.806    22492858.006    -5722054.570 9  -6392452.721 8
 90  3 10  4 12 44.0800000  0  4G 6G 9G11G13
  20492436.320    20492437.999      558451.913 8  -1031253.471 8
  21149842.294    21149842.715    -3763231.406 9  -4968855.264 8
  20621002.993    20621002.954     -427910.242 8  -2470760.127 7
  22484199.427    22484204.897    -5767531.511 9  -6427889.247 8
 90  3 10  4 12 59.0800000  0  4G 6G 9G11G13
  20493110.857    20493111.791      561989.799 8  -1028496.678 8
  21143901.261    21143901.796    -3794450.470 9  -4993181.777 9
  20620468.718    20620469.387     -430716.508 8  -2472946.804 7
  22475562.587    22475567.490    -5812918.722 9  -6463255.844 7
 90  3 10  4 13 14.0800000  0  4G 6G 9G11G13
  20493808.373    20493809.836      565658.006 9  -1025638.336 7
  21137977.400    21137978.249    -3825580.871 9  -5017439.214 8
  20619959.183    20619961.321     -433392.977 8  -2475032.365 8
  22466943.798    22466948.102    -5858215.923 9  -6498552.308 7
 90  3 10  4 13 29.0800000  0  4G 6G 9G11G13
  20494532.362    20494532.151      569456.864 9  -1022678.169 8
  21132069.978    21132071.616    -3856622.246 9  -5041627.271 9
  20619471.669    20619477.516     -435939.801 8  -2477016.900 7
  22458341.682    22458344.395    -5903422.755 9  -6533778.355 7
 90  3 10  4 13 44.0800000  0  4G 6G 9G11G13
  20495278.501    20495280.379      573386.378 9  -1019616.214 7
  21126179.156    21126180.637    -3887574.309 9  -5065745.737 8
  20619011.522    20619016.737     -438357.207 8  -2478900.596 8
  22449755.508    22449760.142    -5948539.229 9  -6568934.015 7
 90  3 10  4 13 59.0800000  0  4G 6G 9G11G13
  20496050.854    20496051.143      577446.625 8  -1016452.363 7
  21120305.170    21120307.858    -3918436.577 9  -5089794.236 8
  20618576.160    20618581.156     -440645.360 8  -2480683.548 7
  22441187.791    22441191.305    -5993565.248 9  -6604019.162 8
 90  3 10  4 14 14.0800000  0  4G 6G 9G11G13
  20496847.706    20496850.300      581637.946 8  -1013186.398 8
  21114449.426    21114450.347    -3949208.672 8  -5113772.481 8
  20618167.258    20618167.985     -442804.289 7  -2482365.814 8
  22432637.036    22432640.208    -6038500.677 8  -6639033.710 8
 90  3 10  4 14 29.0800000  0  4G 6G 9G11G13
  20497671.055    20497671.891      585960.499 9  -1009818.175 7
  21108611.998    21108612.828    -3979890.326 9  -5137680.255 8
  20617781.052    20617780.736     -444834.021 8  -2483947.383 7
  22424102.690    22424106.692    -6083345.074 9  -6673977.335 8
 90  3 10  4 14 44.0800000  0  4G 6G 9G11G13
  20498518.964    20498519.139      590414.270 8  -1006347.698 8
  21102789.353    21102790.946    -4010481.251 9  -5161517.342 7
  20617419.210    20617419.705     -446734.741 8  -2485428.452 7
  22415587.123    22415588.703    -6128098.070 9  -6708849.726 7
 90  3 10  4 14 59.0800000  0  4G 6G 9G11G13
  20499390.851    20499392.659      594999.556 8  -1002774.755 7
  21096985.430    21096987.088    -4040981.101 9  -5185283.451 8
  20617080.979    20617082.955     -448506.504 8  -2486809.032 7
  22407088.118    22407091.046    -6172759.477 9  -6743650.794 7
 90  3 10  4 15 14.0800000  0  4G 6G 9G11G13
  20500288.813    20500290.575      599716.478 8   -999099.216 8
  21091199.387    21091199.642    -4071389.201 9  -5208978.056 8
  20616768.302    20616771.348     -450149.505 8  -2488089.271 7
  22398606.036    22398609.093    -6217329.167 9  -6778380.380 7
 90  3 10  4 15 29.0800000  0  4G 6G 9G11G13
  20501211.010    20501212.674      604565.114 8   -995321.065 7
  21085430.650    21085431.887    -4101705.707 9  -5232601.286 8
  20616481.008    20616483.497     -451663.959 8  -2489269.344 7
  22390141.947    22390144.965    -6261806.691 8  -6813038.129 7
 90  3 10  4 15 44.0800000  0  4G 6G 9G11G13
  20502159.653    20502161.044      609545.599 8   -991440.175 8
  21079679.480    21079680.186    -4131930.086 9  -5256152.728 7
  20616216.894    20616219.134     -453050.092 7  -2490349.444 7
  22381695.140    22381698.414    -6306192.121 9  -6847624.120 7
 90  3 10  4 15 59.0800000  0  4G 6G 9G11G13
  20503133.595    20503133.626      614658.190 9   -987456.344 8
  21073945.229    21073946.766    -4162061.853 9  -5279632.013 8
  20615977.253    20615979.730     -454307.976 7  -2491329.598 7
  22373266.319    22373270.862    -6350485.199 9  -6882138.157 8
 90  3 10  4 16 14.0800000  0  4G 6G 9G11G13
  20504132.060    20504132.323      619902.950 9   -983369.507 8
  21068229.035    21068231.395    -4192100.843 9  -5303039.008 7
  20615762.028    20615765.096     -455437.648 8  -2492209.846 7
  22364856.363    22364860.358    -6394685.785 9  -6916580.113 7
 90  3 10  4 16 29.0800000  0  4G 6G 9G11G13
  20505153.453    20505154.815      625279.980 8   -979179.613 8
  21062530.580    21062530.849    -4222046.828 9  -5326373.523 8
  20615571.585    20615574.606     -456439.279 7  -2492990.323 7
  22356462.756    22356466.722    -6438793.589 9  -6950949.779 8
 90  3 10  4 16 44.0800000  0  4G 6G 9G11G13
  20506200.972    20506203.897      630789.499 9   -974886.491 7
  21056850.953    21056850.981    -4251899.009 9  -5349634.963 7
  20615404.521    20615408.868     -457313.014 7  -2493671.142 7
  22348087.612    22348090.620    -6482808.348 9  -6985246.950 7
 90  3 10  4 16 59.0800000  0  4G 6G 9G11G13
  20507274.620    20507277.099      636431.594 8   -970490.056 8
  21051187.505    21051189.292    -4281657.486 9  -5372823.362 7
  20615264.155    20615266.716     -458058.948 7  -2494252.375 6
  22339730.007    22339732.099    -6526729.927 9  -7019471.510 7
 90  3 10  4 17 14.0800000  0  4G 6G 9G11G13
  20508374.482    20508376.118      642206.431 8   -965990.198 7
  21045543.416    21045544.430    -4311321.704 9  -5395938.324 8
  20615145.951    20615149.536     -458677.252 8  -2494734.163 8
  22331389.207    22331391.064    -6570558.106 9  -7053623.298 7
 90  3 10  4 17 29.0800000  0  4G 6G 9G11G13
  20509499.186    20509501.165      648114.152 8   -961386.803 8
  21039916.592    21039916.825    -4340891.404 9  -5418979.637 8
  20615051.131    20615056.451     -459168.080 7  -2495116.607 8
  22323066.316    22323068.243    -6614292.589 9  -7087702.068 7
 90  3 10  4 17 44.0800000  0  4G 6G 9G11G13
  20510647.669    20510650.722      654154.974 9   -956679.685 8
  21034307.424    21034307.358    -4370366.147 9  -5441946.939 7
  20614983.583    20614986.569     -459531.535 8  -2495399.814 7
  22314760.435    22314765.820    -6657933.268 9  -7121707.764 8
 90  3 10  4 17 59.0800000  0  4G 6G 9G11G13
  20511822.770    20511825.049      660328.948 9   -951868.794 8
  21028716.558    21028716.814    -4399745.606 9  -5464840.013 7
  20614937.174    20614942.340     -459767.956 8  -2495584.042 7
  22306473.654    22306478.286    -6701480.036 9  -7155640.286 7
 90  3 10  4 18 14.0800000  0  4G 6G 9G11G13
  20513022.768    20513025.749      666636.107 9   -946954.112 8
  21023143.902    21023143.248    -4429029.554 9  -5487658.671 7
  20614916.645    20614920.573     -459877.336 9  -2495669.246 8
  22298205.144    22298209.346    -6744932.884 9  -7189499.595 6
 90  3 10  4 18 29.0800000  0  4G 6G 9G11G13
  20514248.151    20514250.973      673076.759 8   -941935.396 8
  21017589.709    21017589.765    -4458217.483 9  -5510402.500 8
  20614919.758    20614923.779     -459859.645 7  -2495655.443 7
  22289955.190    22289958.310    -6788291.403 9  -7223285.407 7
 90  3 10  4 18 44.0800000  0  4G 6G 9G11G13
  20515500.234    20515502.556      679650.955 9   -936812.636 8
  21012054.042    21012052.717    -4487309.248 9  -5533071.391 7
  20614945.965    20614950.508     -459715.301 8  -2495542.973 7
  22281721.910    22281724.383    -6831555.358 9  -7256997.538 8
 90  3 10  4 18 59.0800000  0  4G 6G 9G11G13
  20516776.758    20516777.347      686358.876 9   -931585.658 8
  21006535.459    21006536.788    -4516304.479 9  -5555665.068 8
  20614997.097    20615000.407     -459444.278 7  -2495331.782 7
  22273507.267    22273510.678    -6874724.267 9  -7290635.608 7
 90  3 10  4 19 14.0800000  0  4G 6G 9G11G13
  20518080.097    20518080.645      693200.576 9   -926254.458 8
  21001036.215    21001038.439    -4545202.565 9  -5578183.036 7
  20615073.761    20615077.782     -459046.828 7  -2495022.046 8
  22265311.211    22265315.225    -6917798.183 8  -7324199.647 7
 90  3 10  4 19 29.0800000  0  4G 6G 9G11G13
  20519407.047    20519407.264      700176.220 9   -920818.903 9
  20995556.181    20995557.174    -4574003.531 9  -5600625.335 7
  20615174.914    20615177.618     -458523.088 8  -2494613.935 8
  22257132.396    22257135.496    -6960776.921 9  -7357689.546 8
 90  3 10  4 19 44.0800000  0  4G 6G 9G11G13
  20520760.267    20520760.803      707285.943 9   -915278.863 7
  20990093.905    20990094.033    -4602706.846 9  -5622991.557 7
  20615299.505    20615300.782     -457873.140 8  -2494107.438 7
  22248971.515    22248975.841    -7003660.093 9  -7391104.964 8
 90  3 10  4 19 59.0800000  0  4G 6G 9G11G13
  20522137.155    20522139.208      714529.868 9   -909634.260 7
  20984649.695    20984651.373    -4631312.346 9  -5645281.550 8
  20615447.319    20615448.591     -457097.176 8  -2493502.781 7
  22240828.180    22240833.911    -7046447.749 9  -7424445.958 8
 90  3 10  4 20 14.0800000  0  4G 6G 9G11G13
  20523540.745    20523542.709      721908.070 9   -903885.010 8
  20979225.237    20979226.415    -4659819.352 9  -5667494.788 7
  20615619.045    20615621.087     -456195.316 8  -2492800.018 7
  22232704.531    22232709.530    -7089139.596 9  -7457712.292 7
 90  3 10  4 20 29.0800000  0  4G 6G 9G11G13
  20524969.489    20524973.602      729420.729 8   -898030.977 8
  20973818.967    20973820.790    -4688227.796 9  -5689631.243 8
  20615812.541    20615815.843     -455167.643 7  -2491999.238 8
  22224598.950    22224603.925    -7131735.591 9  -7490903.929 9
 90  3 10  4 20 44.0800000  0  4G 6G 9G11G13
  20526425.824    20526428.032      737067.929 8   -892072.117 7
  20968432.802    20968432.693    -4716537.236 9  -5711690.531 8
  20616032.042    20616035.993     -454014.461 7  -2491100.650 7
  22216512.299    22216517.419    -7174235.537 9  -7524020.735 8
 90  3 10  4 20 59.0800000  0  4G 6G 9G11G13
  20527906.795    20527908.560      744849.809 9   -886008.295 8
  20963064.237    20963065.063    -4744747.190 9  -5733672.323 7
  20616276.250    20616277.705     -452735.861 8  -2490104.343 6
  22208443.648    22208448.649    -7216639.082 9  -7557062.419 8
 90  3 10  4 21 14.0800000  0  4G 6G 9G11G13
  20529414.098    20529415.076      752766.564 8   -879839.390 8
  20957715.297    20957716.282    -4772857.512 9  -5755576.478 7
  20616545.531    20616545.322     -451332.100 9  -2489010.486 7
  22200393.914    22200396.355    -7258945.941 9  -7590028.756 8
 90  3 10  4 21 29.0800000  0  4G 6G 9G11G13
  20530945.126    20530947.590      760818.175 8   -873565.413 8
  20952384.071    20952387.041    -4800867.831 9  -5777402.688 7
  20616835.125    20616835.701     -449803.329 8  -2487819.227 6
  22192361.471    22192363.022    -7301156.057 9  -7622919.731 6
 90  3 10  4 21 44.0800000  0  4G 6G 9G11G13
  20532503.167    20532504.461      769004.849 9   -867186.195 8
  20947072.965    20947074.737    -4828777.905 9  -5799150.809 8
  20617148.436    20617150.759     -448149.563 7  -2486530.557 8
  22184346.571    22184349.734    -7343269.217 9  -7655735.150 7
 90  3 10  4 21 59.0800000  0  4G 6G 9G11G13
  20534088.312    20534088.201      777326.668 9   -860701.656 7
  20941781.004    20941782.725    -4856587.133 9  -5820820.319 8
  20617486.204    20617489.127     -446371.018 8  -2485144.662 7
  22176350.529    22176352.235    -7385285.002 9  -7688474.695 7
 90  3 10  4 22 14.0800000  0  4G 6G 9G11G13
  20535697.525    20535695.813      785783.680 9   -854111.758 8
  20936506.844    20936508.552    -4884295.540 8  -5842411.279 8
  20617848.915    20617852.621     -444467.845 8  -2483661.654 7
  22168373.097    22168376.382    -7427203.522 9  -7721138.464 6
 90  3 10  4 22 29.0800000  0  4G 6G 9G11G13
  20537333.381    20537332.354      794376.080 9   -847416.384 7
  20931253.933    20931256.235    -4911902.510 8  -5863923.177 7
  20618234.993    20618238.801     -442440.198 9  -2482081.671 8
  22160414.725    22160417.011    -7469024.614 9  -7753726.282 7
 90  3 10  4 22 44.0800000  0  4G 6G 9G11G13
  20538991.759    20538992.852      803103.937 8   -840615.448 7
  20926021.183    20926023.227    -4939407.898 9  -5885355.928 8
  20618644.173    20618648.848     -440288.340 7  -2480404.891 8
  22152475.430    22152479.241    -7510748.058 9  -7786238.037 6
 90  3 10  4 22 59.0800000  0  4G 6G 9G11G13
  20540679.100    20540681.251      811967.379 8   -833708.859 7
  20920807.080    20920807.341    -4966810.854 9  -5906708.867 8
  20619077.877    20619080.878     -438012.319 8  -2478631.366 7
  22144555.358    22144558.321    -7552373.704 9  -7818673.569 7
 90  3 10  4 23 14.0800000  0  4G 6G 9G11G13
  20542391.683    20542392.732      820966.524 8   -826696.537 8
  20915611.275    20915611.387    -4994111.769 9  -5927982.290 7
  20619534.490    20619537.528     -435612.388 8  -2476761.268 7
  22136652.889    22136655.680    -7593901.492 9  -7851032.842 7
 90  3 10  4 23 29.0800000  0  4G 6G 9G11G13
  20544129.992    20544132.428      830101.489 9   -819578.398 8
  20910436.614    20910435.660    -5021309.839 9  -5949175.585 7
  20620015.501    20620016.114     -433088.676 8  -2474794.728 7
  22128769.676    22128770.391    -7635331.064 9  -7883315.592 7
 90  3 10  4 23 44.0800000  0  4G 6G 9G11G13
  20545894.488    20545895.022      839372.325 8   -812354.362 8
  20905280.332    20905279.307    -5048404.907 9  -5970288.610 7
  20620520.625    20620520.078     -430441.380 9  -2472731.884 7
  22120903.892    22120905.951    -7676662.418 9  -7915521.823 6
 90  3 10  4 23 59.0800000  0  4G 6G 9G11G13
  20547683.910    20547683.785      848779.186 9   -805024.371 7
  20900143.362    20900143.261    -5075396.718 9  -5991321.186 8
  20621045.947    20621046.267     -427670.794 8  -2470572.976 7
  22113058.116    22113057.908    -7717895.333 9  -7947651.331 7
 90  3 10  4 24 14.0800000  0  4G 6G 9G11G13
  20549499.461    20549500.411      858322.084 9   -797588.343 7
  20895028.035    20895026.300    -5102284.851 9  -6012272.983 7
  20621596.955    20621596.787     -424776.941 9  -2468317.998 7
  22105229.758    22105231.946    -7759029.203 9  -7979703.657 7
 90  3 10  4 24 29.0800000  0  4G 6G 9G11G13
  20551340.911    20551343.649      868001.254 8   -790046.131 8
  20889929.647    20889930.639    -5129068.693 9  -6033143.490 7
  20622171.981    20622172.209     -421760.023 8  -2465967.151 7
  22097420.320    22097424.100    -7800064.057 9  -8011678.853 7
 90  3 10  4 24 44.0800000  0  4G 6G 9G11G13
  20553210.036    20553210.756      877816.676 9   -782397.720 6
  20884854.198    20884854.362    -5155748.586 9  -6053933.003 7
  20622768.385    20622769.319     -418620.255 8  -2463520.577 7
  22089630.882    22089633.540    -7840999.745 9  -8043576.771 7
 90  3 10  4 24 59.0800000  0  4G 6G 9G11G13
  20555103.830    20555105.322      887768.507 8   -774643.025 7
  20879796.881    20879797.608    -5182323.204 9  -6074640.476 8
  20623390.052    20623390.311     -415357.778 9  -2460978.382 6
  22081860.126    22081861.585    -7881836.146 9  -8075397.308 7
 90  3 10  4 25 14.0800000  0  4G 6G 9G11G13
  20557022.750    20557022.899      897856.821 8   -766781.994 7
  20874758.506    20874760.050    -5208792.842 9  -6095266.158 6
  20624034.047    20624037.264     -411972.765 8  -2458340.713 7
  22074107.753    22074111.030    -7922573.217 9  -8107140.440 7
 90  3 10  4 25 29.0800000  0  4G 6G 9G11G13
  20558967.226    20558968.391      908081.783 7   -758814.495 7
  20869740.558    20869742.339    -5235157.531 9  -6115810.060 7
  20624700.152    20624703.870     -408465.289 9  -2455607.620 7
  22066374.665    22066377.598    -7963210.594 9  -8138805.906 8
 90  3 10  4 25 44.0800000  0  4G 6G 9G11G13
  20560939.950    20560942.730      918443.439 9   -750740.482 8
  20864744.874    20864746.280    -5261416.132 8  -6136271.293 8
  20625391.343    20625393.461     -404835.590 9  -2452779.258 6
  22058660.240    22058662.715    -8003748.129 9  -8170393.562 7
 90  3 10  4 25 59.0800000  0  4G 6G 9G11G13
  20562938.630    20562939.349      928941.857 8   -742559.885 7
  20859768.568    20859770.017    -5287568.468 8  -6156649.731 8
  20626105.304    20626106.974     -401083.890 8  -2449855.839 7
  22050965.830    22050966.780    -8044185.652 9  -8201903.308 7
 90  3 10  4 26 14.0800000  0  4G 6G 9G11G13
  20564962.122    20564964.917      939577.201 9   -734272.619 8
  20854811.216    20854813.228    -5313614.730 9  -6176945.506 8
  20626841.832    20626843.421     -397210.396 8  -2446837.534 7
  22043289.987    22043291.982    -8084522.906 9  -8233334.906 7
 90  3 10  4 26 29.0800000  0  4G 6G 9G11G13
  20567010.598    20567014.209      950349.427 8   -725878.694 7
  20849875.060    20849877.145    -5339554.440 9  -6197158.258 9
  20627601.402    20627604.851     -393215.278 8  -2443724.440 7
  22035632.050    22035635.663    -8124759.964 9  -8264688.430 8
 90  3 10  4 26 44.0800000  0  4G 6G 9G11G13
  20569087.720    20569088.341      961258.704 9   -717377.955 7
  20844960.411    20844961.240    -5365386.713 9  -6217287.290 8
  20628385.429    20628388.697     -389098.673 8  -2440516.685 8
  22027995.501    22027999.206    -8164896.531 9  -8295963.670 7
 90  3 10  4 26 59.0800000  0  4G 6G 9G11G13
  20571189.514    20571191.149      972305.057 8   -708770.410 8
  20840065.265    20840065.907    -5391111.664 9  -6237332.676 8
  20629192.288    20629194.818     -384860.825 7  -2437214.462 7
  22020376.700    22020380.506    -8204932.510 9  -8327160.502 8
 90  3 10  4 27 14.0800000  0  4G 6G 9G11G13
  20573318.979    20573318.225      983488.704 9   -700055.885 8
  20835190.676    20835189.719    -5416729.153 9  -6257294.337 7
  20630020.537    20630024.891     -380501.867 9  -2433817.861 7
  22012777.775    22012779.092    -8244867.654 9  -8358278.779 8
 90  3 10  4 27 29.0800000  0  4G 6G 9G11G13
  20575473.056    20575474.264      994809.615 9   -691234.400 8
  20830336.680    20830336.274    -5442238.638 9  -6277171.833 8
  20630873.110    20630876.696     -376022.111 8  -2430327.137 8
  22005196.751    22005200.844    -8284701.784 9  -8389318.360 8
 90  3 10  4 27 44.0800000  0  4G 6G 9G11G13
  20577653.321    20577655.714     1006267.926 9   -682305.854 7
  20825501.959    20825502.008    -5467639.526 8  -6296964.710 8
  20631748.175    20631752.781     -371421.714 9  -2426742.401 7
  21997634.881    21997640.597    -8324434.771 9  -8420279.101 7
 90  3 10  4 27 59.0800000  0  4G 6G 9G11G13
  20579860.400    20579862.320     1017863.655 9   -673270.231 6
  20820689.670    20820688.319    -5492931.765 9  -6316672.935 8
  20632647.051    20632650.753     -366700.801 8  -2423063.772 8
  21990093.085    21990098.787    -8364066.310 9  -8451160.795 8
 90  3 10  4 28 14.0800000  0  4G 6G 9G11G13
  20582092.747    20582094.027     1029596.962 8   -664127.389 7
  20815897.124    20815897.665    -5518114.952 9  -6336296.190 7
  20633570.528    20633571.401     -361859.512 9  -2419291.309 7
  21982572.196    21982576.203    -8403596.308 9  -8481963.360 8
 90  3 10  4 28 29.0800000  0  4G 6G 9G11G13
  20584352.227    20584351.901     1041467.864 9   -654877.360 7
  20811126.430    20811126.342    -5543188.678 9  -6355834.155 8
  20634515.168    20634515.085     -356897.990 9  -2415425.179 7
  21975069.215    21975072.562    -8443024.618 9  -8512686.684 9
 90  3 10  4 28 44.0800000  0  4G 6G 9G11G13
  20586637.664    20586636.209     1053476.463 9   -645520.001 7
  20806374.724    20806374.618    -5568152.716 9  -6375286.633 8
  20635481.871    20635481.159     -351816.528 9  -2411465.586 7
  21967586.058    21967589.198    -8482351.398 9  -8543330.895 8
 90  3 10  4 28 59.0800000  0  4G 6G 9G11G13
  20588947.998    20588949.892     1065622.871 9   -636055.281 7
  20801645.753    20801644.703    -5593006.781 9  -6394653.436 7
  20636471.718    20636472.394     -346615.260 9  -2407412.658 7
  21960121.747    21960125.158    -8521576.161 9  -8573895.608 8
 90  3 10  4 29 14.0800000  0  4G 6G 9G11G13
  20591284.661    20591286.741     1077907.110 9   -626483.157 5
  20796936.235    20796937.329    -5617750.563 9  -6413934.294 8
  20637483.485    20637486.892     -341294.470 9  -2403266.571 8
  21952677.119    21952681.382    -8560698.552 9  -8604380.562 7
 90  3 10  4 29 29.0800000  0  4G 6G 9G11G13
  20593649.857    20593652.410     1090329.217 9   -616803.603 7
  20792249.468    20792249.464    -5642383.741 9  -6433128.971 8
  20638518.252    20638520.634     -335854.283 9  -2399027.467 7
  21945250.842    21945256.494    -8599718.653 9  -8634785.812 8
 90  3 10  4 29 44.0800000  0  4G 6G 9G11G13
  20596039.864    20596041.100     1102889.314 8   -607016.510 7
  20787583.180    20787584.447    -5666905.685 9  -6452236.973 8
  20639576.202    20639580.621     -330294.917 9  -2394695.486 7
  21937845.900    21937848.366    -8638636.344 9  -8665111.240 8
 90  3 10  4 29 59.0800000  0  4G 6G 9G11G13
  20598456.916    20598456.993     1115587.493 9   -597121.820 7
  20782937.914    20782940.040    -5691316.469 9  -6471258.353 8
  20640656.306    20640660.192     -324616.540 9  -2390270.774 8
  21930458.593    21930461.568    -8677451.364 9  -8695356.694 8
 90  3 10  4 30 14.0800000  0  4G 6G 9G11G13
  20600898.637    20600899.829     1128423.782 8   -587119.529 6
  20778313.424    20778315.522    -5715615.454 9  -6490192.611 7
  20641758.213    20641764.064     -318819.318 8  -2385753.438 8
  21923091.477    21923095.413    -8716163.685 9  -8725522.110 8
 90  3 10  4 30 29.0800000  0  4G 6G 9G11G13
  20603366.373    20603367.623     1141398.251 9   -577009.554 7
  20773710.653    20773712.258    -5739802.410 9  -6509039.580 8
  20642884.296    20642888.853     -312903.454 7  -2381143.674 8
  21915744.466    21915747.929    -8754773.112 9  -8755607.360 8
 90  3 10  4 30 44.0800000  0  4G 6G 9G11G13
  20605862.555    20605863.490     1154510.984 9   -566791.825 7
  20769128.963    20769131.203    -5763877.027 9  -6527799.028 8
  20644032.851    20644036.088     -306869.231 8  -2376441.654 6
  21908417.539    21908419.891    -8793279.504 9  -8785612.324 7
 90  3 10  4 30 59.0800000  0  4G 6G 9G11G13
  20608384.465    20608385.313     1167762.052 9   -556466.310 7
  20764568.544    20764570.847    -5787839.239 9  -6546470.874 8
  20645204.729    20645206.682     -300716.774 9  -2371647.514 8
  21901109.339    21901113.018    -8831682.636 9  -8815536.823 7
 90  3 10  4 31 14.0800000  0  4G 6G 9G11G13
  20610933.076    20610934.655     1181151.455 9   -546033.031 8
  20760030.790    20760032.626    -5811688.301 9  -6565054.556 9
  20646398.582    20646400.016     -294446.306 9  -2366761.431 8
  21893820.867    21893824.124    -8869982.361 9  -8845380.730 6
 90  3 10  4 31 29.0800000  0  4G 6G 9G11G13
  20613506.328    20613508.234     1194679.307 9   -535491.858 7
  20755513.439    20755514.870    -5835424.161 9  -6583550.018 8
  20647613.357    20647615.672     -288058.131 9  -2361783.625 8
  21886552.607    21886554.897    -8908178.680 9  -8875144.066 8
 90  3 10  4 31 44.0800000  0  4G 6G 9G11G13
  20616106.422    20616109.203     1208345.660 9   -524842.750 8
  20751018.063    20751019.582    -5859046.444 9  -6601956.990 8
  20648852.519    20648854.224     -281552.384 9  -2356714.202 7
  21879303.370    21879306.583    -8946271.261 9  -8904826.570 7
 90  3 10  4 31 59.0800000  0  4G 6G 9G11G13
  20618733.591    20618735.242     1222150.564 9   -514085.696 8
  20746545.407    20746547.722    -5882554.859 9  -6620275.242 8
  20650113.104    20650114.541     -274929.324 9  -2351553.381 8
  21872072.944    21872078.460    -8984260.011 9  -8934428.180 7
 90  3 10  4 32 14.0800000  0  4G 6G 9G11G13
  20621387.746    20621389.970     1236094.023 9   -503220.668 7
  20742094.036    20742095.725    -5905949.149 9  -6638504.548 7
  20651394.796    20651397.164     -268189.078 9  -2346301.249 7
  21864865.124    21864869.373    -9022144.703 9  -8963948.714 8
 90  3 10  4 32 29.0800000  0  4G 6G 9G11G13
  20624067.343    20624068.837     1250176.193 8   -492247.558 7
  20737664.333    20737665.751    -5929228.869 9  -6656644.582 8
  20652700.237    20652701.874     -261331.889 9  -2340957.986 8
  21857676.037    21857678.105    -9059925.205 9  -8993388.047 7
 90  3 10  4 32 44.0800000  0  4G 6G 9G11G13
  20626772.842    20626776.725     1264397.044 8   -481166.391 8
  20733256.026    20733258.962    -5952393.917 9  -6674695.258 8
  20654027.469    20654028.975     -254357.973 9  -2335523.749 8
  21850507.526    21850508.132    -9097601.425 9  -9022746.119 7
 90  3 10  4 32 59.0800000  0  4G 6G 9G11G13
  20629505.268    20629507.990     1278756.640 8   -469977.083 7
  20728869.804    20728871.559    -5975443.120 9  -6692655.666 8
  20655376.680    20655377.514     -247267.400 9  -2329998.611 7
  21843357.544    21843359.146    -9135173.301 9  -9052022.880 6
 90  3 10  4 33 14.0800000  0  4G 6G 9G11G13
  20632263.850    20632265.559     1293255.089 8   -458679.597 8
  20724506.403    20724506.677    -5998377.315 9  -6710526.455 7
  20656746.757    20656747.512     -240060.462 9  -2324382.802 8
  21836228.068    21836229.533    -9172640.712 9  -9081218.239 6
 90  3 10  4 33 29.0800000  0  4G 6G 9G11G13
  20635049.651    20635050.299     1307892.384 8   -447273.906 8
  20720164.136    20720165.323    -6021195.325 9  -6728306.704 8
  20658140.113    20658142.341     -232737.277 9  -2318676.417 8
  21829117.108    21829118.718    -9210003.556 9  -9110332.134 7
 90  3 10  4 33 44.0800000  0  4G 6G 9G11G13
  20637862.838    20637863.601     1322668.582 9   -435759.979 8
  20715843.856    20715844.994    -6043897.402 8  -6745996.633 8
  20659555.667    20659557.570     -225298.178 8  -2312879.723 6
  21822027.077    21822030.417    -9247261.594 9  -9139364.340 8
 90  3 10  4 33 59.0800000  0  4G 6G 9G11G13
  20640700.524    20640701.760     1337583.722 9   -424137.805 7
  20711545.508    20711546.874    -6066482.920 9  -6763595.720 8
  20660994.156    20660996.207     -217743.459 9  -2306992.906 6
  21814956.754    21814960.610    -9284414.720 9  -9168314.814 8
 90  3 10  4 34 14.0800000  0  4G 6G 9G11G13
  20643564.223    20643565.601     1352637.920 9   -412407.259 8
  20707268.929    20707269.982    -6088951.794 9  -6781103.934 8
  20662453.434    20662455.516     -210073.177 9  -2301016.061 8
  21807906.509    21807910.850    -9321462.933 9  -9197183.523 7
 90  3 10  4 34 29.0800000  0  4G 6G 9G11G13
  20646456.169    20646458.363     1367831.131 8   -400568.407 8
  20703015.919    20703016.469    -6111303.344 8  -6798520.720 7
  20663935.356    20663937.665     -202287.578 9  -2294949.353 7
  21800876.582    21800881.590    -9358405.767 9  -9225970.129 8
 90  3 10  4 34 44.0800000  0  4G 6G 9G11G13
  20649373.871    20649375.994     1383163.365 9   -388621.202 8
  20698785.606    20698786.064    -6133537.775 8  -6815846.251 7
  20665438.472    20665441.733     -194386.907 9  -2288792.987 8
  21793866.209    21793872.054    -9395243.263 9  -9254674.642 8
 90  3 10  4 34 59.0800000  0  4G 6G 9G11G13
  20652317.615    20652320.840     1398634.767 9   -376565.559 8
  20694576.850    20694578.305    -6155654.269 8  -6833079.883 8
  20666963.997    20666968.376     -186371.395 9  -2282547.133 8
  21786876.791    21786881.583    -9431975.341 9  -9283297.004 8
 90  3 10  4 35 14.0800000  0  4G 6G 9G11G13
  20655288.433    20655290.771     1414245.365 9   -364401.474 7
  20690389.461    20690392.446    -6177652.540 9  -6850221.386 7
  20668510.563    20668514.455     -178241.153 9  -2276211.872 7
  21779908.158    21779910.132    -9468601.758 9  -9311837.026 8
 90  3 10  4 35 29.0800000  0  4G 6G 9G11G13
  20658287.469    20658287.316     1429995.144 9   -352128.930 8
  20686226.889    20686228.110    -6199532.644 9  -6867270.807 8
  20670080.708    20670081.657     -169996.414 9  -2269787.394 7
  21772957.540    21772960.852    -9505122.316 9  -9340294.568 8
 90  3 10  4 35 44.0800000  0  4G 6G 9G11G13
  20661309.715    20661312.339     1445884.232 9   -339747.846 8
  20682085.999    20682087.159    -6221294.084 9  -6884227.788 7
  20671670.592    20671672.055     -161637.477 9  -2263273.912 7
  21766028.207    21766030.617    -9541536.889 9  -9368669.551 8
 90  3 10  4 35 59.0800000  0  4G 6G 9G11G13
  20664360.005    20664361.269     1461912.519 9   -327258.295 8
  20677967.672    20677967.581    -6242936.493 8  -6901091.996 9
  20673282.255    20673283.568     -153164.563 8  -2256671.632 8
  21759118.755    21759123.328    -9577845.320 9  -9396961.809 8
 90  3 10  4 36 14.0800000  0  4G 6G 9G11G13
  20667436.540    20667438.777     1478080.103 8   -314660.190 8
  20673872.588    20673872.243    -6264459.544 8  -6917863.186 7
  20674916.611    20674918.683     -144577.811 9  -2249980.633 7
  21752229.432    21752233.981    -9614047.621 9  -9425171.382 8
 90  3 10  4 36 29.0800000  0  4G 6G 9G11G13
  20670540.290    20670541.168     1494387.056 9   -301953.473 8
  20669798.297    20669798.921    -6285863.030 8  -6934541.231 7
  20676572.229    20676574.464     -135877.581 8  -2243201.223 8
  21745360.618    21745365.248    -9650143.605 9  -9453298.116 7
 90  3 10  4 36 44.0800000  0  4G 6G 9G11G13
  20673669.569    20673669.901     1510833.323 9   -289138.201 8
  20665749.466    20665749.862    -6307146.671 8  -6951125.870 7
  20678248.712    20678251.828     -127063.976 9  -2236333.489 7
  21738512.262    21738515.187    -9686133.057 9  -9481341.828 7
 90  3 10  4 36 59.0800000  0  4G 6G 9G11G13
  20676826.406    20676825.522     1527418.989 9   -276214.312 7
  20661721.231    20661722.936    -6328310.019 8  -6967616.785 7
  20679947.957    20679951.718     -118137.190 9  -2229377.560 7
  21731682.806    21731687.450    -9722016.069 9  -9509302.599 7
 90  3 10  4 37 14.0800000  0  4G 6G 9G11G13
  20680009.343    20680007.830     1544144.092 8   -263181.762 8
  20657716.890    20657719.398    -6349352.868 8  -6984013.804 8
  20681668.939    20681672.309     -109097.462 9  -2222333.611 7
  21724875.380    21724880.547    -9757792.530 9  -9537180.366 7
 90  3 10  4 37 29.0800000  0  4G 6G 9G11G13
  20683216.605    20683218.556     1561008.633 9   -250040.564 7
  20653734.743    20653736.247    -6370274.896 9  -7000316.670 7
  20683412.246    20683413.459      -99945.032 9  -2215201.850 9
  21718088.767    21718092.258    -9793462.333 9  -9564974.993 7
 90  3 10  4 37 44.0800000  0  4G 6G 9G11G13
  20686453.002    20686453.236     1578012.548 9   -236790.760 7
  20649776.578    20649777.175    -6391075.501 8  -7016524.925 8
  20685174.517    20685176.539      -90680.114 9  -2207982.412 9
  21711320.520    21711323.741    -9829025.124 9  -9592686.241 6
 90  3 10  4 37 59.0800000  0  4G 6G 9G11G13
  20689714.240    20689717.005     1595156.053 9   -223432.193 8
  20645842.373    20645843.420    -6411754.832 8  -7032638.687 7
  20686958.072    20686960.286      -81302.889 9  -2200675.479 7
  21704573.201    21704577.392    -9864480.749 9  -9620313.967 8
 90  3 10  4 38 14.0800000  0  4G 6G 9G11G13
  20693003.123    20693004.914     1612438.974 8   -209964.964 7
  20641929.589    20641931.143    -6432312.329 8  -7048657.519 7
  20688763.793    20688766.253      -71813.577 9  -2193281.208 8
  21697846.835    21697850.361    -9899829.168 9  -9647858.178 7
 90  3 10  4 38 29.0800000  0  4G 6G 9G11G13
  20696317.501    20696319.869     1629861.446 9   -196389.001 8
  20638041.081    20638043.212    -6452747.746 9  -7064581.209 6
  20690590.845    20690593.829      -62212.447 9  -2185799.797 6
  21691142.228    21691143.701    -9935070.389 9  -9675318.829 7
 90  3 10  4 38 44.0800000  0  4G 6G 9G11G13
  20699660.275    20699662.540     1647423.394 8   -182704.378 8
  20634175.490    20634177.687    -6473060.827 8  -7080409.592 8
  20692438.950    20692441.485      -52499.868 8  -2178231.545 8
  21684456.652    21684457.324    -9970204.288 9  -9702695.850 7
 90  3 10  4 38 59.0800000  0  4G 6G 9G11G13
  20703029.546    20703031.568     1665124.901 8   -168911.014 9
  20630332.639    20630336.596    -6493251.153 9  -7096142.318 7
  20694308.294    20694310.367      -42676.055 9  -2170576.619 7
  21677791.581    21677793.577   -10005230.740 9  -9729989.177 8
 90  3 10  4 39 14.0800000  0  4G 6G 9G11G13
  20706425.118    20706427.169     1682965.970 9   -155008.878 8
  20626514.946    20626517.255    -6513318.723 8  -7111779.376 9
  20696199.332    20696200.718      -32741.127 8  -2162835.114 8
  21671147.688    21671148.311   -10040149.602 9  -9757198.668 7
 90  3 10  4 39 29.0800000  0  4G 6G 9G11G13
  20709846.475    20709848.110     1700946.618 9   -140997.986 9
  20622719.859    20622722.296    -6533262.880 8  -7127320.272 8
  20698110.273    20698112.989      -22695.331 9  -2155007.217 7
  21664521.838    21664524.999   -10074960.646 8  -9784324.151 7
 90  3 10  4 39 44.0800000  0  4G 6G 9G11G13
  20713294.018    20713296.082     1719066.895 9   -126878.302 7
  20618948.314    20618951.305    -6553083.436 8  -7142764.837 7
  20700044.191    20700046.611      -12538.877 9  -2147093.097 7
  21657917.946    21657921.331   -10109663.906 9  -9811365.624 8
 90  3 10  4 39 59.0800000  0  4G 6G 9G11G13
  20716768.692    20716770.686     1737326.713 9   -112649.886 8
  20615201.357    20615201.731    -6572780.069 9  -7158112.848 8
  20701997.617    20701999.578       -2271.972 9  -2139092.907 9
  21651333.086    21651337.221   -10144259.088 9  -9838322.899 7
 90  3 10  4 40 14.0800000  0  4G 6G 9G11G13
  20720271.297    20720271.787     1755726.489 8    -98312.394 8
  20611475.669    20611476.827    -6592352.315 9  -7173363.934 7
  20703971.390    20703975.051        8105.301 9  -2131006.721 8
  21644769.208    21644773.652   -10178746.131 9  -9865195.894 7
 90  3 10  4 40 29.0800000  0  4G 6G 9G11G13
  20723798.483    20723800.349     1774265.858 9    -83866.137 8
  20607776.075    20607774.383    -6611800.072 8  -7188518.042 7
  20705967.689    20705970.455       18592.697 8  -2122834.733 8
  21638228.785    21638230.788   -10213124.931 9  -9891984.557 7
 90  3 10  4 40 44.0800000  0  4G 6G 9G11G13
  20727353.002    20727354.738     1792944.828 9    -69311.089 8
  20604098.510    20604096.560    -6631122.987 8  -7203574.842 8
  20707983.396    20707985.823       29189.790 9  -2114577.246 7
  21631707.615    21631709.810   -10247395.375 8  -9918688.769 7
 90  3 10  4 40 59.0800000  0  4G 6G 9G11G13
  20730934.280    20730934.857     1811763.444 8    -54647.246 7
  20600444.318    20600443.143    -6650320.798 8  -7218534.189 7
  20710021.670    20710022.212       39896.403 9  -2106234.412 7
  21625206.914    21625209.976   -10281557.296 9  -9945308.416 7
 90  3 10  4 41 14.0800000  0  4G 6G 9G11G13
  20734540.711    20734543.791     1830721.706 8    -39874.585 8
  20596814.062    20596814.535    -6669393.229 9  -7233395.835 6
  20712081.142    20712080.999       50712.206 9  -2097806.501 8
  21618726.174    21618729.678   -10315610.644 8  -9971843.491 7
 90  3 10  4 41 29.0800000  0  4G 6G 9G11G13
  20738174.790    20738178.815     1849819.617 9    -24993.088 8
  20593210.206    20593209.955    -6688339.859 9  -7248159.438 7
  20714160.130    20714159.703       61636.978 9  -2089293.682 8
  21612266.654    21612269.222   -10349555.397 9  -9998293.928 8
 90  3 10  4 41 44.0800000  0  4G 6G 9G11G13
  20741836.054    20741837.733     1869057.027 9    -10002.898 8
  20589627.807    20589628.549    -6707160.880 9  -7262825.164 7
  20716257.665    20716261.109       72670.449 9  -2080696.172 8
  21605828.470    21605830.358   -10383391.500 9 -10024659.697 7
 90  3 10  4 41 59.0800000  0  4G 6G 9G11G13
  20745524.163    20745526.557     1888434.131 8      5096.151 8
  20586069.824    20586070.643    -6725855.460 8  -7277392.359 7
  20718377.486    20718381.073       83812.501 9  -2072014.062 8
  21599411.098    21599412.399   -10417118.834 9 -10050940.713 7
 90  3 10  4 42 14.0800000  0  4G 6G 9G11G13
  20749238.200    20749239.177     1907950.886 8     20304.001 8
  20582537.078    20582538.492    -6744423.599 8  -7291861.043 8
  20720518.370    20720521.314       95062.940 9  -2063247.479 8
  21593013.959    21593015.251   -10450737.381 9 -10077136.977 7
 90  3 10  4 42 29.0800000  0  4G 6G 9G11G13
  20752977.822    20752980.301     1927607.114 8     35620.527 8
  20579027.195    20579029.215    -6762864.869 9  -7306230.852 7
  20722681.280    20722682.582      106421.501 9  -2054396.661 8
  21586637.748    21586638.863   -10484246.815 9 -10103248.210 8
 90  3 10  4 42 44.0800000  0  4G 6G 9G11G13
  20756744.117    20756746.582     1947402.944 8     51045.840 7
  20575542.471    20575544.389    -6781178.918 8  -7320501.537 8
  20724864.224    20724864.488      117887.914 8  -2045461.789 7
  21580281.792    21580282.535   -10517647.045 9 -10129274.344 7
 90  3 10  4 42 59.0800000  0  4G 6G 9G11G13
  20760538.543    20760541.025     1967338.363 9     66579.914 8
  20572081.442    20572083.643    -6799365.572 9  -7334672.957 7
  20727066.040    20727067.596      129461.879 9  -2036443.107 9
  21573945.482    21573948.844   -10550938.249 9 -10155215.526 7
 90  3 10  4 43 14.0800000  0  4G 6G 9G11G13
  20764359.327    20764361.307     1987413.472 8     82222.832 7
  20568646.056    20568648.624    -6817424.499 9  -7348744.852 7
  20729288.905    20729288.538      141143.127 9  -2027340.830 8
  21567630.255    21567634.555   -10584120.085 9 -10181071.505 6
 90  3 10  4 43 29.0800000  0  4G 6G 9G11G13
  20768206.525    20768209.249     2007627.981 8     97974.389 8
  20565233.743    20565235.459    -6835355.288 9  -7362716.897 7
  20731530.895    20731532.997      152931.480 9  -2018155.112 8
  21561336.370    21561340.831   -10617192.500 9 -10206842.199 8
 90  3 10  4 43 44.0800000  0  4G 6G 9G11G13
  20772080.082    20772080.458     2027982.179 8    113834.802 8
  20561844.852    20561846.234    -6853157.876 9  -7376589.032 8
  20733794.589    20733797.179      164826.720 9  -2008886.090 8
  21555063.058    21555067.344   -10650155.367 9 -10232527.526 8
 90  3 10  4 43 59.0800000  0  4G 6G 9G11G13
  20775979.538    20775980.801     2048475.837 9    129803.887 7
  20558483.288    20558484.512    -6870831.826 9  -7390360.933 7
  20736078.723    20736080.979      176828.595 9  -1999533.971 8
  21548812.173    21548814.436   -10683008.478 9 -10258127.321 7
 90  3 10  4 44 14.0800000  0  4G 6G 9G11G13
  20779905.866    20779906.342     2069109.032 9    145881.697 7
  20555144.921    20555145.134    -6888376.882 9  -7404032.401 8
  20738382.461    20738384.845      188936.885 9  -1990098.954 7
  21542582.030    21542583.418   -10715752.005 9 -10283641.719 7
 90  3 10  4 44 29.0800000  0  4G 6G 9G11G13
  20783857.179    20783858.999     2089881.650 9    162068.142 8
  20551830.540    20551831.592    -6905792.816 9  -7417603.271 7
  20740707.671    20740709.360      201151.220 9  -1980581.277 8
  21536372.200    21536372.941   -10748385.732 9 -10309070.575 7
 90  3 10  4 44 44.0800000  0  4G 6G 9G11G13
  20787835.936    20787839.577     2110793.812 9    178363.345 8
  20548539.957    20548541.990    -6923079.433 8  -7431073.351 8
  20743052.513    20743052.568      213471.442 9  -1970981.086 8
  21530183.267    21530184.161   -10780909.571 9 -10334413.813 7
 90  3 10  4 44 59.0800000  0  4G 6G 9G11G13
  20791842.940    20791844.319     2131845.507 9    194767.256 7
  20545275.486    20545277.288    -6940236.357 8  -7444442.379 8
  20745416.704    20745418.117      225897.384 9  -1961298.534 8
  21524015.742    21524016.170   -10813323.513 9 -10359671.429 7
 90  3 10  4 45 14.0800000  0  4G 6G 9G11G13
  20795876.616    20795876.462     2153036.535 9    211279.768 7
  20542035.646    20542039.541    -6957263.089 8  -7457709.966 7
  20747801.601    20747801.383      238428.755 9  -1951533.806 8
  21517867.426    21517870.508   -10845627.414 9 -10384843.307 6
 90  3 10  4 45 29.0800000  0  4G 6G 9G11G13
  20799936.706    20799937.399     2174367.071 9    227900.935 8
  20538819.913    20538821.925    -6974159.647 9  -7470876.111 8
  20750205.285    20750207.388      251065.257 9  -1941687.166 8
  21511742.246    21511743.499   -10877821.106 9 -10409929.309 6
 90  3 10  4 45 44.0800000  0  4G 6G 9G11G13
  20804021.295    20804022.186     2195836.843 9    244630.598 8
  20535628.724    20535630.916    -6990925.725 9  -7483940.561 8
  20752629.038    20752632.418      263806.553 9  -1931758.879 8
  21505636.579    21505637.888   -10909904.490 9 -10434929.343 6
 90  3 10  4 45 59.0800000  0  4G 6G 9G11G13
  20808132.842    20808134.419     2217446.119 9    261469.000 8
  20532464.789    20532465.322    -7007560.803 9  -7496902.958 8
  20755074.010    20755077.789      276652.481 9  -1921749.068 8
  21499552.183    21499554.434   -10941877.608 9 -10459843.454 8
 90  3 10  4 46 14.0800000  0  4G 6G 9G11G13
  20812271.146    20812273.869     2239194.685 9    278415.945 8
  20529324.830    20529325.121    -7024064.744 9  -7509763.189 6
  20757539.968    20757541.242      289602.855 9  -1911657.862 7
  21493489.494    21493490.708   -10973740.240 9 -10484671.462 7
 90  3 10  4 46 29.0800000  0  4G 6G 9G11G13
  20816436.439    20816439.850     2261082.589 9    295471.430 8
  20526207.430    20526207.767    -7040437.362 9  -7522521.077 8
  20760023.747    20760025.890      302657.320 9  -1901485.540 8
  21487446.651    21487450.821   -11005492.296 9 -10509413.314 7
 90  3 10  4 46 44.0800000  0  4G 6G 9G11G13
  20820628.745    20820630.969     2283109.712 9    312635.409 8
  20523116.631    20523118.764    -7056678.285 9  -7535176.351 8
  20762526.919    20762530.609      315815.724 9  -1891232.239 8
  21481425.092    21481429.828   -11037133.868 9 -10534069.076 8
 90  3 10  4 46 59.0800000  0  4G 6G 9G11G13
  20824847.297    20824848.633     2305276.096 9    329907.904 8
  20520050.815    20520053.367    -7072787.337 9  -7547728.827 7
  20765050.478    20765053.192      329077.818 9  -1880898.140 8
  21475424.941    21475428.288   -11068664.739 9 -10558638.566 8
 90  3 10  4 47 14.0800000  0  4G 6G 9G11G13
  20829091.976    20829093.011     2327581.665 9    347288.856 7
  20517010.898    20517011.856    -7088764.070 8  -7560178.219 7
  20767593.315    20767596.090      342443.310 9  -1870483.478 8
  21469444.786    21469450.109   -11100084.818 8 -10583121.733 7
 90  3 10  4 47 29.0800000  0  4G 6G 9G11G13
  20833362.384    20833363.519     2350026.370 9    364778.222 7
  20513997.194    20513997.799    -7104608.317 9  -7572524.373 9
  20770157.012    20770158.256      355911.948 9  -1859988.422 8
  21463488.478    21463491.762   -11131394.020 9 -10607518.485 7
 90  3 10  4 47 44.0800000  0  4G 6G 9G11G13
  20837659.520    20837660.828     2372610.281 9    382376.078 8
  20511007.275    20511008.036    -7120319.974 9  -7584767.228 8
  20772739.488    20772739.997      369483.488 9  -1849413.178 7
  21457551.065    21457553.784   -11162592.444 9 -10631828.920 7
 90  3 10  4 47 59.0800000  0  4G 6G 9G11G13
  20841983.158    20841985.208     2395333.166 9    400082.206 7
  20508041.616    20508043.407    -7135898.503 9  -7596906.340 8
  20775341.117    20775342.704      383157.655 8  -1838757.976 8
  21451636.198    21451638.951   -11193679.791 9 -10656052.817 8
 90  3 10  4 48 14.0800000  0  4G 6G 9G11G13
  20846333.124    20846336.119     2418195.160 9    417896.733 7
  20505103.794    20505104.860    -7151343.537 8  -7608941.428 8
  20777963.040    20777965.611      396934.269 9  -1828022.951 8
  21445740.760    21445742.783   -11224656.129 9 -10680190.225 8
 90  3 10  4 48 29.0800000  0  4G 6G 9G11G13
  20850710.850    20850711.229     2441196.157 9    435819.600 8
  20502189.645    20502191.139    -7166655.199 8  -7620872.580 8
  20780605.110    20780606.246      410813.156 9  -1817208.225 8
  21439868.211    21439869.835   -11255521.458 9 -10704241.089 8
 90  3 10  4 48 44.0800000  0  4G 6G 9G11G13
  20855114.247    20855114.366     2464336.030 9    453850.656 6
  20499301.376    20499302.492    -7181832.911 8  -7632699.380 8
  20783265.246    20783267.968      424793.905 9  -1806314.152 8
  21434014.607    21434017.605   -11286275.607 9 -10728205.337 7
 90  3 10  4 48 59.0800000  0  4G 6G 9G11G13
  20859545.147    20859545.366     2487614.914 9    471990.046 7
  20496439.085    20496440.869    -7196876.521 8  -7644421.675 8
  20785945.805    20785947.401      438876.340 9  -1795340.825 8
  21428183.169    21428185.844   -11316918.555 9 -10752082.942 7
 90  3 10  4 49 14.0800000  0  4G 6G 9G11G13
  20863999.570    20864000.861     2511032.562 9    490237.547 8
  20493600.589    20493603.056    -7211785.792 8  -7656039.288 8
  20788644.662    20788646.175      453060.143 9  -1784288.511 9
  21422373.443    21422374.701   -11347450.191 9 -10775873.799 7
 90  3 10  4 49 29.0800000  0  4G 6G 9G11G13
  20868483.786    20868484.278     2534589.124 9    508593.307 8
  20490788.801    20490793.198    -7226560.304 8  -7667551.913 7
  20791362.698    20791365.065      467345.007 9  -1773157.424 7
  21416584.953    21416586.207   -11377870.584 9 -10799577.995 8
 90  3 10  4 49 44.0800000  0  4G 6G 9G11G13
  20872992.813    20872992.460     2558284.376 9    527057.145 8
  20488002.288    20488005.236    -7241200.003 8  -7678959.453 8
  20794100.179    20794103.047      481730.703 9  -1761947.805 8
  21410817.949    21410820.770   -11408179.471 9 -10823195.289 7
 90  3 10  4 49 59.0800000  0  4G 6G 9G11G13
  20877527.597    20877528.703     2582118.278 8    545629.012 7
  20485242.097    20485245.403    -7255704.574 8  -7690261.706 8
  20796856.548    20796859.163      496216.957 9  -1750659.804 7
  21405071.563    21405072.472   -11438376.685 9 -10846725.562 8
 90  3 10  4 50 14.0800000  0  4G 6G 9G11G13
  20882090.170    20882092.406     2606091.038 9    564309.091 8
  20482509.320    20482511.191    -7270073.641 8  -7701458.367 8
  20799632.489    20799633.716      510803.619 9  -1739293.550 7
  21399346.385    21399346.750   -11468462.209 9 -10870168.810 7
 90  3 10  4 50 29.0800000  0  4G 6G 9G11G13
  20886678.013    20886679.906     2630202.352 9    583097.116 8
  20479800.691    20479802.096    -7284307.025 8  -7712549.307 7
  20802425.079    20802427.633      525490.460 9  -1727849.252 8
  21393642.685    21393642.470   -11498436.145 9 -10893525.100 8
 90  3 10  4 50 44.0800000  0  4G 6G 9G11G13
  20891292.671    20891294.534     2654452.124 9    601993.041 7
  20477119.823    20477119.921    -7298404.468 8  -7723534.324 7
  20805239.502    20805243.726      540277.106 9  -1716327.188 8
  21387960.133    21387961.598   -11528298.338 9 -10916794.327 7
 90  3 10  4 50 59.0800000  0  4G 6G 9G11G13
  20895933.427    20895935.077     2678840.354 9    620996.859 9
  20474461.445    20474463.156    -7312365.712 9  -7734413.210 7
  20808073.497    20808075.761      555163.340 9  -1704727.530 7
  21382299.573    21382300.459   -11558048.899 9 -10939976.587 6
 90  3 10  4 51 14.0800000  0  4G 6G 9G11G13
  20900602.059    20900601.734     2703367.124 9    640108.615 8
  20471831.838    20471832.966    -7326190.486 9  -7745185.763 8
  20810925.473    20810927.091      570148.941 9  -1693050.428 8
  21376657.725    21376661.195   -11587687.542 9 -10963071.632 7
 90  3 10  4 51 29.0800000  0  4G 6G 9G11G13
  20905293.844    20905295.394     2728032.213 9    659328.159 7
  20469226.477    20469227.094    -7339878.464 8  -7755851.712 8
  20813796.167    20813797.614      585233.560 9  -1681296.170 8
  21371038.405    21371042.805   -11617214.164 9 -10986079.362 7
 90  3 10  4 51 44.0800000  0  4G 6G 9G11G13
  20910015.477    20910016.084     2752835.725 9    678655.550 7
  20466646.173    20466647.933    -7353429.379 8  -7766410.864 8
  20816686.004    20816688.021      600417.011 9  -1669464.914 8
  21365440.851    21365443.369   -11646628.738 9 -11008999.802 6
 90  3 10  4 51 59.0800000  0  4G 6G 9G11G13
  20914761.523    20914762.601     2777777.348 9    698090.571 7
  20464094.008    20464095.355    -7366843.183 8  -7776863.157 8
  20819593.146    20819595.403      615699.045 9  -1657556.842 7
  21359865.117    21359867.342   -11675931.362 9 -11031833.004 8
 90  3 10  4 52 14.0800000  0  4G 6G 9G11G13
  20919533.552    20919533.688     2802857.246 9    717633.354 8
  20461568.075    20461568.889    -7380119.425 8  -7787208.278 8
  20822518.394    20822521.008      631079.445 9  -1645572.122 8
  21354310.317    21354313.588   -11705121.817 9 -11054578.803 6
 90  3 10  4 52 29.0800000  0  4G 6G 9G11G13
  20924331.941    20924333.233     2828075.203 9    737283.699 7
  20459068.072    20459069.148    -7393257.932 8  -7797446.061 7
  20825464.090    20825465.929      646557.865 9  -1633511.014 8
  21348776.495    21348781.597   -11734200.062 9 -11077237.175 8
 90  3 10  4 52 44.0800000  0  4G 6G 9G11G13
  20929157.546    20929157.163     2853431.157 8    757041.584 7
  20456595.796    20456595.388    -7406258.370 9  -7807576.290 7
  20828426.569    20828428.605      662134.067 8  -1621373.703 8
  21343265.970    21343268.846   -11763166.121 9 -11099808.106 7
 90  3 10  4 52 59.0800000  0  4G 6G 9G11G13
  20934007.760    20934008.123     2878925.175 9    776907.052 8
  20454147.241    20454148.237    -7419120.758 9  -7817598.940 8
  20831410.727    20831414.091      677807.788 9  -1609160.423 6
  21337774.280    21337777.263   -11792019.928 9 -11122291.559 8
 90  3 10  4 53 14.0800000  0  4G 6G 9G11G13
  20938884.734    20938885.769     2904556.956 9    796879.870 7
  20451726.345    20451727.011    -7431844.642 8  -7827513.673 7
  20834412.088    20834414.903      693578.612 9  -1596871.444 7
  21332304.570    21332307.454   -11820761.510 9 -11144687.578 6
 90  3 10  4 53 29.0800000  0  4G 6G 9G11G13
  20943789.325    20943791.103     2930326.563 9    816960.073 7
  20449331.527    20449332.597    -7444429.691 9  -7837320.189 8
  20837432.376    20837434.021      709446.370 8  -1584506.933 7
  21326857.405    21326860.051   -11849390.796 9 -11166996.098 7
 90  3 10  4 53 44.0800000  0  4G 6G 9G11G13
  20948719.816    20948720.993     2956233.994 9    837147.668 7
  20446963.143    20446965.658    -7456875.677 8  -7847018.364 7
  20840470.826    20840470.398      725410.772 8  -1572067.120 8
  21321431.875    21321434.427   -11877907.543 9 -11189216.923 8
 90  3 10  4 53 59.0800000  0  4G 6G 9G11G13
  20953676.807    20953678.414     2982278.936 9    857442.413 8
  20444619.833    20444622.173    -7469182.585 8  -7856608.141 8
  20843526.119    20843527.253      741471.562 8  -1559552.213 7
  21316026.034    21316029.148   -11906311.884 9 -11211350.148 8
 90  3 10  4 54 14.0800000  0  4G 6G 9G11G13
  20958658.896    20958660.288     3008461.645 9    877844.512 7
  20442302.917    20442307.162    -7481349.912 7  -7866089.171 8
  20846600.998    20846602.438      757628.580 8  -1546962.317 7
  21310642.773    21310646.122   -11934603.894 9 -11233395.856 8
 90  3 10  4 54 29.0800000  0  4G 6G 9G11G13
  20963667.315    20963668.090     3034781.863 9    898353.767 8
  20440016.298    20440018.217    -7493377.622 8  -7875461.404 8
  20849693.236    20849696.697      773881.542 7  -1534297.677 7
  21305280.669    21305283.876   -11962783.439 9 -11255353.930 8
 90  3 10  4 54 44.0800000  0  4G 6G 9G11G13
  20968702.004    20968704.700     3061239.444 9    918970.068 8
  20437753.357    20437755.952    -7505265.294 9  -7884724.525 7
  20852803.494    20852808.109      790230.297 8  -1521558.417 8
  21299939.170    21299942.067   -11990850.376 9 -11277224.274 7
 90  3 10  4 54 59.0800000  0  4G 6G 9G11G13
  20973761.506    20973764.573     3087834.391 8    939693.402 9
  20435518.719    20435520.814    -7517012.842 8  -7893878.447 8
  20855932.546    20855936.639      806674.351 8  -1508744.868 9
  21294619.514    21294622.390   -12018804.685 9 -11299006.838 7
 90  3 10  4 55 14.0800000  0  4G 6G 9G11G13
  20978849.112    20978849.545     3114566.655 9    960523.732 7
  20433310.924    20433310.847    -7528619.855 9  -7902922.865 8
  20859082.794    20859084.434      823213.573 8  -1495857.170 8
  21289320.484    21289323.704   -12046646.186 9 -11320701.497 8
 90  3 10  4 55 29.0800000  0  4G 6G 9G11G13
  20983963.360    20983962.691     3141436.114 9    981460.946 8
  20431128.397    20431128.484    -7540086.227 8  -7911857.702 8
  20862247.126    20862250.592      839847.726 8  -1482895.491 8
  21284044.356    21284046.173   -12074374.820 9 -11342308.209 7
 90  3 10  4 55 44.0800000  0  4G 6G 9G11G13
  20989103.595    20989100.693     3168442.665 8   1002505.005 7
  20428971.984    20428971.677    -7551411.710 8  -7920682.756 7
  20865429.977    20865432.936      856576.396 8  -1469860.163 7
  21278789.714    21278790.958   -12101990.896 9 -11363827.220 8
 90  3 10  4 55 59.0800000  0  4G 6G 9G11G13
  20994267.010    20994266.827     3195586.199 9   1023655.795 8
  20426843.996    20426845.265    -7562596.023 9  -7929397.808 8
  20868630.215    20868634.257      873399.339 8  -1456751.375 8
  21273555.619    21273557.607   -12129494.361 9 -11385258.474 8
 90  3 10  4 56 14.0800000  0  4G 6G 9G11G13
  20999458.128    20999460.265     3222866.657 9   1044913.276 8
  20424742.811    20424742.831    -7573639.251 9  -7938002.928 7
  20871848.366    20871852.370      890316.267 8  -1443569.357 8
  21268342.673    21268345.356   -12156884.910 9 -11406601.741 7
 90  3 10  4 56 29.0800000  0  4G 6G 9G11G13
  21004675.604    21004676.409     3250283.927 9   1066277.376 8
  20422667.685    20422669.922    -7584540.501 9  -7946497.414 8
  20875086.312    20875088.863      907326.938 9  -1430314.283 8
  21263152.394    21263154.783   -12184162.474 9 -11427856.962 7
 90  3 10  4 56 44.0800000  0  4G 6G 9G11G13
  21009919.580    21009919.828     3277837.854 9   1087747.954 8
  20420622.723    20420622.939    -7595300.019 8  -7954881.451 8
  20878342.628    20878342.283      924431.057 8  -1416986.390 7
  21257983.441    21257985.423   -12211326.999 9 -11449024.108 8
 90  3 10  4 56 59.0800000  0  4G 6G 9G11G13
  21015188.912    21015190.520     3305528.533 9   1109325.114 8
  20418601.803    20418603.158    -7605917.294 9  -7963154.652 7
  20881614.849    20881616.366      941628.379 9  -1403585.878 9
  21252834.924    21252837.118   -12238378.798 9 -11470103.416 7
 90  3 10  4 57 14.0800000  0  4G 6G 9G11G13
  21020485.288    21020485.865     3333355.684 9   1131008.594 8
  20416608.098    20416608.525    -7616392.407 9  -7971317.067 8
  20884904.863    20884907.134      958918.656 8  -1390112.918 8
  21247709.135    21247710.252   -12265317.710 9 -11491094.757 7
 90  3 10  4 57 29.0800000  0  4G 6G 9G11G13
  21025805.818    21025807.598     3361319.375 9   1152798.478 8
  20414641.773    20414642.087    -7626724.956 9  -7979368.402 7
  20888211.803    20888215.169      976301.676 9  -1376567.713 9
  21242604.316    21242606.727   -12292143.600 9 -11511998.036 7
 90  3 10  4 57 44.0800000  0  4G 6G 9G11G13
  21031153.909    21031153.527     3389419.371 9   1174694.566 7
  20412702.334    20412702.928    -7636914.733 9  -7987308.489 8
  20891538.254    20891540.900      993777.139 9  -1362950.481 8
  21237521.041    21237523.631   -12318856.456 9 -11532813.222 8
 90  3 10  4 57 59.0800000  0  4G 6G 9G11G13
  21036525.780    21036525.055     3417655.598 9   1196696.810 8
  20410790.165    20410790.345    -7646961.679 9  -7995137.274 7
  20894879.676    20894883.613     1011344.757 9  -1349261.429 8
  21232458.665    21232462.191   -12345456.239 9 -11553540.310 8
 90  3 10  4 58 14.0800000  0  4G 6G 9G11G13
  21041924.468    21041924.572     3446027.975 9   1218805.149 7
  20408905.719    20408906.795    -7656865.339 8  -8002854.429 7
  20898240.995    20898244.057     1029004.176 8  -1335500.846 8
  21227418.331    21227420.684   -12371942.877 9 -11574179.232 8
 90  3 10  4 58 29.0800000  0  4G 6G 9G11G13
  21047349.828    21047350.003     3474536.440 9   1241019.521 7
  20407047.725    20407049.058    -7666625.579 8  -8010459.843 7
  20901619.331    20901621.475     1046755.122 8  -1321668.928 8
  21222398.960    21222403.472   -12398316.307 9 -11594729.935 7
 90  3 10  4 58 44.0800000  0  4G 6G 9G11G13
  21052800.972    21052801.204     3503180.798 9   1263339.816 7
  20405218.475    20405219.923    -7676242.099 8  -8017953.234 6
  20905015.655    20905016.496     1064597.452 9  -1307765.829 8
  21217401.160    21217406.010   -12424576.505 8 -11615192.414 8
 90  3 10  4 58 59.0800000  0  4G 6G 9G11G13
  21058278.073    21058278.720     3531960.986 8   1285765.924 8
  20403415.298    20403416.332    -7685714.659 8  -8025334.432 7
  20908426.623    20908428.998     1082530.813 9  -1293791.778 7
  21212425.734    21212430.627   -12450723.678 9 -11635566.833 8
 90  3 10  4 59 14.0800000  0  4G 6G 9G11G13
  21063779.700    21063780.433     3560876.935 9   1308297.825 7
  20401639.868    20401642.393    -7695043.360 8  -8032603.562 7
  20911857.205    20911857.721     1100554.986 9  -1279746.958 7
  21207471.605    21207476.527   -12476757.894 9 -11655853.223 8
 90  3 10  4 59 29.0800000  0  4G 6G 9G11G13
  21069309.088    21069308.276     3589928.520 9   1330935.423 7
  20399892.262    20399894.159    -7704227.730 9  -8039760.212 8
  20915305.121    20915305.313     1118669.688 9  -1265631.594 7
  21202538.668    21202543.140   -12502678.834 9 -11676051.325 7
 90  3 10  4 59 44.0800000  0  4G 6G 9G11G13
  21074862.400    21074863.121     3619115.646 8   1353678.631 7
  20398172.349    20398173.780    -7713267.635 8  -8046804.305 7
  20918768.604    20918770.735     1136874.660 8  -1251445.902 7
  21197627.045    21197633.015   -12528486.401 9 -11696161.097 7
 90  3 10  4 59 59.0800000  0  4G 6G 9G11G13
  21080441.811    21080443.247     3648438.200 8   1376527.339 8
  20396479.751    20396480.953    -7722162.663 8  -8053735.498 7
  20922250.227    20922253.155     1155169.633 9  -1237190.077 8
  21192739.470    21192742.590   -12554180.646 9 -11716182.561 8
 90  3 10  5  0 14.0800000  0  4G 6G 9G11G13
  21086047.124    21086048.030     3677895.968 9   1399481.452 7
  20394813.680    20394814.357    -7730913.016 8  -8060553.946 7
  20925749.369    20925750.907     1173554.333 9  -1222864.339 7
  21187872.743    21187873.859   -12579761.673 9 -11736115.808 7
 90  3 10  5  0 29.0800000  0  4G 6G 9G11G13
  21091677.477    21091678.926     3707488.906 8   1422540.870 8
  20393176.018    20393178.723    -7739517.898 7  -8067259.060 7
  20929265.031    20929265.764     1192028.409 8  -1208468.955 9
  21183026.807    21183027.629   -12605229.411 9 -11755960.780 7
 90  3 10  5  0 44.0800000  0  4G 6G 9G11G13
  21097335.762    21097336.337     3737216.866 8   1445705.501 8
  20391567.113    20391568.598    -7747977.556 8  -8073850.988 7
  20932796.464    20932798.983     1210591.611 9  -1194004.119 7
  21178201.769    21178202.083   -12630583.744 9 -11775717.380 7
 90  3 10  5  0 59.0800000  0  4G 6G 9G11G13
  21103019.116    21103020.351     3767079.745 9   1468975.274 8
  20389986.754    20389986.673    -7756291.637 9  -8080329.492 7
  20936346.180    20936348.338     1229243.659 9  -1179470.047 8
  21173398.660    21173400.584   -12655824.837 9 -11795385.757 8
 90  3 10  5  1 14.0800000  0  4G 6G 9G11G13
  21108727.253    21108730.262     3797077.400 9   1492350.062 8
  20388432.203    20388431.884    -7764459.910 8  -8086694.379 7
  20939910.600    20939914.935     1247984.278 9  -1164866.974 8
  21168617.760    21168618.932   -12680952.545 9 -11814965.783 7
 90  3 10  5  1 29.0800000  0  4G 6G 9G11G13
  21114460.403    21114463.141     3827209.709 8   1515829.756 8
  20386905.103    20386904.968    -7772482.216 8  -8092945.540 7
  20943494.801    20943496.920     1266813.215 9  -1150195.077 8
  21163855.725    21163857.857   -12705966.941 9 -11834457.499 8
 90  3 10  5  1 44.0800000  0  4G 6G 9G11G13
  21120221.371    21120222.921     3857476.576 8   1539414.319 9
  20385405.234    20385405.411    -7780358.372 8  -8099082.802 7
  20947093.938    20947098.758     1285730.118 8  -1135454.640 9
  21159117.917    21159121.057   -12730868.218 9 -11853861.068 7
 90  3 10  5  1 59.0800000  0  4G 6G 9G11G13
  21126007.036    21126007.611     3887877.990 8   1563103.732 8
  20383933.814    20383935.516    -7788087.725 9  -8105105.680 7
  20950711.314    20950714.158     1304734.778 9  -1120645.809 8
  21154400.791    21154401.977   -12755656.013 9 -11873176.224 7
 90  3 10  5  2 14.0800000  0  4G 6G 9G11G13
  21131816.882    21131818.247     3918413.666 8   1586897.761 8
  20382490.904    20382492.691    -7795670.932 9  -8111014.678 7
  20954344.500    20954347.975     1323826.937 9  -1105768.791 8
  21149706.361    21149706.368   -12780330.558 9 -11892403.122 8
 90  3 10  5  2 29.0800000  0  4G 6G 9G11G13
  21137652.629    21137654.251     3949083.397 8   1610796.240 8
  20381075.815    20381078.508    -7803107.205 8  -8116809.177 8
  20957995.087    20957997.277     1343006.178 9  -1090823.916 7
  21145032.300    21145035.061   -12804891.610 9 -11911541.579 8
 90  3 10  5  2 44.0800000  0  4G 6G 9G11G13
  21143514.219    21143516.627     3979887.409 9   1634799.337 8
  20379688.804    20379691.722    -7810396.407 8  -8122489.054 7
  20961661.604    20961663.600     1362272.324 9  -1075811.314 8
  21140378.307    21140383.114   -12829338.999 9 -11930591.477 8
 90  3 10  5  2 59.0800000  0  4G 6G 9G11G13
  21149401.565    21149404.145     4010825.291 9   1658906.773 6
  20378331.593    20378331.477    -7817538.264 8  -8128054.142 7
  20965343.591    20965345.154     1381625.180 8  -1060731.150 7
  21135747.109    21135752.159   -12853672.998 9 -11949553.035 9
 90  3 10  5  3 14.0800000  0  4G 6G 9G11G13
  21155313.751    21155315.245     4041896.892 8   1683118.383 7
  20377000.802    20377000.915    -7824532.858 9  -8133504.481 7
  20969043.349    20969045.573     1401064.360 8  -1045583.730 8
  21131138.434    21131143.600   -12877893.765 9 -11968426.344 8
 90  3 10  5  3 29.0800000  0  4G 6G 9G11G13
  21161252.383    21161254.161     4073102.214 8   1707434.198 7
  20375697.970    20375697.477    -7831379.957 9  -8138839.885 7
  20972758.862    20972759.474     1420589.635 9  -1030369.238 6
  21126550.678    21126555.563   -12902001.288 9 -11987211.414 7
 90  3 10  5  3 44.0800000  0  4G 6G 9G11G13
  21167215.396    21167218.418     4104441.174 8   1731854.141 7
  20374421.129    20374421.645    -7838079.513 9  -8144060.328 7
  20976490.432    20976491.674     1440200.701 9  -1015087.884 7
  21121985.001    21121989.952   -12925995.399 9 -12005908.104 7
 90  3 10  5  3 59.0800000  0  4G 6G 9G11G13
  21173204.080    21173206.845     4135913.328 8   1756377.891 7
  20373174.970    20373175.208    -7844630.492 8  -8149164.985 8
  20980238.865    20980238.765     1459897.316 9   -999739.867 7
  21117440.374    21117445.940   -12949876.038 9 -12024516.367 7
 90  3 10  5  4 14.0800000  0  4G 6G 9G11G13
  21179218.148    21179221.028     4167518.716 8   1781005.460 8
  20371956.282    20371956.738    -7851033.579 9  -8154154.407 8
  20984003.800    20984003.511     1479679.130 9   -984325.468 7
  21112918.577    21112922.232   -12973643.172 9 -12043036.184 7
 90  3 10  5  4 29.0800000  0  4G 6G 9G11G13
  21185257.085    21185260.555     4199257.421 8   1805736.892 7
  20370766.981    20370767.808    -7857289.150 8  -8159028.856 7
  20987784.890    20987783.876     1499545.909 9   -968844.849 7
  21108416.928    21108420.462   -12997296.856 9 -12061467.605 7
 90  3 10  5  4 44.0800000  0  4G 6G 9G11G13
  21191322.925    21191324.417     4231129.154 8   1830571.994 8
  20369604.829    20369605.562    -7863395.254 9  -8163786.859 8
  20991581.372    20991581.366     1519497.436 9   -953298.213 7
  21103936.705    21103942.014   -13020837.115 9 -12079810.655 9
 90  3 10  5  4 59.0800000  0  4G 6G 9G11G13
  21197412.973    21197416.255     4263133.756 9   1855510.613 7
  20368471.083    20368472.381    -7869352.342 9  -8168428.763 7
  20995393.030    20995393.743     1539533.294 9   -937685.848 8
  21099478.570    21099483.642   -13044264.082 9 -12098065.416 8
 90  3 10  5  5 14.0800000  0  4G 6G 9G11G13
  21203528.581    21203532.691     4295270.934 8   1880552.564 8
  20367365.424    20367367.302    -7875160.852 8  -8172954.870 7
  20999221.616    20999222.865     1559653.245 9   -922007.958 8
  21095043.077    21095046.377   -13067577.710 9 -12116231.869 8
 90  3 10  5  5 29.0800000  0  4G 6G 9G11G13
  21209670.631    21209673.809     4327540.667 9   1905697.786 7
  20366288.403    20366289.567    -7880820.271 8  -8177364.786 7
  21003065.895    21003068.781     1579857.030 9   -906264.766 7
  21090626.776    21090631.675   -13090777.902 8 -12134309.926 7
 90  3 10  5  5 44.0800000  0  4G 6G 9G11G13
  21215836.776    21215839.141     4359942.798 9   1930946.193 8
  20365241.087    20365241.719    -7886330.261 9  -8181658.281 7
  21006926.441    21006929.184     1600144.402 9   -890456.423 7
  21086234.719    21086238.512   -13113864.621 8 -12152299.570 7
 90  3 10  5  5 59.0800000  0  4G 6G 9G11G13
  21222027.878    21222030.602     4392477.273 9   1956297.715 9
  20364220.841    20364219.451    -7891690.910 8  -8185835.410 7
  21010803.444    21010804.892     1620515.045 9   -874583.197 8
  21081862.754    21081866.760   -13136837.861 9 -12170200.782 8
 90  3 10  5  6 14.0800000  0  4G 6G 9G11G13
  21228244.993    21228247.128     4425143.787 9   1981752.135 8
  20363228.207    20363228.423    -7896901.914 9  -8189895.945 7
  21014694.641    21014697.303     1640968.717 9   -858645.256 8
  21077511.464    21077517.075   -13159697.741 9 -12188013.645 8
 90  3 10  5  6 29.0800000  0  4G 6G 9G11G13
  21234487.008    21234487.169     4457942.150 8   2007309.296 8
  20362264.504    20362265.422    -7901963.125 8  -8193839.761 7
  21018602.392    21018604.291     1661505.108 9   -842642.879 8
  21073182.864    21073187.492   -13182444.134 9 -12205738.105 8
 90  3 10  5  6 44.0800000  0  4G 6G 9G11G13
  21240752.316    21240753.666     4490872.439 8   2032969.242 8
  20361328.623    20361331.059    -7906874.276 8  -8197666.635 7
  21022527.679    21022528.970     1682123.940 9   -826576.223 8
  21068875.532    21068880.904   -13205077.152 9 -12223374.209 8
 90  3 10  5  6 59.0800000  0  4G 6G 9G11G13
  21247043.696    21247043.772     4523934.483 8   2058731.874 8
  20360423.800    20360423.573    -7911635.397 7  -8201376.598 6
  21026464.807    21026467.597     1702824.980 9   -810445.559 8
  21064591.425    21064595.952   -13227596.796 9 -12240921.972 7
 90  3 10  5  7 14.0800000  0  4G 6G 9G11G13
  21253359.432    21253361.595     4557127.981 9   2084596.922 8
  20359546.175    20359547.376    -7916246.055 9  -8204969.314 7
  21030419.654    21030421.855     1723607.918 9   -794251.065 8
  21060328.374    21060332.194   -13250003.196 9 -12258381.488 7
 90  3 10  5  7 29.0800000  0  4G 6G 9G11G13
  21259700.950    21259703.832     4590452.931 9   2110564.397 9
  20358697.375    20358698.028    -7920706.294 8  -8208444.813 7
  21034389.875    21034392.906     1744472.620 9   -777992.847 6
  21056085.685    21056090.441   -13272296.411 9 -12275752.822 8
 90  3 10  5  7 44.0800000  0  4G 6G 9G11G13
  21266067.798    21266071.165     4623908.915 9   2136633.967 9
  20357878.480    20357877.305    -7925015.847 8  -8211802.913 7
  21038376.922    21038378.699     1765418.691 8   -761671.227 8
  21051865.747    21051868.651   -13294476.345 9 -12293035.877 7
 90  3 10  5  7 59.0800000  0  4G 6G 9G11G13
  21272459.628    21272462.123     4657495.904 9   2162805.638 7
  20357087.650    20357088.589    -7929174.556 8  -8215043.468 7
  21042378.096    21042380.960     1786445.780 9   -745286.484 7
  21047666.573    21047670.399   -13316543.042 9 -12310230.702 8
 90  3 10  5  8 14.0800000  0  4G 6G 9G11G13
  21278877.302    21278877.822     4691213.635 9   2189079.175 8
  20356324.330    20356326.053    -7933182.309 8  -8218166.405 8
  21046394.066    21046396.755     1807553.526 9   -728838.904 8
  21043489.906    21043491.077   -13338496.411 9 -12327337.196 7
 90  3 10  5  8 29.0800000  0  4G 6G 9G11G13
  21285317.642    21285318.604     4725062.243 9   2215454.725 7
  20355590.019    20355591.169    -7937038.889 8  -8221171.514 7
  21050426.546    21050429.412     1828741.628 9   -712328.702 8
  21039333.078    21039335.962   -13360336.415 9 -12344355.363 8
 90  3 10  5  8 44.0800000  0  4G 6G 9G11G13
  21291782.764    21291784.084     4759041.540 9   2241932.076 8
  20354883.396    20354885.924    -7940743.902 8  -8224058.530 7
  21054474.832    21054477.343     1850010.049 9   -695755.919 9
  21035198.460    21035200.611   -13382063.124 9 -12361285.244 8
 90  3 10  5  8 59.0800000  0  4G 6G 9G11G13
  21298272.812    21298275.537     4793151.167 9   2268510.995 8
  20354208.211    20354211.396    -7944297.513 8  -8226827.579 7
  21058536.954    21058540.260     1871358.410 9   -679120.850 8
  21031085.783    21031088.839   -13403676.823 9 -12378127.056 8
 90  3 10  5  9 14.0800000  0  4G 6G 9G11G13
  21304788.304    21304790.253     4827390.891 9   2295191.278 8
  20353561.128    20353562.503    -7947699.447 8  -8229478.425 7
  21062613.153    21062616.273     1892786.317 8   -662423.783 8
  21026993.820    21026997.741   -13425177.528 9 -12394880.842 8
 90  3 10  5  9 29.0800000  0  4G 6G 9G11G13
  21311330.066    21311331.918     4861760.635 9   2321972.864 7
  20352942.435    20352943.636    -7950949.533 8  -8232010.973 6
  21066704.863    21066706.703     1914293.475 9   -645664.960 8
  21022923.191    21022926.360   -13446565.140 9 -12411546.490 7
 90  3 10  5  9 44.0800000  0  4G 6G 9G11G13
  21317895.067    21317897.289     4896260.340 9   2348855.728 8
  20352353.405    20352354.115    -7954047.706 9  -8234425.143 8
  21070813.331    21070816.365     1935879.640 9   -628844.573 7
  21018875.122    21018878.227   -13467839.537 9 -12428123.948 8
 90  3 10  5  9 59.0800000  0  4G 6G 9G11G13
  21324486.169    21324487.603     4930889.784 9   2375839.704 8
  20351792.493    20351793.803    -7956993.662 8  -8236720.716 7
  21074935.945    21074938.143     1957544.590 9   -611962.787 7
  21014847.744    21014850.768   -13489000.763 9 -12444613.224 8
 90  3 10  5 10 14.0800000  0  4G 6G 9G11G13
  21331100.335    21331101.412     4965648.937 9   2402924.739 8
  20351261.411    20351260.319    -7959787.415 8  -8238897.664 6
  21079074.860    21079075.666     1979288.060 9   -595019.804 8
  21010843.294    21010845.624   -13510048.887 9 -12461014.356 6
 90  3 10  5 10 29.0800000  0  4G 6G 9G11G13
  21337738.399    21337741.180     5000537.424 9   2430110.561 7
  20350757.517    20350759.064    -7962428.594 7  -8240955.736 7
  21083226.688    21083229.043     2001109.818 8   -578015.834 8
  21006859.007    21006861.847   -13530983.765 9 -12477327.231 7
 90  3 10  5 10 44.0800000  0  4G 6G 9G11G13
  21344401.188    21344404.112     5035555.038 9   2457397.003 7
  20350283.398    20350286.572    -7964917.202 8  -8242894.906 7
  21087395.353    21087397.443     2023009.468 9   -560951.158 8
  21002897.593    21002899.476   -13551805.719 9 -12493552.114 7
 90  3 10  5 10 59.0800000  0  4G 6G 9G11G13
  21351089.820    21351092.300     5070701.585 9   2484783.914 8
  20349839.881    20349843.130    -7967253.305 8  -8244715.237 6
  21091577.389    21091577.922     2044986.751 9   -543825.995 7
  20998956.028    20998959.440   -13572514.829 9 -12509689.081 7
 90  3 10  5 11 14.0800000  0  4G 6G 9G11G13
  21357803.407    21357804.727     5105977.081 9   2512271.313 8
  20349426.256    20349426.158    -7969436.278 8  -8246416.244 6
  21095774.377    21095777.057     2067041.351 9   -526640.606 7
  20995037.398    20995041.554   -13593111.079 9 -12525738.090 6
 90  3 10  5 11 29.0800000  0  4G 6G 9G11G13
  21364540.777    21364540.610     5141381.258 9   2539858.962 7
  20349038.292    20349039.708    -7971466.377 7  -8247998.137 6
  21099985.540    21099987.687     2089173.034 9   -509395.125 8
  20991138.036    20991142.637   -13613594.324 9 -12541699.023 8
 90  3 10  5 11 44.0800000  0  4G 6G 9G11G13
  21371302.157    21371302.289     5176913.984 9   2567546.770 8
  20348681.605    20348682.396    -7973343.094 7  -8249460.530 7
  21104210.829    21104214.367     2111381.436 9   -492089.878 8
  20987262.343    20987266.283   -13633964.489 8 -12557571.863 6
 90  3 10  5 11 59.0800000  0  4G 6G 9G11G13
  21378088.350    21378089.269     5212575.025 9   2595334.565 7
  20348355.280    20348352.750    -7975066.648 7  -8250803.558 6
  21108451.771    21108454.416     2133666.315 9   -474725.044 9
  20983408.341    20983413.070   -13654221.611 9 -12573356.609 8
 90  3 10  5 12 14.0800000  0  4G 6G 9G11G13
  21384898.581    21384899.703     5248364.053 9   2623222.092 8
  20348054.430    20348054.092    -7976636.536 8  -8252026.869 6
  21112706.614    21112708.871     2156027.548 9   -457300.713 9
  20979576.075    20979578.300   -13674365.881 9 -12589053.437 6
 90  3 10  5 12 29.0800000  0  4G 6G 9G11G13
  21391733.252    21391734.102     5284281.093 9   2651209.376 7
  20347784.063    20347784.576    -7978052.776 7  -8253130.434 6
  21116976.977    21116978.919     2178464.786 9   -439817.156 7
  20975764.300    20975766.010   -13694397.691 9 -12604662.621 7
 90  3 10  5 12 44.0800000  0  4G 6G 9G11G13
  21398592.250    21398594.616     5320326.015 9   2679296.307 8
  20347543.582    20347544.729    -7979315.405 7  -8254114.305 5
  21121261.060    21121262.057     2200977.617 9   -422274.692 8
  20971973.008    20971975.082   -13714316.942 9 -12620184.107 8
 90  3 10  5 12 59.0800000  0  4G 6G 9G11G13
  21405475.287    21405478.411     5356498.445 9   2707482.612 7
  20347331.491    20347334.821    -7980423.987 8  -8254978.150 7
  21125560.393    21125559.399     2223565.787 9   -404673.497 7
  20968203.667    20968206.305   -13734123.440 9 -12635617.729 6
 90  3 10  5 13 14.0800000  0  4G 6G 9G11G13
  21412383.422    21412385.200     5392798.278 9   2735768.200 7
  20347151.507    20347154.170    -7981378.888 7  -8255722.227 6
  21129872.701    21129871.220     2246229.073 9   -387013.782 8
  20964455.840    20964458.021   -13753817.191 9 -12650963.512 7
 90  3 10  5 13 29.0800000  0  4G 6G 9G11G13
  21419315.912    21419318.479     5429225.371 9   2764152.953 7
  20347000.272    20347000.499    -7982179.523 8  -8256346.090 6
  21134200.407    21134198.482     2268967.147 9   -369295.787 7
  20960730.326    20960733.231   -13773398.111 9 -12666221.372 7
 90  3 10  5 13 44.0800000  0  4G 6G 9G11G13
  21426271.353    21426273.115     5465779.437 9   2792636.654 7
  20346877.249    20346877.408    -7982825.720 8  -8256849.650 6
  21138540.295    21138540.212     2291779.705 9   -351519.758 7
  20957026.030    20957027.817   -13792866.444 9 -12681391.496 7
 90  3 10  5 13 59.0800000  0  4G 6G 9G11G13
  21433251.378    21433251.654     5502460.416 9   2821219.235 7
  20346784.556    20346783.082    -7983317.728 8  -8257233.009 7
  21142895.348    21142896.177     2314666.537 9   -333685.869 8
  20953341.963    20953343.709   -13812222.420 9 -12696474.036 7
 90  3 10  5 14 14.0800000  0  4G 6G 9G11G13
  21440256.356    21440255.788     5539267.919 9   2849900.397 7
  20346719.501    20346719.410    -7983655.163 8  -8257495.963 6
  21147264.600    21147266.689     2337627.320 9   -315794.347 8
  20949679.083    20949681.371   -13831465.950 9 -12711468.982 8
 90  3 10  5 14 29.0800000  0  4G 6G 9G11G13
  21447284.003    21447283.735     5576201.903 9   2878680.110 8
  20346683.637    20346684.379    -7983837.794 8  -8257638.253 5
  21151648.367    21151650.131     2360661.807 9   -297845.406 8
  20946038.445    20946042.444   -13850597.243 9 -12726376.470 8
 90  3 10  5 14 44.0800000  0  4G 6G 9G11G13
  21454336.517    21454336.895     5613262.421 9   2907558.439 8
  20346678.891    20346679.403    -7983865.368 8  -8257659.743 6
  21156044.895    21156047.124     2383769.925 8   -279839.085 9
  20942420.130    20942422.776   -13869615.860 9 -12741196.149 7
 90  3 10  5 14 59.0800000  0  4G 6G 9G11G13
  21461411.039    21461415.194     5650448.747 9   2936534.782 8
  20346702.228    20346706.575    -7983738.288 8  -8257560.717 6
  21160455.586    21160459.339     2406950.925 9   -261775.973 8
  20938822.099    20938826.192   -13888522.188 8 -12755928.337 7
 90  3 10  5 15 14.0800000  0  4G 6G 9G11G13
  21468512.922    21468514.500     5687760.902 9   2965609.168 7
  20346755.890    20346757.709    -7983456.028 7  -8257340.791 6
  21164881.813    21164884.793     2430204.767 9   -243656.108 8
  20935246.268    20935248.613   -13907316.219 9 -12770573.004 7
 90  3 10  5 15 29.0800000  0  4G 6G 9G11G13
  21475638.384    21475639.907     5725198.726 9   2994781.487 7
  20346840.153    20346840.139    -7983018.660 8  -8256999.976 6
  21169320.875    21169323.029     2453531.027 9   -225479.808 7
  20931692.073    20931692.108   -13925997.983 9 -12785130.198 7
 90  3 10  5 15 44.0800000  0  4G 6G 9G11G13
  21482786.685    21482786.747     5762761.952 9   3024051.530 7
  20346953.437    20346954.212    -7982425.963 7  -8256538.144 7
  21173773.150    21173775.299     2476929.518 9   -207247.218 7
  20928157.897    20928158.181   -13944567.600 9 -12799600.014 6
 90  3 10  5 15 59.0800000  0  4G 6G 9G11G13
  21489958.309    21489958.030     5800450.387 9   3053419.127 8
  20347095.413    20347096.179    -7981677.896 9  -8255955.233 7
  21178238.651    21178239.545     2500399.969 9   -188958.558 8
  20924645.226    20924645.812   -13963024.922 9 -12813982.334 6
 90  3 10  5 16 14.0800000  0  4G 6G 9G11G13
  21497152.972    21497153.392     5838264.021 9   3082884.266 7
  20347267.700    20347267.822    -7980774.385 8  -8255251.196 6
  21182718.849    21182721.359     2523942.076 9   -170614.050 7
  20921154.327    20921155.193   -13981370.047 9 -12828277.214 6
 90  3 10  5 16 29.0800000  0  4G 6G 9G11G13
  21504371.930    21504372.392     5876202.492 9   3112446.689 7
  20347468.229    20347468.672    -7979715.229 7  -8254425.869 6
  21187211.631    21187214.446     2547555.594 9   -152213.901 8
  20917684.128    20917687.661   -13999603.077 9 -12842484.785 7
 90  3 10  5 16 44.0800000  0  4G 6G 9G11G13
  21511614.071    21511615.436     5914265.571 9   3142106.211 6
  20347698.259    20347699.782    -7978500.365 7  -8253479.217 6
  21191718.673    21191721.291     2571240.286 9   -133758.289 7
  20914235.840    20914239.004   -14017724.134 9 -12856605.079 7
 90  3 10  5 16 59.0800000  0  4G 6G 9G11G13
  21518881.825    21518883.333     5952453.154 9   3171862.740 7
  20347960.697    20347961.873    -7977129.605 8  -8252411.083 6
  21196238.501    21196242.708     2594995.884 8   -115247.420 8
  20910808.841    20910813.339   -14035733.271 9 -12870638.177 8
 90  3 10  5 17 14.0800000  0  3G 6G11G13
  21526172.434    21526174.452     5990764.888 7   3201716.044 6
  21200772.701    21200774.845     2618821.987 6    -96681.611 4
  20907403.921    20907405.875   -14053630.681 6 -12884584.184 5
 90  3 10  5 17 29.0800000  0  4G 6G12G11G13
  21533487.202    21533489.504     6029200.732 9   3231666.048 8
                  22015781.502   -34386620.815 9
  21205319.131    21205323.993     2642718.242 9    -78061.155 8
  20904018.757    20904021.555   -14071416.340 9 -12898443.129 8
 90  3 10  5 17 44.0800000  0  4G 6G12G11G13
  21540825.343    21540826.557     6067760.401 9   3261712.551 7
                  22007926.658   -34428054.639 9
  21209880.501    21209883.818     2666684.379 8    -59386.233 8
  20900654.813    20900660.445   -14089090.341 9 -12912215.066 8
 90  3 10  5 17 59.0800000  0  4G 6G12G11G13
  21548186.235    21548188.157     6106443.722 9   3291855.395 7
  22000054.731    22000055.782   -34469416.536 9  43749237.979 9
  21214455.293    21214458.237     2690720.180 9    -40657.037 8
  20897312.766    20897315.906   -14106652.683 9 -12925899.993 7
 90  3 10  5 18 14.0800000  0  4G 6G12G11G13
  21555569.886    21555572.052     6145250.453 9   3322094.410 7
  21992198.077    21992198.122   -34510706.517 9  43717064.006 8
  21219041.975    21219044.936     2714825.449 9    -21873.704 8
  20893992.423    20893994.014   -14124103.353 9 -12939497.888 8
 90  3 10  5 18 29.0800000  0  4G 6G12G11G13
  21562978.292    21562980.029     6184180.314 9   3352429.370 9
  21984354.421    21984354.884   -34551924.217 9  43684946.313 8
  21223642.896    21223645.113     2738999.825 9     -3036.538 7
  20890693.181    20890695.649   -14141442.474 9 -12953008.872 8
 90  3 10  5 18 44.0800000  0  4G 6G12G11G13
  21570409.285    21570411.881     6223233.196 9   3382860.182 8
  21976524.310    21976525.895   -34593069.305 9  43652885.205 9
  21228256.095    21228259.024     2763243.128 8     15854.345 7
  20887416.244    20887417.027   -14158670.118 8 -12966433.006 8
 90  3 10  5 18 59.0800000  0  4G 6G12G11G13
  21577863.087    21577866.840     6262408.817 9   3413386.626 8
  21968708.845    21968709.731   -34634141.411 9  43620880.988 8
  21232883.446    21232883.986     2787555.004 9     34798.663 7
  20884158.438    20884158.616   -14175786.392 9 -12979770.351 7
 90  3 10  5 19 14.0800000  0  4G 6G12G11G13
  21585343.167    21585345.627     6301707.006 9   3444008.584 8
  21960907.090    21960908.397   -34675140.066 9  43588933.997 8
  21237523.301    21237524.773     2811935.138 9     53796.178 7
  20880922.458    20880922.283   -14192791.454 9 -12993021.004 7
 90  3 10  5 19 29.0800000  0  4G 6G12G11G13
  21592846.394    21592846.607     6341127.488 9   3474725.849 8
  21953119.775    21953120.902   -34716064.958 9  43557044.485 9
  21242175.091    21242176.004     2836383.152 9     72846.583 7
  20877707.870    20877708.929   -14209685.243 8 -13006184.990 7
 90  3 10  5 19 44.0800000  0  4G 6G12G11G13
  21600370.446    21600373.434     6380670.058 9   3505538.236 8
  21945344.177    21945347.290   -34756915.797 9  43525212.652 8
  21246839.930    21246840.545     2860898.868 9     91949.740 7
  20874513.747    20874515.435   -14226467.544 9 -13019262.100 7
 90  3 10  5 19 59.0800000  0  4G 6G12G11G13
  21607917.966    21607920.074     6420334.536 9   3536445.607 8
  21937585.652    21937587.250   -34797692.136 9  43493438.909 8
  21251518.307    21251518.134     2885482.078 9    111105.490 7
  20871340.197    20871343.082   -14243138.695 9 -13032252.587 7
 90  3 10  5 20 14.0800000  0  4G 6G12G11G13
  21615487.172    21615491.098     6460120.680 9   3567447.783 9
  21929841.095    21929844.008   -34838393.681 9  43461723.430 8
  21256209.160    21256210.632     2910132.391 9    130313.537 8
  20868190.398    20868191.514   -14259698.608 9 -13045156.415 7
 90  3 10  5 20 29.0800000  0  4G 6G12G11G13
  21623081.940    21623085.744     6500028.260 9   3598544.601 7
  21922109.792    21922112.672   -34879020.137 9  43430066.464 9
  21260912.049    21260913.949     2934849.531 9    149573.626 8
  20865060.038    20865062.717   -14276147.730 9 -13057973.901 8
 90  3 10  5 20 44.0800000  0  4G 6G12G11G13
  21630699.068    21630702.613     6540057.078 9   3629735.885 8
  21914392.785    21914393.753   -34919571.191 9  43398468.266 8
  21265627.786    21265630.288     2959633.214 9    168885.585 8
  20861951.366    20861952.643   -14292485.969 8 -13070704.977 8
 90  3 10  5 20 59.0800000  0  4G 6G12G11G13
  21638339.827    21638341.362     6580206.830 8   3661021.416 7
  21906690.197    21906692.568   -34960046.268 9  43366929.252 9
  21270357.118    21270360.422     2984483.165 9    188249.181 8
  20858862.828    20858866.099   -14308713.220 9 -13083349.577 7
 90  3 10  5 21 14.0800000  0  4G 6G12G11G13
  21646003.738    21646003.614     6620477.410 9   3692401.085 7
  21899002.687    21899005.180   -35000445.131 9  43335449.637 8
  21275098.597    21275101.171     3009399.179 9    207664.265 8
  20855794.433    20855799.383   -14324829.717 9 -13095907.883 7
 90  3 10  5 21 29.0800000  0  4G 6G12G11G13
  21653689.462    21653690.161     6660868.458 9   3723874.610 8
  21891329.687    21891330.435   -35040767.330 9  43304029.740 9
  21279852.441    21279855.773     3034381.012 9    227130.632 7
  20852747.871    20852754.473   -14340835.534 9 -13108379.933 7
 90  3 10  5 21 44.0800000  0  4G 6G12G11G13
  21661399.141    21661399.282     6701379.731 9   3755441.830 7
  21883671.931    21883672.590   -35081012.555 9  43272669.848 8
  21284618.490    21284621.107     3059428.307 9    246648.004 9
  20849723.043    20849726.486   -14356730.804 8 -13120765.840 7
 90  3 10  5 21 59.0800000  0  4G 6G12G11G13
  21669130.384    21669131.440     6742011.174 9   3787102.694 8
  21876028.693    21876029.116   -35121180.308 9  43241370.297 8
  21289397.574    21289400.891     3084540.807 9    266216.173 8
  20846719.666    20846723.312   -14372515.446 9 -13133065.544 8
 90  3 10  5 22 14.0800000  0  4G 6G12G11G13
  21676883.906    21676886.915     6782762.514 9   3818856.967 8
  21868399.237    21868400.532   -35161270.331 9  43210131.337 8
  21294188.994    21294192.182     3109718.094 8    285834.842 8
  20843738.147    20843741.708   -14388189.631 9 -13145279.208 8
 90  3 10  5 22 29.0800000  0  4G 6G12G11G13
  21684660.637    21684665.593     6823633.457 9   3850704.461 8
  21860785.331    21860786.007   -35201282.278 9  43178953.202 9
  21298991.458    21298995.605     3134959.946 9    305503.825 9
  20840776.227    20840781.081   -14403753.551 9 -13157406.908 8
 90  3 10  5 22 44.0800000  0  4G 6G12G11G13
  21692460.630    21692465.306     6864623.675 9   3882644.895 8
  21853184.885    21853187.250   -35241215.858 9  43147836.136 8
  21303808.075    21303810.507     3160266.035 9    325222.848 8
  20837834.169    20837840.643   -14419207.247 9 -13169448.736 8
 90  3 10  5 22 59.0800000  0  4G 6G12G11G13
  21700285.010    21700287.590     6905733.105 9   3914678.240 9
  21845600.846    21845604.008   -35281070.645 9  43116780.456 8
  21308635.154    21308637.597     3185636.107 9    344991.756 8
  20834914.962    20834918.985   -14434550.650 8 -13181404.606 8
 90  3 10  5 23 14.0800000  0  4G 6G12G11G13
  21708130.232    21708133.121     6946961.473 9   3946804.249 9
  21838031.118    21838035.218   -35320846.296 9  43085786.460 9
  21313474.722    21313478.083     3211069.969 9    364810.346 8
  20832016.330    20832019.167   -14449784.103 8 -13193274.801 7
 90  3 10  5 23 29.0800000  0  4G 6G12G11G13
  21715999.430    21716000.773     6988308.403 9   3979022.619 8
  21830478.415    21830481.303   -35360542.429 9  43054854.413 9
  21318327.043    21318328.986     3236567.292 9    384678.394 9
  20829137.231    20829139.332   -14464907.154 9 -13205058.984 8
 90  3 10  5 23 44.0800000  0  4G 6G12G11G13
  21723890.157    21723889.961     7029773.769 9   4011333.278 8
  21822939.265    21822942.409   -35400158.767 9  43023984.549 9
  21323189.907    21323193.195     3262127.790 9    404595.670 9
  20826280.248    20826282.911   -14479920.101 9 -13216757.359 6
 90  3 10  5 23 59.0800000  0  4G 6G12G11G13
  21731801.373    21731804.561     7071357.334 9   4043736.023 8
  21815415.580    21815418.346   -35439694.873 9  42993177.194 8
  21328066.438    21328070.513     3287751.183 9    424561.959 9
  20823446.105    20823447.003   -14494823.247 8 -13228370.187 7
 90  3 10  5 24 14.0800000  0  4G 6G12G11G13
  21739738.075    21739739.861     7113058.829 9   4076230.689 7
  21807908.009    21807909.988   -35479150.338 9  42962432.686 8
  21332954.284    21332957.303     3313437.185 9    444577.035 9
  20820631.096    20820631.014   -14509616.745 8 -13239897.589 7
 90  3 10  5 24 29.0800000  0  4G 6G12G11G13
  21747695.381    21747698.233     7154878.095 9   4108817.125 8
  21800414.787    21800417.435   -35518524.803 9  42931751.290 9
  21337853.667    21337857.515     3339185.648 8    464640.760 8
  20817835.846    20817838.481   -14524300.533 8 -13251339.499 7
 90  3 10  5 24 44.0800000  0  4G 6G12G11G13
  21755675.067    21755677.898     7196814.823 9   4141495.073 8
  21792936.711    21792940.459   -35557817.909 9  42901133.293 9
  21342764.596    21342768.601     3364996.131 8    484752.820 8
  20815062.448    20815065.521   -14538874.538 8 -13262695.849 7
 90  3 10  5 24 59.0800000  0  4G 6G12G11G13
  21763677.741    21763681.695     7238868.737 9   4174264.366 8
  21785475.167    21785479.426   -35597029.476 9  42870578.846 9
  21347688.161    21347691.478     3390868.318 9    504912.956 8
  20812310.518    20812314.139   -14553339.100 8 -13273966.906 7
 90  3 10  5 25 14.0800000  0  4G 6G12G11G13
  21771704.104    21771705.388     7281039.664 9   4207124.820 8
  21778029.313    21778033.040   -35636159.062 9  42840088.274 9
  21352622.945    21352627.234     3416802.015 9    525121.017 8
  20809579.048    20809582.738   -14567694.029 8 -13285152.560 8
 90  3 10  5 25 29.0800000  0  4G 6G12G11G13
  21779751.994    21779752.364     7323327.296 8   4240076.209 8
  21770599.608    21770602.808   -35675206.155 9  42809661.965 9
  21357570.304    21357573.780     3442796.892 8    545376.761 8
  20806867.679    20806872.472   -14581939.586 9 -13296252.981 8
 90  3 10  5 25 44.0800000  0  4G 6G12G11G13
  21787821.649    21787822.485     7365731.393 9   4273118.362 8
  21763184.854    21763187.304   -35714170.457 9  42779300.169 9
  21362529.628    21362531.257     3468852.685 9    565679.975 7
  20804178.621    20804182.888   -14596075.786 9 -13307268.199 7
 90  3 10  5 25 59.0800000  0  4G 6G12G11G13
  21795913.456    21795912.894     7408251.828 9   4306251.149 7
  21755785.535    21755788.224   -35753051.575 9  42749003.210 8
  21367500.426    21367500.353     3494969.114 9    586030.449 8
  20801508.062    20801512.990   -14610102.992 9 -13318198.474 9
 90  3 10  5 26 14.0800000  0  4G 6G12G11G13
  21804025.280    21804027.215     7450888.146 9   4339474.241 8
  21748402.514    21748405.920   -35791849.140 9  42718771.347 8
  21372481.915    21372481.353     3521146.041 9    606428.067 7
  20798859.841    20798864.832   -14624021.287 8 -13329043.886 8
 90  3 10  5 26 29.0800000  0  4G 6G12G11G13
  21812160.679    21812162.894     7493640.213 9   4372787.519 8
  21741035.212    21741038.013   -35830562.889 9  42688604.797 8
  21377474.478    21377474.376     3547383.065 9    626872.532 7
  20796230.613    20796236.590   -14637830.608 8 -13339804.378 8
 90  3 10  5 26 44.0800000  0  4G 6G12G11G13
  21820317.226    21820319.277     7536507.671 9   4406190.737 8
  21733683.915    21733686.690   -35869192.322 9  42658503.936 8
  21382478.874    21382477.985     3573679.735 9    647363.458 7
  20793624.993    20793629.650   -14651531.151 8 -13350480.113 8
 90  3 10  5 26 59.0800000  0  4G 6G12G11G13
  21828497.371    21828497.940     7579490.437 8   4439683.808 8
  21726350.820    21726353.152   -35907737.292 9  42628468.911 8
  21387494.232    21387494.787     3600035.823 9    667900.672 8
  20791037.425    20791042.277   -14665122.956 8 -13361071.109 8
 90  3 10  5 27 14.0800000  0  4G 6G12G11G13
  21836697.897    21836699.583     7622588.152 8   4473266.451 8
  21719030.845    21719033.457   -35946197.223 9  42598500.150 8
  21392520.036    21392521.522     3626451.159 9    688484.053 8
  20788472.480    20788476.249   -14678605.817 8 -13371577.227 8
 90  3 10  5 27 29.0800000  0  4G 6G12G11G13
  21844922.127    21844922.919     7665800.541 9   4506938.417 8
  21711728.404    21711732.060   -35984571.906 9  42568597.802 9
  21397558.031    21397558.902     3652925.484 9    709113.402 7
  20785928.364    20785931.210   -14691980.153 8 -13381998.750 8
 90  3 10  5 27 44.0800000  0  4G 6G12G11G13
  21853166.598    21853168.205     7709127.422 9   4540699.606 8
  21704441.941    21704445.508   -36022861.048 9  42538762.094 9
  21402606.457    21402607.641     3679458.515 9    729788.487 9
  20783403.960    20783407.244   -14705245.961 8 -13392335.731 8
 90  3 10  5 27 59.0800000  0  4G 6G12G11G13
  21861433.598    21861436.021     7752568.463 9   4574549.772 8
  21697171.924    21697175.405   -36061064.224 9  42508993.408 9
  21407666.001    21407668.346     3706049.989 9    750509.134 9
  20780899.544    20780903.174   -14718403.376 8 -13402588.257 9
 90  3 10  5 28 14.0800000  0  4G 6G12G11G13
  21869721.490    21869724.413     7796123.417 9   4608488.698 8
  21689919.854    21689922.555   -36099180.982 9  42479292.035 9
  21412737.209    21412738.808     3732699.606 9    771275.063 9
  20778417.422    20778419.228   -14731452.591 9 -13412756.468 6
 90  3 10  5 28 29.0800000  0  4G 6G12G11G13
  21878031.268    21878032.944     7839792.151 9   4642516.277 8
  21682683.117    21682686.432   -36137211.021 9  42449658.239 9
  21417819.919    21417822.007     3759406.990 9    792086.015 8
  20775954.989    20775957.344   -14744393.670 9 -13422840.416 7
 90  3 10  5 28 44.0800000  0  4G 6G12G11G13
  21886361.651    21886365.447     7883574.215 9   4676632.153 8
  21675461.829    21675465.790   -36175154.007 9  42420092.291 9
  21422912.461    21422915.393     3786171.918 9    812941.804 9
  20773513.559    20773515.337   -14757226.539 9 -13432840.050 7
 90  3 10  5 28 59.0800000  0  4G 6G12G11G13
  21894715.229    21894718.425     7927469.589 8   4710836.328 8
  21668259.620    21668262.234   -36213009.659 9  42390594.379 9
  21428016.951    21428020.884     3812994.195 9    833842.263 9
  20771092.230    20771092.699   -14769951.520 9 -13442755.609 8
 90  3 10  5 29 14.0800000  0  4G 6G12G11G13
  21903091.065    21903092.013     7971477.689 9   4745128.362 8
  21661071.576    21661073.448   -36250777.607 9  42361164.835 9
  21433132.216    21433134.330     3839873.564 9    854787.218 9
  20768690.882    20768693.232   -14782568.802 9 -13452587.241 7
 90  3 10  5 29 29.0800000  0  4G 6G12G11G13
  21911486.268    21911487.645     8015598.528 9   4779508.234 8
  21653901.674    21653903.977   -36288457.334 9  42331804.019 9
  21438256.309    21438259.340     3866809.657 9    875776.377 9
  20766309.693    20766312.383   -14795078.425 9 -13462334.991 8
 90  3 10  5 29 44.0800000  0  4G 6G12G11G13
  21919903.465    21919906.196     8059831.782 9   4813975.696 8
  21646749.869    21646750.090   -36326048.394 9  42302512.296 8
  21443393.752    21443395.596     3893802.224 8    896809.541 8
  20763949.200    20763953.136   -14807480.411 8 -13471998.853 8
 90  3 10  5 29 59.0800000  0  4G 6G12G11G13
  21928342.004    21928343.662     8104177.105 9   4848530.498 8
  21639612.193    21639614.918   -36363550.555 9  42273289.835 8
  21448540.927    21448542.526     3920850.894 8    917886.429 8
  20761609.694    20761612.238   -14819774.865 8 -13481578.919 7
 90  3 10  5 30 14.0800000  0  4G 6G12G11G13
  21936801.126    21936803.285     8148634.195 9   4883172.390 8
  21632493.499    21632494.776   -36400963.578 9  42244136.844 7
  21453698.676    21453701.621     3947955.386 9    939006.809 8
  20759289.720    20759292.975   -14831962.063 8 -13491075.415 7
 90  3 10  5 30 29.0800000  0  4G 6G12G11G13
  21945281.813    21945285.487     8193202.913 8   4917901.247 8
  21625390.729    21625392.042   -36438287.076 9  42215053.586 9
  21458867.715    21458869.529     3975115.527 9    960170.546 7
  20756991.626    20756994.627   -14844041.931 9 -13500488.280 8
 90  3 10  5 30 44.0800000  0  4G 6G12G11G13
  21953784.164    21953786.895     8237882.977 8   4952716.876 8
  21618303.754    21618307.349   -36475520.554 9  42186040.497 8
  21464046.397    21464048.455     4002331.096 9    981377.479 8
  20754713.062    20754714.728   -14856014.628 8 -13509817.622 8
 90  3 10  5 30 59.0800000  0  4G 6G12G11G13
  21962307.836    21962311.288     8282674.089 8   4987619.037 8
  21611235.871    21611239.281   -36512663.703 9  42157097.770 8
  21469236.599    21469237.712     4029601.708 9   1002627.307 9
  20752454.458    20752460.291   -14867880.126 9 -13519063.475 7
 90  3 10  5 31 14.0800000  0  4G 6G12G11G13
  21970853.636    21970854.592     8327575.945 9   5022607.483 8
  21604183.322    21604188.678   -36549716.115 9  42128225.758 9
  21474436.130    21474438.274     4056927.068 8   1023919.811 8
  20750215.716    20750221.680   -14879638.723 9 -13528225.990 8
 90  3 10  5 31 29.0800000  0  4G 6G12G11G13
  21979420.378    21979419.196     8372588.235 9   5057681.990 8
  21597149.812    21597154.762   -36586677.405 9  42099424.765 9
  21479646.536    21479648.996     4084306.905 9   1045254.753 8
  20748000.100    20748003.344   -14891290.481 9 -13537305.275 7
 90  3 10  5 31 44.0800000  0  4G 6G12G11G13
  21988006.123    21988006.801     8417710.792 9   5092842.411 8
  21590132.529    21590139.012   -36623547.223 9  42070695.045 9
  21484866.329    21484869.562     4111741.070 9   1066632.035 9
  20745803.822    20745807.058   -14902835.538 8 -13546301.423 7
 90  3 10  5 31 59.0800000  0  4G 6G12G11G13
  21996612.558    21996614.410     8462943.321 9   5128088.527 9
  21583135.389    21583140.555   -36660325.249 9  42042036.875 8
  21490096.597    21490100.687     4139229.192 9   1088051.364 8
  20743628.661    20743628.868   -14914273.878 9 -13555214.394 7
 90  3 10  5 32 14.0800000  0  4G 6G12G11G13
  22005240.708    22005242.638     8508285.488 9   5163420.074 7
  21576155.057    21576158.617   -36697011.161 9  42013450.442 9
  21495336.609    21495341.057     4166771.038 9   1109512.534 8
  20741471.714    20741473.506   -14925605.692 9 -13564044.369 7
 90  3 10  5 32 29.0800000  0  4G 6G12G11G13
  22013889.887    22013891.022     8553737.064 8   5198836.894 8
  21569191.979    21569196.119   -36733604.698 9  41984936.023 9
  21500588.513    21500592.445     4194366.369 8   1131015.386 9
  20739335.510    20739338.608   -14936831.050 9 -13572791.409 7
 90  3 10  5 32 44.0800000  0  4G 6G12G11G13
  22022559.398    22022561.605     8599297.686 7   5234338.661 8
  21562246.263    21562250.256   -36770105.407 9  41956493.923 9
  21505850.374    21505854.537     4222014.847 8   1152559.648 9
  20737218.076    20737222.016   -14947950.164 9 -13581455.652 7
 90  3 10  5 32 59.0800000  0  4G 6G12G11G13
  22031250.215    22031251.784     8644967.252 9   5269925.351 8
  21555318.837    21555321.487   -36806512.935 9  41928124.434 8
  21511122.524    21511124.870     4249716.077 8   1174145.015 9
  20735122.180    20735126.986   -14958963.086 9 -13590037.145 7
 90  3 10  5 33 14.0800000  0  4G 6G12G11G13
  22039962.009    22039963.271     8690745.289 9   5305596.568 9
  21548408.981    21548411.546   -36842826.886 9  41899827.854 8
  21516402.859    21516406.908     4277469.845 9   1195771.321 9
  20733047.097    20733050.438   -14969870.141 9 -13598536.145 8
 90  3 10  5 33 29.0800000  0  4G 6G12G11G13
  22048693.428    22048696.008     8736631.680 9   5341352.193 8
  21541516.969    21541518.036   -36879046.994 9  41871604.405 9
  21521695.173    21521697.531     4305275.940 9   1217438.409 9
  20730991.292    20730996.147   -14980671.378 9 -13606952.667 7
 90  3 10  5 33 44.0800000  0  4G 6G12G11G13
  22057447.491    22057450.130     8782626.028 9   5377191.944 9
  21534643.049    21534643.699   -36915172.933 9  41843454.326 8
  21526995.654    21527000.089     4333134.120 9   1239146.080 8
  20728958.118    20728959.741   -14991366.940 9 -13615286.861 7
 90  3 10  5 33 59.0800000  0  4G 6G12G11G13
  22066220.322    22066222.135     8828728.063 9   5413115.609 9
  21527785.802    21527786.972   -36951204.268 9  41815377.969 9
  21532307.471    21532311.090     4361044.074 9   1260894.096 8
  20726942.769    20726946.042   -15001956.884 9 -13623538.754 8
 90  3 10  5 34 14.0800000  0  4G 6G12G11G13
  22075013.056    22075017.146     8874937.533 9   5449122.995 9
  21520946.541    21520948.394   -36987140.575 9  41787375.649 8
  21537627.887    21537631.475     4389005.634 9   1282682.320 9
  20724947.001    20724951.346   -15012441.420 9 -13631708.500 7
 90  3 10  5 34 29.0800000  0  4G 6G12G11G13
  22083827.034    22083829.148     8921254.136 9   5485213.853 8
  21514126.467    21514129.360   -37022981.682 9  41759447.521 9
  21542959.192    21542962.137     4417018.354 9   1304510.419 8
  20722970.913    20722974.398   -15022820.407 9 -13639796.007 7
 90  3 10  5 34 44.0800000  0  4G 6G12G11G13
  22092660.047    22092663.043     8967677.661 9   5521388.037 8
  21507324.478    21507327.168   -37058727.044 9  41731594.010 8
  21548299.640    21548301.869     4445081.975 9   1326378.187 9
  20721016.272    20721019.471   -15033094.042 9 -13647801.424 8
 90  3 10  5 34 59.0800000  0  4G 6G12G11G13
  22101514.305    22101516.807     9014207.778 9   5557645.277 9
  21500539.603    21500544.289   -37094376.282 8  41703815.378 8
  21553649.617    21553652.506     4473196.272 9   1348285.440 8
  20719080.710    20719085.068   -15043262.823 8 -13655725.139 8
 90  3 10  5 35 14.0800000  0  4G 6G12G11G13
  22110388.057    22110391.096     9060844.165 8   5593985.304 9
  21493772.982    21493777.449   -37129929.038 9  41676111.941 8
  21559009.570    21559011.813     4501361.165 9   1370232.123 8
  20717165.772    20717169.825   -15053326.585 9 -13663567.016 8
 90  3 10  5 35 29.0800000  0  4G 6G12G11G13
  22119283.245    22119285.639     9107586.607 8   5630407.982 8
  21487026.253    21487030.951   -37165384.980 9  41648483.949 9
  21564379.795    21564381.137     4529576.129 9   1392217.815 8
  20715271.107    20715274.172   -15063285.614 9 -13671327.292 6
 90  3 10  5 35 44.0800000  0  4G 6G12G11G13
  22128198.403    22128200.640     9154434.741 8   5666913.009 8
  21480296.426    21480301.681   -37200743.912 8  41620931.539 8
  21569758.635    21569760.049     4557840.900 9   1414242.319 8
  20713395.380    20713397.659   -15073139.991 9 -13679006.008 7
 90  3 10  5 35 59.0800000  0  4G 6G12G11G13
  22137133.262    22137137.418     9201388.306 9   5703500.188 8
  21473586.868    21473590.845   -37236005.419 9  41593455.046 9
  21575146.403    21575147.089     4586155.325 9   1436305.506 9
  20711540.515    20711542.852   -15082889.606 9 -13686603.098 7
 90  3 10  5 36 14.0800000  0  4G 6G12G11G13
  22146089.108    22146091.924     9248447.049 9   5740169.353 7
  21466895.009    21466899.243   -37271169.141 9  41566054.770 9
  21580543.145    21580544.975     4614519.017 9   1458407.077 8
  20709705.712    20709707.726   -15092534.509 9 -13694118.590 7
 90  3 10  5 36 29.0800000  0  4G 6G12G11G13
  22155064.055    22155066.507     9295610.722 8   5776920.274 9
  21460223.489    21460225.338   -37306234.728 9  41538730.951 8
  21585949.415    21585951.732     4642931.832 9   1480546.917 9
  20707889.557    20707892.920   -15102075.101 9 -13701552.813 7
 90  3 10  5 36 44.0800000  0  4G 6G12G11G13
  22164059.293    22164061.616     9342878.872 9   5813752.618 8
  21453569.235    21453571.200   -37341201.734 9  41511483.942 8
  21591365.745    21591367.590     4671393.473 9   1502724.801 9
  20706096.063    20706095.225   -15111511.292 9 -13708905.677 8
 90  3 10  5 36 59.0800000  0  4G 6G12G11G13
  22173072.654    22173076.622     9390251.293 9   5850666.194 9
  21446935.995    21446937.086   -37376069.970 9  41484313.891 8
  21596790.760    21596793.235     4699903.596 9   1524940.460 9
  20704319.923    20704318.689   -15120843.656 9 -13716177.627 7
 90  3 10  5 37 14.0800000  0  4G 6G12G11G13
  22182108.537    22182110.116     9437727.690 9   5887660.797 8
  21440319.858    21440319.985   -37410839.091 9  41457221.068 8
  21602224.819    21602226.835     4728462.005 9   1547193.752 8
  20702563.478    20702564.200   -15130072.110 9 -13723368.644 6
 90  3 10  5 37 29.0800000  0  4G 6G12G11G13
  22191161.263    22191164.873     9485307.751 9   5924736.161 9
  21433722.438    21433723.132   -37445508.680 9  41430205.810 9
  21607667.794    21607670.997     4757068.360 9   1569484.408 9
  20700827.229    20700828.411   -15139196.827 9 -13730478.800 7
 90  3 10  5 37 44.0800000  0  4G 6G12G11G13
  22200235.536    22200237.888     9532991.194 9   5961892.082 8
  21427144.599    21427144.398   -37480078.420 9  41403268.358 8
  21613120.312    21613123.802     4785722.489 9   1591812.293 8
  20699109.945    20699113.556   -15148217.931 9 -13737508.227 8
 90  3 10  5 37 59.0800000  0  4G 6G12G11G13
  22209329.108    22209331.882     9580777.667 9   5999128.288 9
  21420584.515    21420586.718   -37514547.926 9  41376409.009 9
  21618583.862    21618585.363     4814424.142 8   1614177.202 8
  20697411.598    20697415.575   -15157135.435 9 -13744456.942 7
 90  3 10  5 38 14.0800000  0  4G 6G12G11G13
  22218443.013    22218444.048     9628666.985 9   6036444.623 7
  21414045.667    21414048.109   -37548916.781 9  41349628.107 9
  21624054.224    21624056.625     4843172.993 9   1636578.892 9
  20695735.198    20695736.545   -15165949.418 9 -13751324.967 6
 90  3 10  5 38 29.0800000  0  4G 6G12G11G13
  22227574.975    22227576.189     9676658.841 9   6073840.872 8
  21407524.297    21407526.147   -37583184.591 9  41322925.928 9
  21629533.685    21629535.672     4871968.618 9   1659017.050 8
  20694077.120    20694081.408   -15174660.087 9 -13758112.503 8
 90  3 10  5 38 44.0800000  0  4G 6G12G11G13
  22236726.756    22236728.490     9724752.819 9   6111316.692 8
  21401022.570    21401025.084   -37617351.106 9  41296302.676 9
  21635022.435    21635023.792     4900810.925 9   1681491.577 9
  20692438.929    20692441.312   -15183267.766 9 -13764819.775 7
 90  3 10  5 38 59.0800000  0  4G 6G12G11G13
  22245897.817    22245900.325     9772948.763 9   6148871.961 8
  21394539.207    21394542.677   -37651415.977 9  41269758.633 9
  21640519.926    21640521.526     4929699.720 9   1704002.344 7
  20690820.510    20690822.810   -15191772.470 9 -13771446.809 8
 90  3 10  5 39 14.0800000  0  4G 6G12G11G13
  22255089.148    22255090.785     9821246.262 9   6186506.371 8
  21388075.045    21388079.211   -37685378.797 9  41243294.096 8
  21646025.947    21646027.875     4958634.656 9   1726549.052 8
  20689222.257    20689224.891   -15200174.360 9 -13777993.733 7
 90  3 10  5 39 29.0800000  0  4G 6G12G11G13
  22264299.312    22264300.725     9869645.066 9   6224219.718 9
  21381631.037    21381635.339   -37719239.237 9  41216909.330 9
  21651540.681    21651542.666     4987615.357 9   1749131.422 9
  20687642.074    20687643.777   -15208473.728 9 -13784460.764 7
 90  3 10  5 39 44.0800000  0  4G 6G12G11G13
  22273527.402    22273530.613     9918144.886 8   6262011.781 8
  21375207.361    21375210.576   -37752996.969 9  41190604.605 8
  21657063.900    21657066.073     5016641.670 9   1771749.334 7
  20686083.622    20686083.271   -15216670.523 9 -13790847.848 7
 90  3 10  5 39 59.0800000  0  4G 6G12G11G13
  22282776.121    22282780.783     9966745.348 9   6299882.271 7
  21368803.185    21368806.086   -37786651.744 9  41164380.109 9
  21662595.190    21662598.122     5045713.430 9   1794402.665 7
  20684542.594    20684542.801   -15224764.764 9 -13797155.038 7
 90  3 10  5 40 14.0800000  0  4G 6G12G11G13
  22292044.501    22292047.116    10015446.222 9   6337830.993 8
  21362418.822    21362421.924   -37820203.105 9  41138236.200 8
  21668136.554    21668139.384     5074830.310 9   1817091.141 7
  20683021.968    20683023.016   -15232756.779 9 -13803382.556 7
 90  3 10  5 40 29.0800000  0  4G 6G12G11G13
  22301330.837    22301332.765    10064247.110 9   6375857.654 8
  21356053.954    21356057.393   -37853650.754 9  41112173.103 8
  21673685.258    21673687.803     5103992.039 8   1839814.577 7
  20681520.079    20681521.633   -15240646.535 9 -13809530.410 7
 90  3 10  5 40 44.0800000  0  4G 6G12G11G13
  22310637.315    22310637.697    10113147.836 8   6413962.106 7
  21349709.795    21349711.119   -37886994.330 9  41086191.110 8
  21679243.134    21679245.149     5133198.252 8   1862572.680 8
  20680039.070    20680039.763   -15248434.275 9 -13815598.780 7
 90  3 10  5 40 59.0800000  0  4G 6G12G11G13
  22319960.776    22319962.061    10162148.056 9   6452144.066 8
  21343385.086    21343387.423   -37920233.528 9  41060290.442 8
  21684809.826    21684812.599     5162448.676 9   1885365.211 8
  20678576.010    20678578.316   -15256120.180 9 -13821587.801 7
 90  3 10  5 41 14.0800000  0  4G 6G12G11G13
  22329303.943    22329306.022    10211247.396 9   6490403.272 8
  21337080.142    21337081.712   -37953368.078 9  41034471.334 8
  21690384.372    21690385.687     5191743.049 9   1908192.012 7
  20677132.970    20677134.552   -15263704.604 9 -13827497.731 6
 90  3 10  5 41 29.0800000  0  4G 6G12G11G13
  22338665.838    22338668.047    10260445.582 8   6528739.503 8
  21330795.405    21330797.245   -37986397.455 9  41008734.166 8
  21695967.533    21695968.902     5221081.219 9   1931052.916 7
  20675708.297    20675711.132   -15271187.449 8 -13833328.517 6
 90  3 10  5 41 44.0800000  0  4G 6G12G11G13
  22348045.846    22348049.891    10309742.301 8   6567152.544 8
  21324529.855    21324532.248   -38019321.328 9  40983079.208 8
  21701559.295    21701561.080     5250462.852 9   1953947.698 8
  20674304.455    20674304.201   -15278569.174 9 -13839080.479 7
 90  3 10  5 41 59.0800000  0  4G 6G12G11G13
  22357445.174    22357449.442    10359137.251 8   6605642.105 8
  21318284.962    21318286.546   -38052139.367 9  40957506.717 9
  21707158.409    21707160.038     5279887.782 9   1976876.225 8
  20672918.764    20672920.767   -15285849.648 9 -13844753.574 7
 90  3 10  5 42 14.0800000  0  4G 6G12G11G13
  22366863.806    22366867.023    10408630.070 9   6644207.934 8
  21312058.682    21312061.287   -38084851.161 9  40932017.012 8
  21712766.011    21712766.952     5309355.685 9   1999838.235 8
  20671552.709    20671554.606   -15293029.224 9 -13850348.050 7
 90  3 10  5 42 29.0800000  0  4G 6G12G11G13
  22376301.470    22376304.551    10458220.505 9   6682849.827 9
  21305854.382    21305857.648   -38117456.427 9  40906610.307 8
  21718381.424    21718384.398     5338866.273 9   2022833.516 9
  20670205.699    20670208.855   -15300107.894 9 -13855863.887 7
 90  3 10  5 42 44.0800000  0  4G 6G12G11G13
  22385756.106    22385759.872    10507908.298 8   6721567.596 7
  21299670.236    21299672.028   -38149954.874 9  40881286.845 8
  21724005.552    21724007.452     5368419.217 9   2045861.780 9
  20668878.738    20668878.754   -15307085.712 9 -13861301.135 7
 90  3 10  5 42 59.0800000  0  4G 6G12G11G13
  22395230.700    22395232.788    10557692.987 9   6760360.867 8
  21293506.240    21293508.591   -38182346.121 9  40856046.909 7
  21729637.149    21729639.521     5398014.344 9   2068922.915 8
  20667570.566    20667570.914   -15313963.060 9 -13866660.106 8
 90  3 10  5 43 14.0800000  0  4G 6G12G11G13
  22404721.367    22404723.582    10607574.416 9   6799229.502 8
  21287363.130    21287364.428   -38214629.812 9  40830890.776 7
  21735277.018    21735278.975     5427651.426 8   2092016.734 8
  20666280.354    20666282.168   -15320739.939 9 -13871940.774 8
 90  3 10  5 43 29.0800000  0  4G 6G12G11G13
  22414233.537    22414233.328    10657552.160 9   6838173.205 8
  21281239.529    21281241.991   -38246805.699 9  40805818.664 8
  21740924.913    21740928.388     5457329.983 9   2115142.868 9
  20665008.488    20665012.087   -15327416.488 9 -13877143.292 7
 90  3 10  5 43 44.0800000  0  4G 6G12G11G13
  22423761.207    22423762.291    10707626.000 8   6877191.766 7
  21275137.374    21275139.213   -38278873.365 9  40780830.872 8
  21746579.305    21746582.837     5487049.831 9   2138301.209 9
  20663757.150    20663760.037   -15333993.023 9 -13882267.839 7
 90  3 10  5 43 59.0800000  0  4G 6G12G11G13
  22433308.193    22433310.494    10757795.510 9   6916284.885 7
  21269055.303    21269059.126   -38310832.571 9  40755927.589 8
  21752243.384    21752246.157     5516810.856 9   2161491.612 9
  20662524.701    20662526.905   -15340469.542 9 -13887314.470 7
 90  3 10  5 44 14.0800000  0  4G 6G12G11G13
  22442873.609    22442875.644    10808060.528 9   6955452.425 8
  21262993.440    21262996.127   -38342682.927 9  40731109.155 8
  21757913.516    21757916.948     5546612.733 9   2184713.851 9
  20661312.745    20661312.687   -15346846.261 9 -13892283.336 7
 90  3 10  5 44 29.0800000  0  4G 6G12G11G13
  22452457.342    22452459.465    10858420.590 9   6994694.027 8
  21256954.034    21256956.595   -38374424.012 9  40706375.830 9
  21763591.159    21763595.894     5576455.269 8   2207967.769 9
  20660118.373    20660119.055   -15353123.297 9 -13897174.508 6
 90  3 10  5 44 44.0800000  0  4G 6G12G11G13
  22462057.908    22462059.987    10908875.435 8   7034009.493 8
  21250934.601    21250937.408   -38406055.522 9  40681727.926 8
  21769277.418    21769283.083     5606338.262 8   2231253.188 8
  20658943.694    20658943.748   -15359300.724 9 -13901988.064 6
 90  3 10  5 44 59.0800000  0  4G 6G12G11G13
  22471677.385    22471680.316    10959424.720 9   7073398.540 8
  21244936.664    21244937.719   -38437577.080 9  40657165.662 9
  21774972.364    21774976.195     5636261.373 8   2254569.897 8
  20657785.462    20657787.507   -15365378.782 9 -13906724.214 6
 90  3 10  5 45 14.0800000  0  4G 6G12G11G13
  22481315.055    22481317.056    11010068.185 9   7112860.976 8
  21238960.526    21238961.529   -38468988.501 9  40632689.245 9
  21780674.047    21780678.868     5666224.473 9   2277917.770 8
  20656646.275    20656649.401   -15371357.811 9 -13911383.206 6
 90  3 10  5 45 29.0800000  0  4G 6G12G11G13
  22490970.448    22490971.119    11060805.448 9   7152396.517 7
  21233003.325    21233007.067   -38500289.350 9  40608298.967 9
  21786384.130    21786386.832     5696227.161 9   2301296.491 8
  20655527.769    20655529.918   -15377237.839 8 -13915965.046 7
 90  3 10  5 45 44.0800000  0  4G 6G12G11G13
  22500642.810    22500643.810    11111636.223 8   7192004.892 8
  21227068.068    21227070.058   -38531479.328 9  40583995.090 8
  21792100.553    21792104.557     5726269.019 9   2324705.734 8
  20654427.969    20654429.038   -15383019.079 9 -13920469.897 6
 90  3 10  5 45 59.0800000  0  4G 6G12G11G13
  22510332.288    22510334.330    11162560.128 9   7231685.855 8
  21221153.562    21221156.607   -38562558.027 9  40559777.925 9
  21797825.045    21797828.407     5756349.836 9   2348145.342 8
  20653346.097    20653349.152   -15388701.612 9 -13924897.834 6
 90  3 10  5 46 14.0800000  0  4G 6G12G11G13
  22520041.169    22520042.289    11213576.874 8   7271439.157 8
  21215259.484    21215263.703   -38593525.107 9  40535647.733 8
  21803557.737    21803559.697     5786469.493 9   2371615.217 8
  20652283.956    20652286.952   -15394285.577 9 -13929248.962 6
 90  3 10  5 46 29.0800000  0  4G 6G12G11G13
  22529767.463    22529769.429    11264686.182 8   7311264.568 8
  21209387.340    21209391.604   -38624380.336 9  40511604.705 8
  21809296.440    21809298.311     5816627.808 9   2395115.221 8
  20651238.797    20651241.746   -15399771.109 8 -13933523.392 6
 90  3 10  5 46 44.0800000  0  4G 6G12G11G13
  22539509.490    22539512.192    11315887.682 9   7351161.835 8
  21203538.376    21203542.622   -38655123.379 9  40487649.094 8
  21815042.296    21815045.771     5846824.450 9   2418645.076 9
  20650214.060    20650216.292   -15405158.657 8 -13937721.458 7
 90  3 10  5 46 59.0800000  0  4G 6G12G11G13
  22549270.106    22549272.744    11367181.078 9   7391130.708 9
  21197709.733    21197713.182   -38685753.922 9  40463781.162 9
  21820796.480    21820797.722     5877059.215 9   2442204.631 9
  20649207.319    20649210.384   -15410448.194 9 -13941843.174 7
 90  3 10  5 47 14.0800000  0  4G 6G12G11G13
  22559048.665    22559051.067    11418565.977 9   7431170.879 8
  21191902.260    21191905.519   -38716271.575 9  40440001.184 8
  21826556.589    21826560.206     5907331.827 9   2465793.688 8
  20648220.801    20648223.770   -15415639.646 9 -13945888.444 7
 90  3 10  5 47 29.0800000  0  4G 6G12G11G13
  22568844.566    22568846.568    11470042.114 9   7471282.161 9
  21186117.311    21186120.727   -38746676.100 9  40416309.344 8
  21832324.908    21832326.982     5937641.958 9   2489411.956 8
  20647251.674    20647253.807   -15420733.373 9 -13949857.583 7
 90  3 10  5 47 44.0800000  0  4G 6G12G11G13
  22578657.832    22578659.834    11521609.102 9   7511464.212 8
  21180354.052    21180355.727   -38776967.083 9  40392705.983 7
  21838099.700    21838101.341     5967989.417 9   2513059.319 9
  20646301.244    20646301.861   -15425729.540 9 -13953750.699 7
 90  3 10  5 47 59.0800000  0  4G 6G12G11G13
  22588487.361    22588489.718    11573266.755 9   7551716.909 9
  21174611.923    21174613.724   -38807144.187 9  40369191.353 9
  21843881.586    21843883.201     5998373.897 9   2536735.539 8
  20645368.651    20645370.228   -15430628.470 9 -13957568.048 8
 90  3 10  5 48 14.0800000  0  4G 6G12G11G13
  22598334.261    22598336.849    11625014.673 9   7592039.957 9
  21168890.780    21168892.789   -38837207.062 9  40345765.731 9
  21849670.670    21849671.869     6028795.190 9   2560440.443 9
  20644455.254    20644456.076   -15435430.138 9 -13961309.607 8
 90  3 10  5 48 29.0800000  0  4G 6G12G11G13
  22608198.653    22608200.797    11676852.481 9   7632433.047 9
  21163191.491    21163194.474   -38867155.185 9  40322429.533 8
  21855466.250    21855467.493     6059253.120 9   2584173.904 8
  20643560.017    20643561.515   -15440134.940 9 -13964975.672 7
 90  3 10  5 48 44.0800000  0  4G 6G12G11G13
  22618079.673    22618082.502    11728779.926 8   7672895.958 9
  21157514.488    21157516.497   -38896988.329 9  40299182.940 8
  21861269.114    21861269.728     6089747.413 9   2607935.690 8
  20642681.969    20642681.749   -15444742.973 9 -13968566.334 7
 90  3 10  5 48 59.0800000  0  4G 6G12G11G13
  22627978.178    22627981.661    11780796.623 9   7713428.442 8
  21151857.488    21151861.834   -38926706.307 9  40276026.086 8
  21867079.019    21867079.719     6120277.789 9   2631725.582 9
  20641822.202    20641825.971   -15449254.370 9 -13972081.698 7
 90  3 10  5 49 14.0800000  0  4G 6G12G11G13
  22637894.099    22637897.151    11832902.280 9   7754030.235 8
  21146224.348    21146227.999   -38956308.677 9  40252959.322 8
  21872895.964    21872897.463     6150843.999 9   2655543.414 8
  20640983.035    20640985.571   -15453669.053 9 -13975521.715 7
 90  3 10  5 49 29.0800000  0  4G 6G12G11G13
  22647826.468    22647829.827    11885096.496 9   7794701.050 9
  21140612.400    21140616.077   -38985795.192 9  40229982.823 8
  21878718.774    21878719.761     6181445.836 9   2679388.999 9
  20640162.172    20640163.230   -15457987.483 9 -13978886.733 7
 90  3 10  5 49 44.0800000  0  4G 6G12G11G13
  22657776.107    22657779.152    11937378.969 9   7835440.638 8
  21135025.576    21135027.784   -39015165.455 9  40207096.917 9
  21884548.140    21884549.840     6212083.090 8   2703262.192 8
  20639357.166    20639360.271   -15462209.932 9 -13982176.936 7
 90  3 10  5 49 59.0800000  0  4G 6G12G11G13
  22667742.394    22667744.002    11989749.309 9   7876248.694 9
  21129459.769    21129459.638   -39044419.175 9  40184301.817 8
  21890385.602    21890387.475     6242755.366 9   2727162.670 8
  20638572.077    20638576.858   -15466336.407 9 -13985392.361 7
 90  3 10  5 50 14.0800000  0  4G 6G12G11G13
  22677723.822    22677726.324    12042207.257 9   7917125.013 8
  21123915.419    21123915.824   -39073556.075 9  40161597.735 8
  21896227.703    21896230.434     6273462.393 9   2751090.234 9
  20637805.087    20637810.192   -15470367.111 9 -13988533.172 8
 90  3 10  5 50 29.0800000  0  4G 6G12G11G13
  22687723.837    22687725.724    12094752.526 9   7958069.369 9
  21118393.233    21118393.188   -39102575.811 9  40138984.947 7
  21902078.174    21902080.718     6304204.057 9   2775044.768 8
  20637056.135    20637062.562   -15474302.100 9 -13991599.390 7
 90  3 10  5 50 44.0800000  0  4G 6G12G11G13
  22697739.592    22697741.593    12147384.702 8   7999081.436 8
  21112892.771    21112893.651   -39131477.929 9  40116463.807 8
  21907933.366    21907937.270     6334980.081 8   2799026.089 8
  20636326.566    20636331.012   -15478141.744 9 -13994591.315 7
 90  3 10  5 50 59.0800000  0  4G 6G12G11G13
  22707771.095    22707773.139    12200103.442 9   8040160.958 8
  21107414.715    21107416.610   -39160262.219 9  40094034.490 9
  21913797.546    21913800.863     6365790.254 8   2823034.016 8
  20635615.060    20635616.475   -15481885.988 9 -13997508.880 7
 90  3 10  5 51 14.0800000  0  4G 6G12G11G13
  22717819.483    22717821.605    12252908.490 9   8081307.724 9
  21101960.306    21101962.928   -39188928.479 9  40071697.155 9
  21919667.835    21919671.610     6396634.311 8   2847068.346 9
  20634920.749    20634922.162   -15485535.182 9 -14000352.388 8
 90  3 10  5 51 29.0800000  0  4G 6G12G11G13
  22727884.297    22727885.167    12305799.470 8   8122521.453 8
  21096527.533    21096529.957   -39217476.340 9  40049452.090 9
  21925544.235    21925546.793     6427511.971 9   2871128.871 9
  20634244.083    20634245.696   -15489089.370 9 -14003121.884 8
 90  3 10  5 51 44.0800000  0  4G 6G12G11G13
  22737965.817    22737966.752    12358776.029 8   8163801.869 8
  21091118.046    21091120.163   -39245905.447 9  40027299.549 9
  21931425.555    21931429.016     6458422.934 9   2895215.325 8
  20633585.598    20633588.894   -15492548.716 9 -14005817.477 8
 90  3 10  5 51 59.0800000  0  4G 6G12G11G13
  22748062.527    22748064.142    12411837.760 9   8205148.661 8
  21085731.659    21085733.350   -39274215.527 9  40005239.750 8
  21937315.076    21937316.646     6489366.999 9   2919327.603 9
  20632945.291    20632948.039   -15495913.488 9 -14008439.364 8
 90  3 10  5 52 14.0800000  0  4G 6G12G11G13
  22758176.443    22758179.324    12464984.499 8   8246561.686 9
  21080365.901    21080369.322   -39302406.156 9  39983273.040 9
  21943209.218    21943211.977     6520344.060 9   2943465.573 9
  20632322.753    20632324.968   -15499184.005 9 -14010987.830 8
 90  3 10  5 52 29.0800000  0  4G 6G12G11G13
  22768306.536    22768309.295    12518215.783 9   8288040.585 8
  21075025.165    21075027.637   -39330476.993 9  39961399.673 8
  21949109.529    21949112.459     6551353.709 9   2967628.937 9
  20631717.303    20631720.451   -15502360.277 9 -14013462.836 7
 90  3 10  5 52 44.0800000  0  4G 6G12G11G13
  22778452.225    22778453.504    12571531.310 9   8329585.151 8
  21069705.852    21069707.383   -39358427.784 9  39939619.812 8
  21955015.976    21955020.008     6582395.738 8   2991817.529 9
  20631130.336    20631133.373   -15505442.516 9 -14015864.575 8
 90  3 10  5 52 59.0800000  0  4G 6G12G11G13
  22788612.697    22788616.666    12624930.687 9   8371195.039 8
  21064409.710    21064411.809   -39386258.334 9  39917933.675 8
  21960928.705    21960933.025     6613469.838 8   3016031.095 9
  20630561.347    20630564.882   -15508430.640 9 -14018192.981 8
 90  3 10  5 53 14.0800000  0  4G 6G12G11G13
  22798791.191    22798793.278    12678413.601 8   8412870.023 8
  21059135.960    21059137.860   -39413968.207 9  39896341.553 8
  21966848.376    21966851.936     6644575.787 9   3040269.484 9
  20630010.550    20630014.532   -15511325.191 9 -14020448.459 7
 90  3 10  5 53 29.0800000  0  4G 6G12G11G13
  22808984.816    22808985.273    12731979.809 8   8454609.910 7
  21053886.300    21053888.068   -39441557.031 9  39874843.758 9
  21972773.512    21972777.976     6675713.455 9   3064532.603 9
  20629477.991    20629481.525   -15514126.367 8 -14022631.186 8
 90  3 10  5 53 44.0800000  0  4G 6G12G11G13
  22819193.009    22819193.874    12785628.881 8   8496414.368 8
  21048658.796    21048663.486   -39469024.606 9  39853440.444 8
  21978704.916    21978709.564     6706882.471 9   3088820.152 9
  20628963.198    20628965.543   -15516834.361 9 -14024741.304 7
 90  3 10  5 53 59.0800000  0  4G 6G12G11G13
  22829418.036    22829418.169    12839360.452 8   8538283.100 7
  21043455.170    21043459.709   -39496370.581 9  39832131.891 8
  21984641.772    21984646.506     6738082.714 9   3113132.030 8
  20628465.083    20628466.764   -15519449.027 9 -14026778.700 7
 90  3 10  5 54 14.0800000  0  4G 6G12G11G13
  22839657.187    22839658.866    12893174.243 9   8580215.915 8
  21038274.483    21038277.734   -39523594.544 9  39810918.427 8
  21990585.795    21990589.428     6769313.871 9   3137468.005 9
  20627985.924    20627988.087   -15521970.681 9 -14028743.628 7
 90  3 10  5 54 29.0800000  0  4G 6G12G11G13
  22849911.633    22849915.222    12947069.788 9   8622212.424 7
  21033118.707    21033120.481   -39550696.241 9  39789800.226 9
  21996534.986    21996538.360     6800575.716 9   3161827.899 9
  20627522.907    20627525.653   -15524399.531 8 -14030636.246 7
 90  3 10  5 54 44.0800000  0  4G 6G12G11G13
  22860183.838    22860187.706    13001046.848 9   8664272.443 7
  21027984.527    21027986.508   -39577675.294 9  39768777.592 8
  22002488.410    22002493.274     6831868.095 9   3186211.571 9
  20627079.641    20627081.568   -15526735.933 9 -14032456.824 7
 90  3 10  5 54 59.0800000  0  4G 6G12G11G13
  22870471.345    22870476.080    13055105.083 9   8706395.733 7
  21022874.138    21022875.748   -39604531.435 9  39747850.724 9
  22008449.119    22008453.767     6863190.695 9   3210618.805 9
  20626651.689    20626654.122   -15528980.082 9 -14034205.491 8
 90  3 10  5 55 14.0800000  0  4G 6G12G11G13
  22880774.201    22880778.433    13109244.138 8   8748582.003 8
  21017786.535    21017788.632   -39631264.442 9  39727019.805 8
  22014416.053    22014420.243     6894543.228 9   3235049.352 9
  20626242.740    20626244.218   -15531132.034 9 -14035882.332 7
 90  3 10  5 55 29.0800000  0  4G 6G12G11G13
  22891093.639    22891095.976    13163463.621 9   8790830.948 8
  21012722.501    21012725.698   -39657874.086 9  39706285.025 7
  22020388.452    22020391.040     6925925.474 9   3259503.058 9
  20625850.055    20625852.374   -15533192.174 9 -14037487.623 7
 90  3 10  5 55 44.0800000  0  4G 6G12G11G13
  22901426.494    22901429.409    13217763.235 8   8833142.343 7
  21007682.235    21007682.877   -39684359.871 9  39685646.745 8
  22026365.774    22026367.704     6957337.196 9   3283979.745 9
  20625475.596    20625477.744   -15535160.515 9 -14039021.400 8
 90  3 10  5 55 59.0800000  0  4G 6G12G11G13
  22911774.395    22911777.748    13272142.616 9   8875515.884 8
  21002665.941    21002668.471   -39710721.572 9  39665105.161 8
  22032347.847    22032351.379     6988778.259 9   3308479.281 9
  20625118.801    20625120.647   -15537037.304 9 -14040483.824 7
 90  3 10  5 56 14.0800000  0  4G 6G12G11G13
  22922137.341    22922139.384    13326601.453 9   8917951.346 7
  20997672.698    20997675.303   -39736958.956 9  39644660.455 8
  22038337.187    22038339.862     7020248.384 9   3333001.456 8
  20624779.251    20624780.205   -15538822.601 9 -14041874.947 7
 90  3 10  5 56 29.0800000  0  4G 6G12G11G13
  22932514.903    22932516.841    13381139.414 9   8960448.447 6
  20992703.723    20992706.572   -39763071.643 9  39624312.906 9
  22044331.266    22044332.065     7051747.356 9   3357546.118 8
  20624457.945    20624458.571   -15540516.612 9 -14043194.949 7
 90  3 10  5 56 44.0800000  0  4G 6G12G11G13
  22942907.542    22942909.851    13435756.058 9   9003006.853 8
  20987758.530    20987761.080   -39789059.360 9  39604062.734 8
  22050330.867    22050332.539     7083274.925 9   3382113.059 8
  20624152.526    20624153.571   -15542119.512 9 -14044443.950 7
 90  3 10  5 56 59.0800000  0  4G 6G12G11G13
  22953315.389    22953317.119    13490451.103 9   9045626.373 8
  20982837.649    20982837.999   -39814921.844 9  39583910.165 8
  22056334.975    22056337.193     7114830.885 8   3406702.118 8
  20623864.737    20623865.139   -15543631.272 9 -14045621.950 6
 90  3 10  5 57 14.0800000  0  4G 6G12G11G13
  22963738.721    22963740.415    13545224.227 9   9088306.698 8
  20977940.929    20977940.808   -39840658.773 9  39563855.393 8
  22062346.152    22062347.282     7146415.079 9   3431313.151 8
  20623593.676    20623594.997   -15545052.394 9 -14046729.298 8
 90  3 10  5 57 29.0800000  0  4G 6G12G11G13
  22974176.390    22974178.177    13600074.996 9   9131047.546 8
  20973066.164    20973067.434   -39866269.782 9  39543898.751 8
  22068362.925    22068363.495     7178027.055 8   3455945.858 8
  20623340.263    20623344.167   -15546383.018 9 -14047766.155 9
 90  3 10  5 57 44.0800000  0  4G 6G12G11G13
  22984628.869    22984631.314    13655003.067 9   9173848.637 7
  20968217.120    20968218.945   -39891754.655 9  39524040.414 9
  22074383.631    22074384.346     7209666.603 9   3480600.061 7
  20623104.162    20623108.123   -15547623.472 9 -14048732.742 8
 90  3 10  5 57 59.0800000  0  4G 6G12G11G13
  22995096.923    22995098.773    13710008.204 9   9216709.771 8
  20963390.955    20963393.892   -39917112.946 9  39504280.701 9
  22080409.676    22080410.490     7241333.647 9   3505275.696 8
  20622885.399    20622888.971   -15548773.841 9 -14049629.122 8
 90  3 10  5 58 14.0800000  0  4G 6G12G11G13
  23005578.709    23005581.739    13765089.813 9   9259630.496 8
  20958589.312    20958592.805   -39942344.481 9  39484619.765 9
  22086439.929    22086441.671     7273027.985 9   3529972.601 8
  20622684.378    20622687.973   -15549834.273 9 -14050455.432 7
 90  3 10  5 58 29.0800000  0  4G 6G12G11G13
  23016075.130    23016077.186    13820247.812 9   9302610.733 8
  20953812.192    20953815.251   -39967448.844 9  39465057.918 7
  22092475.932    22092476.145     7304749.247 9   3554690.476 8
  20622500.215    20622501.129   -15550804.934 9 -14051211.778 8
 90  3 10  5 58 44.0800000  0  4G 6G12G11G13
  23026585.138    23026587.598    13875481.763 8   9345650.158 8
  20949058.555    20949063.203   -39992425.744 9  39445595.401 8
  22098516.959    22098519.230     7336497.235 8   3579429.158 9
  20622332.433    20622334.401   -15551686.002 9 -14051898.325 7
 90  3 10  5 58 59.0800000  0  4G 6G12G11G13
  23037109.271    23037112.909    13930791.320 9   9388748.490 8
  20944329.629    20944332.651   -40017275.007 9  39426232.337 8
  22104563.650    22104566.209     7368271.910 9   3604188.616 9
  20622181.070    20622183.637   -15552477.665 9 -14052515.213 7
 90  3 10  5 59 14.0800000  0  4G 6G12G11G13
  23047648.743    23047653.226    13986176.101 8   9431905.453 9
  20939624.793    20939626.502   -40041996.225 9  39406969.062 7
  22110614.063    22110617.795     7400072.859 8   3628968.562 8
  20622046.219    20622049.856   -15553180.100 9 -14053062.561 8
 90  3 10  5 59 29.0800000  0  4G 6G12G11G13
  23058202.045    23058205.598    14041635.765 9   9475120.762 9
  20934946.594    20934947.756   -40066589.235 9  39387805.695 8
  22116671.646    22116674.477     7431899.775 8   3653768.737 8
  20621929.591    20621932.588   -15553793.345 9 -14053540.415 7
 90  3 10  5 59 44.0800000  0  4G 6G12G11G13
  23068770.191    23068774.624    14097169.843 8   9518394.076 8
  20930291.114    20930293.393   -40091053.722 9  39368742.447 8
  22122732.461    22122735.021     7463752.512 9   3678589.045 8
  20621830.350    20621831.812   -15554317.943 9 -14053949.176 8
 90  3 10  5 59 59.0800000  0  4G 6G12G11G13
  23079352.226    23079355.750    14152778.215 8   9561725.255 9
  20925660.514    20925662.321   -40115389.244 9  39349779.694 8
  22128799.359    22128802.146     7495630.915 9   3703429.350 9
  20621747.847    20621751.231   -15554754.265 9 -14054289.150 7
 90  3 10  6  0 14.0800000  0  4G 6G12G11G13
  23089947.975    23089951.371    14208460.319 9   9605113.908 9
  20921053.848    20921055.591   -40139595.705 9  39330917.527 7
  22134869.990    22134873.308     7527534.599 8   3728289.339 8
  20621682.372    20621682.981   -15555102.341 9 -14054560.369 7
 90  3 10  6  0 29.0800000  0  4G 6G12G11G13
  23100559.352    23100559.898    14264215.852 9   9648559.773 8
  20916472.712    20916474.823   -40163672.606 9  39312156.299 8
  22140946.017    22140948.506     7559463.428 9   3753168.940 9
  20621632.294    20621633.713   -15555362.089 9 -14054762.746 7
 90  3 10  6  0 44.0800000  0  4G 6G12G11G13
  23111183.039    23111184.460    14320044.499 8   9692062.594 9
  20911914.884    20911918.200   -40187619.672 9  39293496.243 9
  22147026.379    22147030.170     7591417.318 9   3778068.065 9
  20621599.219    20621599.912   -15555533.771 9 -14054896.515 7
 90  3 10  6  0 59.0800000  0  4G 6G12G11G13
  23121821.187    23121822.809    14375946.064 9   9735622.229 9
  20907382.762    20907385.836   -40211436.554 9  39274937.644 8
  22153112.251    22153115.296     7623396.093 9   3802986.584 9
  20621583.582    20621585.511   -15555617.544 9 -14054961.788 6
 90  3 10  6  1 14.0800000  0  4G 6G12G11G13
  23132471.777    23132473.290    14431919.755 8   9779238.056 9
  20902875.947    20902877.445   -40235123.418 9  39256480.354 9
  22159201.685    22159205.060     7655399.019 9   3827923.923 9
  20621583.494    20621585.189   -15555614.106 9 -14054959.111 8
 90  3 10  6  1 29.0800000  0  4G 6G12G11G13
  23143138.185    23143140.450    14487965.775 8   9822910.259 9
  20898393.179    20898396.347   -40258679.403 9  39238125.038 8
  22165297.845    22165298.488     7687426.490 9   3852880.390 8
  20621600.579    20621602.485   -15555522.950 9 -14054888.080 6
 90  3 10  6  1 44.0800000  0  4G 6G12G11G13
  23153815.847    23153818.829    14544083.268 8   9866638.152 8
  20893935.573    20893937.679   -40282104.701 9  39219871.566 9
  22171397.052    22171398.524     7719477.796 9   3877855.427 8
  20621636.302    20621636.345   -15555344.563 8 -14054749.068 7
 90  3 10  6  1 59.0800000  0  4G 6G12G11G13
  23164507.997    23164511.016    14600272.091 9   9910421.638 9
  20889503.017    20889504.852   -40305398.839 9  39201720.286 8
  22177501.568    22177502.540     7751552.922 9   3902849.044 9
  20621686.131    20621687.634   -15555079.168 9 -14054542.266 7
 90  3 10  6  2 14.0800000  0  4G 6G12G11G13
  23175213.048    23175217.875    14656531.872 9   9954260.408 9
  20885096.336    20885096.997   -40328561.556 9  39183671.409 8
  22183608.861    22183610.245     7783651.687 9   3927861.077 8
  20621753.073    20621753.129   -15554727.035 9 -14054267.880 7
 90  3 10  6  2 29.0800000  0  4G 6G12G11G13
  23185932.623    23185936.977    14712862.201 9   9998154.152 8
  20880711.605    20880714.967   -40351592.476 9  39165725.237 7
  22189722.120    22189723.419     7815773.883 9   3952891.371 9
  20621835.607    20621839.578   -15554288.353 9 -14053926.037 6
 90  3 10  6  2 44.0800000  0  4G 6G12G11G13
  23196666.664    23196668.800    14769262.785 8  10042102.635 9
  20876355.044    20876356.153   -40374491.367 9  39147881.955 7
  22195838.369    22195839.742     7847919.214 9   3977939.692 8
  20621936.733    20621937.252   -15553763.195 9 -14053516.820 7
 90  3 10  6  2 59.0800000  0  4G 6G12G11G13
  23207412.116    23207414.596    14825733.251 9  10086105.586 9
  20872021.157    20872023.117   -40397257.901 9  39130141.803 8
  22201960.471    22201961.698     7880087.490 9   4003005.887 8
  20622052.383    20622054.902   -15553151.935 8 -14053040.497 8
 90  3 10  6  3 14.0800000  0  4G 6G12G11G13
  23218172.064    23218173.034    14882273.299 8  10130162.742 9
  20867714.544    20867716.393   -40419891.913 9  39112504.912 8
  22208086.179    22208087.866     7912278.597 9   4028089.879 8
  20622183.688    20622187.384   -15552454.767 9 -14052497.239 7
 90  3 10  6  3 29.0800000  0  4G 6G12G11G13
  23228944.160    23228945.468    14938882.564 9  10174273.829 9
  20863432.181    20863434.431   -40442393.118 9  39094971.509 8
  22214215.622    22214217.065     7944492.141 9   4053191.358 8
  20622332.691    20622336.600   -15551671.635 8 -14051887.010 7
 90  3 10  6  3 44.0800000  0  4G 6G12G11G13
  23239729.349    23239730.627    14995560.549 8  10218438.475 8
  20859174.910    20859178.031   -40464761.237 9  39077541.799 7
  22220349.515    22220351.645     7976727.924 9   4078310.151 8
  20622498.370    20622502.839   -15550802.873 9 -14051210.044 7
 90  3 10  6  3 59.0800000  0  4G 6G12G11G13
  23250527.881    23250529.159    15052307.003 8  10262656.445 9
  20854944.792    20854947.594   -40486995.887 9  39060216.087 8
  22226487.773    22226490.145     8008985.733 9   4103446.109 9
  20622680.992    20622682.586   -15549848.924 9 -14050466.712 7
 90  3 10  6  4 14.0800000  0  4G 6G12G11G13
  23261339.786    23261340.698    15109121.533 9  10306927.482 9
  20850740.240    20850742.201   -40509096.884 8  39042994.529 9
  22232628.648    22232632.824     8041265.401 9   4128599.097 8
  20622878.623    20622881.314   -15548809.663 9 -14049656.910 7
 90  3 10  6  4 29.0800000  0  4G 6G12G11G13
  23272163.252    23272165.818    15166003.766 8  10351251.265 8
  20846560.215    20846563.005   -40531063.918 8  39025877.363 8
  22238776.650    22238779.336     8073566.750 9   4153768.994 8
  20623092.650    20623094.230   -15547685.490 9 -14048780.931 7
 90  3 10  6  4 44.0800000  0  4G 6G12G11G13
  23282999.553    23283001.682    15222953.335 8  10395627.521 9
  20842404.951    20842408.464   -40552896.735 9  39008864.783 9
  22244926.825    22244930.745     8105889.510 9   4178955.573 8
  20623322.746    20623324.899   -15546476.504 9 -14047838.857 9
 90  3 10  6  4 59.0800000  0  4G 6G12G11G13
  23293849.927    23293852.615    15279969.931 9  10440056.009 9
  20838275.785    20838279.441   -40574595.053 9  38991957.004 8
  22251082.354    22251086.359     8138233.556 9   4204158.736 8
  20623568.525    20623570.999   -15545182.856 9 -14046830.811 8
 90  3 10  6  5 14.0800000  0  4G 6G12G11G13
  23304713.016    23304714.931    15337053.180 8  10484536.446 9
  20834172.795    20834175.087   -40596158.600 9  38975154.238 8
  22257241.045    22257244.149     8170598.611 9   4229378.253 8
  20623831.589    20623833.440   -15543804.704 8 -14045756.934 7
 90  3 10  6  5 29.0800000  0  4G 6G12G11G13
  23315588.246    23315591.713    15394202.675 9  10529068.509 7
  20830096.172    20830096.522   -40617587.231 9  38958456.610 8
  22263403.658    22263406.803     8202984.320 9   4254613.881 9
  20624108.626    20624110.106   -15542342.418 9 -14044617.473 7
 90  3 10  6  5 44.0800000  0  4G 6G12G11G13
  23326475.845    23326479.505    15451418.117 9  10573651.957 8
  20826043.963    20826044.632   -40638880.689 9  38941864.306 8
  22269570.233    22269574.007     8235390.631 8   4279865.525 8
  20624403.281    20624406.609   -15540796.195 9 -14043412.623 7
 90  3 10  6  5 59.0800000  0  4G 6G12G11G13
  23337376.561    23337378.931    15508699.092 8  10618286.461 9
  20822017.586    20822019.701   -40660038.496 9  38925377.687 7
  22275740.542    22275744.790     8267817.349 9   4305133.086 8
  20624712.997    20624715.840   -15539166.244 9 -14042142.531 7
 90  3 10  6  6 14.0800000  0  4G 6G12G11G13
  23348288.787    23348292.132    15566045.313 9  10662971.814 8
  20818017.178    20818017.452   -40681060.388 9  38908996.986 8
  22281915.746    22281918.232     8300264.309 9   4330416.428 9
  20625039.096    20625042.488   -15537452.666 9 -14040807.270 7
 90  3 10  6  6 29.0800000  0  4G 6G12G11G13
  23359213.597    23359216.993    15623456.325 8  10707707.651 9
  20814042.352    20814043.338   -40701946.190 9  38892722.335 8
  22288093.339    22288097.171     8332731.181 9   4355715.278 9
  20625380.929    20625382.990   -15535655.651 8 -14039406.999 7
 90  3 10  6  6 44.0800000  0  4G 6G12G11G13
  23370151.094    23370153.780    15680931.787 9  10752493.706 9
  20810094.350    20810095.147   -40722695.634 9  38876553.914 8
  22294275.425    22294279.658     8365217.787 8   4381029.511 9
  20625739.529    20625741.471   -15533775.607 8 -14037942.029 7
 90  3 10  6  6 59.0800000  0  4G 6G12G11G13
  23381100.316    23381104.119    15738471.317 9  10797329.687 9
  20806171.797    20806172.458   -40743308.407 9  38860492.028 7
  22300462.061    22300464.320     8397723.984 9   4406359.026 9
  20626112.190    20626115.271   -15531812.729 8 -14036412.531 8
 90  3 10  6  7 14.0800000  0  4G 6G12G11G13
  23392062.675    23392065.125    15796074.589 9  10842215.324 9
  20802275.725    20802277.405   -40763784.361 9  38844536.754 9
  22306651.990    22306653.933     8430249.462 8   4431703.544 8
  20626501.787    20626503.886   -15529767.057 9 -14034818.501 8
 90  3 10  6  7 29.0800000  0  4G 6G12G11G13
  23403035.592    23403038.465    15853741.140 9  10887150.280 8
  20798405.791    20798407.021   -40784123.201 9  38828688.292 8
  22312844.693    22312847.467     8462794.087 9   4457062.996 9
  20626906.337    20626908.143   -15527638.968 8 -14033160.250 8
 90  3 10  6  7 44.0800000  0  4G 6G12G11G13
  23414021.376    23414024.154    15911470.747 9  10932134.380 8
  20794560.744    20794562.114   -40804324.573 9  38812946.970 8
  22319040.287    22319044.550     8495357.567 8   4482437.137 9
  20627325.905    20627329.611   -15525428.407 9 -14031437.735 8
 90  3 10  6  7 59.0800000  0  4G 6G12G11G13
  23425018.754    23425021.328    15969262.964 9  10977167.263 8
  20790742.499    20790744.262   -40824388.298 9  38797312.896 8
  22325241.534    22325244.264     8527939.638 8   4507825.758 9
  20627762.671    20627765.282   -15523135.789 8 -14029651.266 7
 90  3 10  6  8 14.0800000  0  4G 6G12G11G13
  23436029.293    23436030.091    16027117.385 9  11022248.623 9
  20786950.037    20786953.257   -40844314.134 9  38781786.257 8
  22331445.799    22331447.786     8560540.149 8   4533228.753 9
  20628214.723    20628217.593   -15520761.126 8 -14027800.873 8
 90  3 10  6  8 29.0800000  0  4G 6G12G11G13
  23447050.282    23447051.724    16085033.795 9  11067378.280 9
  20783184.808    20783186.325   -40864101.868 9  38766367.240 8
  22337652.111    22337655.428     8593158.899 8   4558645.950 9
  20628682.628    20628685.082   -15518304.604 9 -14025886.701 8
 90  3 10  6  8 44.0800000  0  4G 6G12G11G13
  23458083.571    23458084.412    16143011.743 9  11112555.887 8
  20779445.739    20779448.392   -40883751.156 9  38751056.096 8
  22343862.185    22343866.019     8625795.755 9   4584077.262 8
  20629166.207    20629167.556   -15515766.610 9 -14023909.032 8
 90  3 10  6  8 59.0800000  0  4G 6G12G11G13
  23469127.219    23469129.277    16201050.847 9  11157781.133 9
  20775732.731    20775735.728   -40903261.779 9  38735853.013 7
  22350076.181    22350079.613     8658450.529 8   4609522.526 8
  20629665.138    20629667.273   -15513147.426 9 -14021868.110 8
 90  3 10  6  9 14.0800000  0  4G 6G12G11G13
  23480183.655    23480186.291    16259150.724 9  11203053.737 9
  20772047.277    20772050.099   -40922633.444 9  38720758.211 8
  22356294.254    22356296.814     8691122.946 8   4634981.554 9
  20630179.452    20630180.389   -15510447.153 9 -14019764.010 8
 90  3 10  6  9 29.0800000  0  4G 6G12G11G13
  23491250.319    23491251.934    16317311.090 9  11248373.484 8
  20768386.131    20768389.830   -40941865.996 9  38705771.809 8
  22362514.904    22362518.222     8723812.832 9   4660454.181 9
  20630708.911    20630710.378   -15507665.953 9 -14017596.832 9
 90  3 10  6  9 44.0800000  0  4G 6G12G11G13
  23502329.905    23502332.149    16375531.442 9  11293739.979 8
  20764752.748    20764756.204   -40960959.064 9  38690894.096 9
  22368737.971    22368741.862     8756520.055 8   4685940.315 9
  20631253.391    20631255.348   -15504804.201 9 -14015366.901 8
 90  3 10  6  9 59.0800000  0  4G 6G12G11G13
  23513419.229    23513422.632    16433811.548 9  11339153.012 8
  20761146.149    20761149.880   -40979912.480 9  38676125.194 8
  22374965.705    22374969.108     8789244.316 8   4711439.727 9
  20631812.831    20631814.247   -15501862.002 9 -14013074.276 7
 90  3 10  6 10 14.0800000  0  4G 6G12G11G13
  23524520.737    23524523.253    16492150.911 9  11384612.235 7
  20757566.427    20757568.836   -40998725.999 9  38661465.302 7
  22381195.888    22381199.634     8821985.379 8   4736952.228 9
  20632388.024    20632388.891   -15498839.535 8 -14010719.114 7
 90  3 10  6 10 29.0800000  0  4G 6G12G11G13
  23535633.829    23535636.280    16550549.247 9  11430117.423 8
  20754013.576    20754015.949   -41017399.401 9  38646914.598 7
  22387430.031    22387433.567     8854743.107 9   4762477.710 9
  20632977.248    20632979.890   -15495737.074 9 -14008301.600 7
 90  3 10  6 10 44.0800000  0  4G 6G12G11G13
  23546757.829    23546760.618    16609006.178 9  11475668.246 8
  20750487.555    20750489.251   -41035932.420 9  38632473.286 7
  22393667.264    22393670.128     8887517.298 9   4788016.035 9
  20633583.473    20633584.953   -15492554.859 9 -14005821.949 7
 90  3 10  6 10 59.0800000  0  4G 6G12G11G13
  23557893.816    23557895.589    16667521.297 9  11521264.419 9
  20746987.983    20746988.119   -41054324.944 9  38618141.449 9
  22399906.465    22399909.622     8920307.885 9   4813567.151 9
  20634204.863    20634204.455   -15489293.023 9 -14003280.233 6
 90  3 10  6 11 14.0800000  0  4G 6G12G11G13
  23569039.160    23569042.156    16726094.246 9  11566905.653 9
  20743514.367    20743514.928   -41072576.601 9  38603919.370 7
  22406149.113    22406152.031     8953114.483 9   4839130.733 9
  20634841.652    20634840.485   -15485951.874 9 -14000676.744 7
 90  3 10  6 11 29.0800000  0  4G 6G12G11G13
  23580196.210    23580199.934    16784724.681 9  11612591.668 8
  20740067.676    20740068.630   -41090687.152 9  38589807.258 8
  22412395.486    22412397.630     8985936.983 9   4864706.714 9
  20635492.263    20635491.911   -15482531.414 9 -13998011.440 7
 90  3 10  6 11 44.0800000  0  4G 6G12G11G13
  23591364.828    23591367.179    16843412.255 8  11658322.230 7
  20736647.847    20736650.363   -41108656.363 9  38575805.277 8
  22418644.238    22418646.250     9018775.092 9   4890294.860 8
  20636158.213    20636158.493   -15479031.989 9 -13995284.613 8
 90  3 10  6 11 59.0800000  0  4G 6G12G11G13
  23602543.549    23602545.870    16902156.558 9  11704096.980 7
  20733255.199    20733256.511   -41126484.050 9  38561913.587 7
  22424896.533    22424898.179     9051628.753 9   4915895.114 8
  20636838.157    20636839.381   -15475453.733 9 -13992496.363 7
 90  3 10  6 12 14.0800000  0  4G 6G12G11G13
  23613733.725    23613734.923    16960957.244 9  11749915.683 8
  20729888.709    20729891.071   -41144169.852 9  38548132.434 7
  22431151.439    22431153.285     9084497.695 9   4941507.277 8
  20637534.185    20637535.552   -15471797.127 9 -13989647.064 7
 90  3 10  6 12 29.0800000  0  4G 6G12G11G13
  23624933.578    23624934.542    17019813.916 9  11795777.986 8
  20726550.771    20726553.147   -41161713.626 9  38534461.958 8
  22437408.423    22437411.254     9117381.637 9   4967131.124 7
  20638245.351    20638247.434   -15468062.264 9 -13986736.795 7
 90  3 10  6 12 44.0800000  0  4G 6G12G11G13
  23636143.936    23636145.779    17078726.219 8  11841683.657 8
  20723240.374    20723240.931   -41179115.071 9  38520902.388 7
  22443668.726    22443670.872     9150280.419 8   4992766.538 8
  20638969.941    20638972.939   -15464249.293 9 -13983765.647 8
 90  3 10  6 12 59.0800000  0  4G 6G12G11G13
  23647365.011    23647365.788    17137693.777 9  11887632.387 7
  20719955.774    20719957.728   -41196373.998 9  38507453.855 7
  22449931.796    22449932.816     9183193.953 9   5018413.449 8
  20639710.842    20639714.256   -15460358.329 9 -13980733.754 8
 90  3 10  6 13 14.0800000  0  4G 6G12G11G13
  23658596.554    23658598.047    17196716.211 8  11933623.883 7
  20716698.004    20716700.472   -41213490.294 9  38494116.467 7
  22456197.779    22456199.657     9216121.961 9   5044071.622 8
  20640465.596    20640469.897   -15456389.598 9 -13977641.241 7
 90  3 10  6 13 29.0800000  0  4G 6G12G11G13
  23669837.835    23669839.227    17255793.098 9  11979657.786 7
  20713467.623    20713471.533   -41230463.690 9  38480890.439 8
  22462466.474    22462468.434     9249064.246 9   5069740.935 8
  20641234.201    20641239.961   -15452343.322 9 -13974488.301 8
 90  3 10  6 13 44.0800000  0  4G 6G12G11G13
  23681090.649    23681091.661    17314924.195 9  12025733.954 7
  20710263.922    20710267.945   -41247293.910 9  38467775.984 8
  22468738.412    22468739.666     9282020.766 9   5095421.326 8
  20642019.003    20642023.789   -15448219.676 9 -13971275.083 7
 90  3 10  6 13 59.0800000  0  4G 6G12G11G13
  23692351.881    23692354.448    17374108.996 8  12071851.951 8
  20707089.344    20707092.523   -41263980.822 9  38454773.212 8
  22475012.706    22475014.716     9314991.179 8   5121112.565 8
  20642818.944    20642820.984   -15444019.073 9 -13968001.875 8
 90  3 10  6 14 14.0800000  0  4G 6G12G11G13
  23703624.355    23703626.686    17433347.253 8  12118011.612 7
  20703942.416    20703944.967   -41280523.973 9  38441882.451 8
  22481288.764    22481291.123     9347975.337 9   5146814.504 8
  20643633.625    20643634.977   -15439741.598 9 -13964668.770 7
 90  3 10  6 14 29.0800000  0  4G 6G12G11G13
  23714907.763    23714909.484    17492638.493 8  12164212.548 7
  20700822.094    20700824.749   -41296923.333 9  38429103.725 7
  22487567.573    22487572.496     9380972.989 9   5172526.967 8
  20644462.814    20644463.879   -15435387.399 9 -13961275.860 7
 90  3 10  6 14 44.0800000  0  4G 6G12G11G13
  23726200.850    23726203.601    17551982.364 9  12210454.496 8
  20697729.646    20697730.672   -41313178.654 9  38416437.236 7
  22493849.579    22493853.188     9413983.947 9   5198249.796 9
  20645305.568    20645307.637   -15430956.978 9 -13957823.572 8
 90  3 10  6 14 59.0800000  0  4G 6G12G11G13
  23737503.114    23737504.722    17611378.526 8  12256737.185 7
  20694663.838    20694665.384   -41329289.622 9  38403883.225 8
  22500134.395    22500137.968     9447007.997 8   5223982.808 9
  20646164.178    20646166.275   -15426450.463 9 -13954312.002 6
 90  3 10  6 15 14.0800000  0  4G 6G12G11G13
  23748815.175    23748819.174    17670826.598 7  12303060.328 7
  20691625.389    20691626.201   -41345256.125 9  38391441.781 8
  22506421.851    22506424.946     9480045.053 9   5249725.976 8
  20647035.693    20647038.420   -15421867.837 9 -13950741.114 8
 90  3 10  6 15 29.0800000  0  4G 6G12G11G13
  23760137.647    23760142.467    17730326.190 8  12349423.644 7
  20688614.614    20688616.167   -41361077.906 9  38379113.098 8
  22512709.202    22512714.767     9513094.866 9   5275479.069 8
  20647921.719    20647923.342   -15417209.456 9 -13947111.216 7
 90  3 10  6 15 44.0800000  0  4G 6G12G11G13
  23771470.140    23771473.229    17789876.998 7  12395826.841 8
  20685629.327    20685632.421   -41376754.649 8  38366897.447 6
  22519001.835    22519006.009     9546157.277 8   5301241.964 8
  20648822.826    20648824.465   -15412475.290 9 -13943422.249 7
 90  3 10  6 15 59.0800000  0  4G 6G12G11G13
  23782812.866    23782816.506    17849478.566 7  12442269.590 7
  20682674.912    20682677.080   -41392286.198 9  38354794.957 7
  22525295.372    22525299.698     9579232.122 9   5327014.566 9
  20649737.184    20649739.424   -15407665.784 9 -13939674.591 8
 90  3 10  6 16 14.0800000  0  4G 6G12G11G13
  23794163.685    23794166.634    17909130.532 7  12488751.627 6
  20679746.928    20679748.601   -41407672.393 9  38342805.722 8
  22531593.055    22531596.351     9612319.310 9   5352796.783 9
  20650666.108    20650670.667   -15402781.171 9 -13935868.394 8
 90  3 10  6 16 29.0800000  0  4G 6G12G11G13
  23805525.431    23805526.524    17968832.547 8  12535272.646 6
  20676847.370    20676849.796   -41422912.928 9  38330929.978 8
  22537891.948    22537894.427     9645418.506 9   5378588.360 9
  20651611.145    20651612.241   -15397821.753 9 -13932003.919 7
 90  3 10  6 16 44.0800000  0  4G 6G12G11G13
  23816895.259    23816898.005    18028584.193 7  12581832.345 7
  20673974.067    20673975.766   -41438007.589 9  38319167.897 7
  22544191.952    22544195.698     9678529.629 8   5404389.229 8
  20652568.773    20652571.186   -15392787.584 9 -13928081.176 6
 90  3 10  6 16 59.0800000  0  4G 6G12G11G13
  23828276.218    23828275.928    18088385.190 8  12628430.513 6
  20671129.160    20671131.264   -41452956.152 9  38307519.657 7
  22550495.654    22550498.201     9711652.401 9   5430199.206 8
  20653540.855    20653543.767   -15387678.919 9 -13924100.401 8
 90  3 10  6 17 14.0800000  0  3G12G11G13
  20668312.175    20668313.491   -41467758.432 9  38295985.406 7
  22556801.130    22556802.812     9744786.767 8   5456018.198 8
  20654526.523    20654531.094   -15382495.931 9 -13920061.704 8
 90  3 10  6 17 29.0800000  0  4G 3G12G11G13
                  23852261.515   -56059852.770 2
  20665523.043    20665523.268   -41482414.296 8  38284565.254 8
  22563109.144    22563109.996     9777932.501 9   5481846.043 8
  20655526.746    20655529.576   -15377238.923 9 -13915965.352 7
 90  3 10  6 17 44.0800000  0  4G 3G12G11G13
                  23863678.086   -56139795.302 2
  20662762.285    20662763.712   -41496923.478 9  38273259.396 7
  22569418.066    22569419.164     9811089.279 9   5507682.491 8
  20656540.760    20656543.590   -15371908.217 9 -13911811.550 7
 90  3 10  6 17 59.0800000  0  4G 3G12G11G13
                  23875893.810   -56236717.553 1
  20660028.856    20660030.786   -41511285.777 9  38262068.020 7
  22575728.749    22575730.662     9844256.852 9   5533527.346 8
  20657569.892    20657571.842   -15366503.914 9 -13907600.405 7
 90  3 10  6 18 14.0800000  0  4G 3G12G11G13
                  23887143.164   -56316660.158 1
  20657325.338    20657325.735   -41525501.023 9  38250991.198 8
  22582042.688    22582044.541     9877435.175 8   5559380.589 8
  20658612.350    20658614.095   -15361025.960 9 -13903331.869 7
 90  3 10  6 18 29.0800000  0  3G12G11G13
  20654648.163    20654650.121   -41539569.013 8  38240029.132 8
  22588357.697    22588360.558     9910624.130 8   5585242.098 9
  20659668.470    20659670.745   -15355474.770 9 -13899006.258 7
 90  3 10  6 18 44.0800000  0  4G 3G12G11G13
                  23169913.863   -56409578.934 7
  20651999.618    20652000.546   -41553489.612 9  38229181.887 8
  22594674.565    22594677.131     9943823.543 8   5611111.745 9
  20660739.542    20660740.170   -15349850.655 9 -13894623.827 7
 90  3 10  6 18 59.0800000  0  4G 3G12G11G13
  23164040.461    23164042.979   -56440197.211 9  71628687.263 9
  20649377.831    20649381.421   -41567262.577 9  38218449.700 8
  22600994.928    22600996.317     9977033.142 7   5636989.340 9
  20661822.923    20661824.535   -15344154.038 9 -13890184.900 7
 90  3 10  6 19 14.0800000  0  4G 3G12G11G13
  23158226.930    23158228.346   -56470751.944 9  71604878.403 8
  20646783.804    20646788.282   -41580887.583 9  38207832.784 7
  22607315.350    22607318.780    10010252.866 8   5662874.817 9
  20662921.423    20662922.728   -15338384.750 9 -13885689.351 7
 90  3 10  6 19 29.0800000  0  4G 3G12G11G13
  23152423.830    23152426.191   -56501243.500 9  71581118.762 8
  20644220.285    20644222.443   -41594364.577 9  38197331.224 8
  22613639.186    22613642.040    10043482.388 8   5688767.923 8
  20664032.529    20664033.073   -15332543.281 9 -13881137.560 7
 90  3 10  6 19 44.0800000  0  4G 3G12G11G13
  23146632.535    23146635.555   -56531671.835 9  71557408.392 8
  20641683.207    20641686.298   -41607693.311 9  38186945.185 7
  22619965.090    22619968.056    10076721.593 9   5714668.590 9
  20665157.742    20665159.166   -15326629.719 8 -13876529.592 8
 90  3 10  6 19 59.0800000  0  4G 3G12G11G13
  23140854.771    23140857.740   -56562036.968 9  71533747.273 8
  20639176.639    20639177.582   -41620873.611 9  38176674.816 8
  22626292.099    22626293.853    10109970.321 9   5740576.679 9
  20666296.998    20666296.779   -15320644.280 9 -13871865.600 7
 90  3 10  6 20 14.0800000  0  4G 3G12G11G13
  23135087.429    23135090.698   -56592338.846 8  71510135.432 9
  20636697.858    20636698.587   -41633905.347 8  38166520.206 7
  22632621.230    22632623.167    10143228.379 9   5766492.032 8
  20667450.742    20667449.667   -15314587.017 9 -13867145.649 8
 90  3 10  6 20 29.0800000  0  4G 3G12G11G13
  23129334.797    23129336.114   -56622577.565 9  71486572.801 7
  20634245.550    20634248.838   -41646788.428 9  38156481.444 8
  22638952.300    22638954.290    10176495.661 9   5792414.573 9
  20668616.833    20668617.194   -15308458.234 9 -13862369.969 7
 90  3 10  6 20 44.0800000  0  4G 3G12G11G13
  23123593.121    23123593.630   -56652753.176 9  71463059.341 9
  20631823.175    20631825.007   -41659522.543 9  38146558.762 8
  22645284.537    22645287.281    10209772.008 9   5818344.187 8
  20669795.693    20669796.826   -15302258.149 9 -13857538.738 6
 90  3 10  6 20 59.0800000  0  4G 3G12G11G13
  23117860.794    23117863.548   -56682865.607 9  71439595.118 8
  20629426.444    20629430.964   -41672107.421 9  38136752.357 8
  22651618.831    22651619.674    10243057.236 9   5844280.722 8
  20670988.894    20670991.187   -15295987.144 9 -13852652.232 8
 90  3 10  6 21 14.0800000  0  4G 3G12G11G13
  23112143.362    23112145.409   -56712915.142 8  71416179.908 8
  20627060.191    20627063.623   -41684542.911 9  38127062.365 7
  22657954.489    22657956.974    10276351.223 9   5870224.079 9
  20672196.475    20672198.536   -15289645.247 9 -13847710.492 8
 90  3 10  6 21 29.0800000  0  4G 3G12G11G13
  23106437.115    23106439.692   -56742901.484 9  71392813.953 9
  20624722.269    20624724.944   -41696828.875 9  38117488.888 8
  22664291.866    22664292.954    10309653.707 9   5896174.068 8
  20673416.667    20673419.048   -15283232.690 9 -13842713.691 7
 90  3 10  6 21 44.0800000  0  4G 3G12G11G13
  23100741.348    23100743.889   -56772824.906 9  71369497.011 7
  20622414.169    20622415.856   -41708965.166 9  38108032.036 7
  22670630.133    22670631.890    10342964.382 9   5922130.431 8
  20674651.085    20674652.623   -15276749.612 9 -13837661.939 7
 90  3 10  6 21 59.0800000  0  4G 3G12G11G13
  23095058.603    23095060.671   -56802685.397 9  71346229.117 8
  20620132.941    20620133.857   -41720951.584 8  38098691.966 8
  22676971.012    22676972.833    10376283.202 9   5948093.143 8
  20675896.973    20675898.823   -15270196.390 9 -13832555.527 8
 90  3 10  6 22 14.0800000  0  4G 3G12G11G13
  23089387.944    23089390.318   -56832482.956 9  71323010.245 8
  20617880.388    20617882.376   -41732787.935 9  38089468.827 7
  22683312.185    22683314.289    10409610.028 9   5974062.101 8
  20677156.554    20677161.501   -15263573.257 9 -13827394.658 7
 90  3 10  6 22 29.0800000  0  4G 3G12G11G13
  23083730.775    23083734.273   -56862217.578 9  71299840.442 8
  20615655.882    20615658.127   -41744474.006 9  38080362.793 7
  22689655.442    22689657.665    10442944.701 9   6000037.175 8
  20678429.819    20678434.269   -15256880.330 9 -13822179.380 8
 90  3 10  6 22 44.0800000  0  4G 3G12G11G13
  23078085.677    23078087.265   -56891889.390 9  71276719.570 8
  20613461.310    20613461.897   -41756009.734 9  38071373.923 7
  22696000.461    22696002.374    10476287.029 9   6026018.226 8
  20679716.922    20679719.370   -15250117.925 9 -13816909.977 8
 90  3 10  6 22 59.0800000  0  4G 3G12G11G13
  23072451.618    23072453.744   -56921498.377 8  71253647.655 9
  20611293.125    20611296.430   -41767394.951 9  38062502.315 7
  22702346.977    22702349.392    10509636.863 9   6052005.112 8
  20681016.201    20681020.703   -15243286.300 9 -13811586.627 7
 90  3 10  6 23 14.0800000  0  4G 3G12G11G13
  23066828.114    23066831.498   -56951044.622 9  71230624.632 8
  20609156.362    20609157.836   -41778629.385 9  38053748.203 8
  22708695.050    22708695.768    10542993.952 9   6077997.662 7
  20682330.584    20682333.402   -15236385.515 9 -13806209.404 7
 90  3 10  6 23 29.0800000  0  4G 3G12G11G13
  23061217.588    23061220.514   -56980528.100 8  71207650.500 8
  20607046.588    20607048.791   -41789712.895 9  38045111.702 7
  22715043.584    22715044.654    10576358.236 9   6103995.815 7
  20683657.176    20683659.308   -15229415.901 9 -13800778.509 7
 90  3 10  6 23 44.0800000  0  4G 3G12G11G13
  23055619.602    23055620.961   -57009948.831 9  71184725.287 8
  20604966.090    20604968.234   -41800645.337 9  38036592.907 7
  22721394.021    22721396.264    10609729.478 9   6129999.376 8
  20684996.626    20685000.422   -15222377.669 9 -13795294.186 6
 90  3 10  6 23 59.0800000  0  4G 3G12G11G13
  23050033.166    23050035.090   -57039306.745 9  71161849.005 8
  20602915.153    20602916.383   -41811426.493 9  38028192.017 8
  22727746.025    22727747.982    10643107.555 9   6156008.278 8
  20686348.914    20686351.051   -15215270.979 9 -13789756.493 8
 90  3 10  6 24 14.0800000  0  4G 3G12G11G13
  23044457.696    23044460.824   -57068602.032 8  71139021.526 7
  20600892.292    20600893.534   -41822056.035 9  38019909.239 7
  22734099.450    22734101.010    10676492.294 9   6182022.358 7
  20687714.970    20687715.785   -15208096.052 9 -13784165.609 7
 90  3 10  6 24 29.0800000  0  4G 3G12G11G13
  23038894.311    23038896.529   -57097834.678 9  71116242.867 8
  20598898.249    20598902.728   -41832533.981 9  38011744.607 8
  22740452.838    22740453.981    10709883.546 8   6208041.522 8
  20689092.945    20689093.976   -15200853.095 9 -13778521.731 8
 90  3 10  6 24 44.0800000  0  4G 3G12G11G13
  23033345.443    23033344.169   -57127004.885 9  71093512.846 8
  20596933.226    20596935.630   -41842860.204 9  38003698.193 8
  22746807.875    22746808.668    10743281.168 8   6234065.640 8
  20690483.971    20690485.297   -15193542.588 9 -13772825.236 7
 90  3 10  6 24 59.0800000  0  4G 3G12G11G13
  23027805.546    23027806.312   -57156112.455 8  71070831.629 8
  20594997.680    20594999.668   -41853034.563 9  37995770.119 7
  22753165.551    22753166.124    10776685.033 8   6260094.620 8
  20691887.828    20691889.201   -15186164.498 9 -13767076.073 8
 90  3 10  6 25 14.0800000  0  4G 3G12G11G13
  23022278.922    23022281.741   -57185157.715 8  71048198.982 8
  20593091.353    20593092.538   -41863056.783 9  37987960.587 8
  22759522.110    22759523.215    10810094.898 7   6286128.264 8
  20693304.191    20693306.828   -15178719.020 9 -13761274.404 7
 90  3 10  6 25 29.0800000  0  4G 3G12G11G13
  23016761.018    23016764.905   -57214140.383 8  71025615.115 8
  20591213.844    20591214.531   -41872926.686 9  37980269.735 8
  22765878.649    22765881.261    10843510.555 6   6312166.450 8
  20694734.080    20694736.367   -15171206.109 9 -13755420.191 7
 90  3 10  6 25 44.0800000  0  4G 3G12G11G13
  23011258.413    23011262.791   -57243060.742 9  71003079.782 8
  20589363.581    20589366.442   -41882644.256 9  37972697.599 9
  22772239.553    22772241.868    10876931.929 7   6338209.087 8
  20696176.885    20696178.078   -15163626.257 9 -13749513.808 7
 90  3 10  6 25 59.0800000  0  4G 3G12G11G13
  23005767.596    23005769.736   -57271918.768 9  70980593.031 7
  20587541.907    20587545.125   -41892209.367 9  37965244.254 8
  22778599.630    22778602.798    10910358.870 7   6364256.021 9
  20697632.015    20697633.355   -15155979.870 9 -13743555.593 8
 90  3 10  6 26 14.0800000  0  4G 3G12G11G13
  23000287.346    23000290.166   -57300714.335 9  70958154.950 7
  20585750.483    20585755.789   -41901621.839 8  37957909.851 9
  22784961.211    22784964.841    10943791.131 7   6390307.129 8
  20699099.265    20699102.037   -15148267.058 9 -13737545.600 8
 90  3 10  6 26 29.0800000  0  4G 3G12G11G13
  22994819.026    22994822.640   -57329447.782 9  70935765.260 8
  20583989.508    20583992.754   -41910881.458 9  37950694.561 8
  22791324.438    22791327.513    10977228.573 8   6416362.265 9
  20700578.049    20700582.495   -15140488.085 9 -13731484.069 8
 90  3 10  6 26 44.0800000  0  4G 3G12G11G13
  22989364.683    22989366.351   -57358118.707 9  70913424.304 7
  20582256.206    20582260.114   -41919987.996 9  37943598.558 8
  22797688.670    22797691.469    11010671.108 8   6442421.353 9
  20702070.086    20702073.727   -15132643.174 9 -13725371.131 7
 90  3 10  6 26 59.0800000  0  4G 3G12G11G13
  22983921.339    22983922.339   -57386727.576 9  70891131.695 8
  20580553.758    20580556.760   -41928941.504 9  37936621.799 9
  22804053.531    22804056.983    11044118.472 7   6468484.228 9
  20703575.360    20703579.825   -15124732.290 9 -13719206.805 8
 90  3 10  6 27 14.0800000  0  4G 3G12G11G13
  22978488.590    22978489.334   -57415274.250 9  70868887.563 8
  20578878.209    20578880.470   -41937741.742 9  37929764.470 9
  22810419.384    22810423.269    11077570.627 8   6494550.817 9
  20705095.366    20705096.323   -15116755.789 9 -13712991.332 7
 90  3 10  6 27 29.0800000  0  4G 3G12G11G13
  22973068.711    22973068.676   -57443758.827 8  70846691.813 8
  20577232.594    20577234.725   -41946388.489 9  37923026.748 8
  22816786.022    22816788.942    11111027.311 8   6520620.950 9
  20706625.041    20706627.175   -15108713.962 9 -13706724.990 8
 90  3 10  6 27 44.0800000  0  4G 3G12G11G13
  22967659.315    22967660.459   -57472181.308 9  70824544.455 8
  20575616.802    20575618.189   -41954881.595 9  37916408.749 8
  22823154.167    22823157.170    11144488.427 9   6546694.551 9
  20708169.496    20708170.744   -15100607.071 9 -13700407.918 8
 90  3 10  6 27 59.0800000  0  4G 3G12G11G13
  22962262.460    22962264.255   -57500541.822 8  70802445.354 8
  20574030.629    20574030.712   -41963220.956 9  37909910.531 7
  22829520.834    22829525.039    11177953.730 8   6572771.408 9
  20709724.841    20709724.783   -15092435.367 9 -13694040.342 8
 90  3 10  6 28 14.0800000  0  4G 3G12G11G13
  22956877.089    22956879.677   -57528840.222 9  70780394.665 8
  20572472.960    20572473.158   -41971406.459 9  37903532.221 7
  22835890.501    22835894.465    11211423.244 9   6598851.541 9
  20711292.103    20711293.367   -15084198.789 9 -13687622.210 7
 90  3 10  6 28 29.0800000  0  4G 3G12G11G13
  22951503.027    22951506.877   -57557076.786 9  70758392.166 9
  20570944.452    20570946.427   -41979437.941 9  37897273.907 8
  22842260.963    22842263.719    11244896.766 9   6624934.803 9
  20712871.014    20712873.272   -15075897.523 9 -13681153.696 9
 90  3 10  6 28 44.0800000  0  4G 3G12G11G13
  22946142.934    22946144.736   -57585251.481 9  70736437.864 8
  20569445.364    20569447.782   -41987315.307 9  37891135.708 7
  22848632.224    22848635.169    11278374.085 9   6651021.028 9
  20714462.705    20714465.484   -15067531.978 9 -13674635.084 7
 90  3 10  6 28 59.0800000  0  4G 3G12G11G13
  22940792.684    22940795.110   -57613364.119 9  70714531.927 9
  20567975.383    20567977.700   -41995038.293 9  37885117.784 9
  22855002.776    22855005.908    11311855.090 9   6677110.129 9
  20716066.226    20716070.092   -15059102.317 9 -13668066.512 7
 90  3 10  6 29 14.0800000  0  4G 3G12G11G13
  22935456.042    22935457.546   -57641415.064 8  70692674.078 8
  20566535.135    20566536.736   -42002606.753 9  37879220.295 8
  22861374.638    22861377.215    11345339.710 9   6703202.051 9
  20717682.821    20717685.816   -15050608.900 8 -13661448.279 7
 90  3 10  6 29 29.0800000  0  4G 3G12G11G13
  22930129.553    22930131.808   -57669404.436 9  70670864.182 8
  20565122.989    20565126.478   -42010020.589 8  37873443.264 7
  22867748.444    22867749.760    11378827.672 9   6729296.570 9
  20719310.600    20719314.605   -15042051.853 9 -13654780.440 8
 90  3 10  6 29 44.0800000  0  4G 3G12G11G13
  22924813.380    22924816.802   -57697332.120 9  70649102.365 8
  20563741.722    20563744.197   -42017279.803 8  37867786.729 8
  22874120.262    22874123.651    11412318.891 9   6755393.638 9
  20720951.073    20720954.894   -15033431.470 9 -13648063.244 7
 90  3 10  6 29 59.0800000  0  4G 3G12G11G13
  22919510.659    22919514.358   -57725198.060 9  70627388.670 9
  20562388.619    20562392.138   -42024384.172 9  37862250.856 8
  22880495.611    22880497.226    11445813.182 9   6781493.087 9
  20722603.596    20722606.546   -15024747.766 9 -13641296.714 8
 90  3 10  6 30 14.0800000  0  4G 3G12G11G13
  22914219.278    22914222.841   -57753002.398 9  70605722.959 9
  20561067.453    20561070.642   -42031333.633 9  37856835.677 7
  22886868.946    22886871.322    11479310.460 9   6807594.862 8
  20724268.200    20724270.870   -15016000.835 9 -13634480.929 7
 90  3 10  6 30 29.0800000  0  4G 3G12G11G13
  22908940.231    22908944.402   -57780745.163 9  70584105.229 8
  20559774.903    20559775.975   -42038127.967 9  37851541.401 7
  22893244.651    22893246.100    11512810.452 9   6833698.751 9
  20725944.543    20725948.305   -15007191.270 8 -13627616.332 8
 90  3 10  6 30 44.0800000  0  4G 3G12G11G13
  22903673.081    22903674.633   -57808426.554 9  70562535.346 8
  20558512.490    20558512.703   -42044767.138 9  37846368.003 8
  22899619.378    22899622.051    11546313.101 9   6859804.711 9
  20727633.374    20727635.436   -14998319.166 9 -13620702.992 8
 90  3 10  6 30 59.0800000  0  4G 3G12G11G13
  22898417.587    22898420.085   -57836046.379 8  70541013.411 8
  20557278.322    20557280.540   -42051251.054 9  37841315.592 8
  22905995.260    22905996.840    11579818.248 9   6885912.613 9
  20729333.438    20729335.077   -14989384.931 9 -13613741.251 8
 90  3 10  6 31 14.0800000  0  4G 3G12G11G13
  22893172.976    22893175.666   -57863604.778 8  70519539.358 8
  20556074.949    20556076.250   -42057579.517 9  37836384.312 8
  22912370.804    22912373.781    11613325.780 9   6912022.379 9
  20731045.634    20731047.544   -14980388.530 9 -13606731.071 7
 90  3 10  6 31 29.0800000  0  4G 3G12G11G13
  22887940.684    22887943.066   -57891101.902 8  70498113.048 8
  20554898.476    20554902.166   -42063752.550 9  37831574.172 7
  22918748.403    22918750.447    11646835.486 9   6938133.830 9
  20732768.639    20732771.792   -14971330.179 9 -13599672.617 8
 90  3 10  6 31 44.0800000  0  4G 3G12G11G13
  22882719.044    22882721.077   -57918537.790 8  70476734.454 9
  20553753.141    20553756.803   -42069769.992 9  37826885.256 8
  22925124.834    22925126.837    11680347.230 9   6964246.873 9
  20734504.617    20734507.246   -14962210.019 9 -13592566.014 7
 90  3 10  6 31 59.0800000  0  4G 3G12G11G13
  22877509.448    22877512.324   -57945912.430 8  70455403.579 8
  20552639.943    20552641.429   -42075631.663 9  37822317.720 7
  22931501.726    22931504.938    11713860.782 9   6990361.329 9
  20736250.915    20736255.075   -14953028.308 9 -13585411.432 8
 90  3 10  6 32 14.0800000  0  4G 3G12G11G13
  22872312.278    22872314.875   -57973225.872 8  70434120.397 8
  20551554.134    20551553.634   -42081337.455 9  37817871.649 7
  22937879.637    22937883.146    11747376.137 9   7016477.191 9
  20738010.019    20738012.168   -14943785.250 9 -13578209.041 8
 90  3 10  6 32 29.0800000  0  4G 3G12G11G13
  22867127.021    22867129.633   -58000478.130 9  70412884.904 8
  20550497.973    20550498.059   -42086887.232 9  37813547.130 8
  22944257.788    22944260.724    11780893.164 9   7042594.353 9
  20739781.123    20739785.086   -14934481.187 9 -13570959.117 7
 90  3 10  6 32 44.0800000  0  4G 3G12G11G13
  22861953.568    22861955.078   -58027669.511 9  70391696.830 8
  20549471.032    20549473.592   -42092280.882 9  37809344.288 8
  22950635.983    22950639.455    11814411.634 8   7068712.640 9
  20741563.374    20741565.432   -14925116.290 9 -13563661.793 7
 90  3 10  6 32 59.0800000  0  4G 3G12G11G13
  22856790.360    22856792.629   -58054799.742 9  70370556.408 8
  20548474.427    20548477.302   -42097518.374 8  37805263.114 8
  22957014.984    22957018.110    11847931.579 9   7094832.087 9
  20743356.109    20743358.069   -14915690.915 9 -13556317.327 8
 90  3 10  6 33 14.0800000  0  4G 3G12G11G13
  22851639.130    22851640.263   -58081869.153 9  70349463.378 8
  20547507.584    20547508.613   -42102599.614 9  37801303.710 7
  22963394.032    22963396.932    11881452.862 9   7120952.563 9
  20745161.145    20745161.923   -14906205.235 9 -13548925.874 6
 90  3 10  6 33 29.0800000  0  4G 3G12G11G13
  22846500.901    22846501.595   -58108877.485 9  70328417.949 8
  20546570.188    20546571.761   -42107524.479 9  37797466.144 8
  22969772.646    22969776.250    11914975.274 8   7147073.927 9
  20746979.173    20746980.062   -14896659.383 9 -13541487.556 8
 90  3 10  6 33 44.0800000  0  4G 3G12G11G13
  22841372.622    22841373.239   -58135824.915 9  70307419.954 8
  20545661.612    20545665.203   -42112292.813 9  37793750.554 8
  22976152.036    22976155.702    11948498.579 8   7173195.973 9
  20748807.039    20748808.055   -14887053.634 9 -13534002.556 7
 90  3 10  6 33 59.0800000  0  4G 3G12G11G13
  22836255.692    22836256.580   -58162711.541 9  70286469.354 8
  20544784.489    20544788.007   -42116904.605 9  37790156.926 7
  22982531.903    22982535.081    11982022.574 7   7199318.560 9
  20750646.526    20750647.018   -14877388.184 9 -13526471.019 8
 90  3 10  6 34 14.0800000  0  4G 3G12G11G13
  22831151.760    22831151.017   -58189537.552 9  70265565.990 7
  20543935.925    20543940.819   -42121359.694 9  37786685.435 8
  22988911.568    22988914.722    12015547.280 8   7225441.707 8
  20752497.878    20752497.476   -14867662.994 9 -13518892.949 8
 90  3 10  6 34 29.0800000  0  4G 3G12G11G13
  22826057.903    22826059.185   -58216302.729 9  70244710.014 9
  20543118.670    20543121.616   -42125657.934 9  37783336.149 8
  22995290.762    22995294.508    12049072.566 8   7251565.300 9
  20754359.495    20754359.668   -14857878.538 9 -13511268.671 8
 90  3 10  6 34 44.0800000  0  4G 3G12G11G13
  22820976.779    22820977.367   -58243007.259 9  70223901.308 8
  20542332.239    20542332.952   -42129799.170 9  37780109.210 8
  23001671.579    23001674.145    12082598.231 7   7277689.200 8
  20756231.536    20756233.775   -14848034.841 9 -13503598.263 8
 90  3 10  6 34 59.0800000  0  4G 3G12G11G13
  22815906.018    22815906.232   -58269651.283 9  70203139.738 8
  20541573.109    20541575.139   -42133783.381 9  37777004.635 7
  23008050.082    23008053.267    12116124.101 8   7303813.243 9
  20758115.046    20758116.941   -14838132.146 9 -13495881.878 8
 90  3 10  6 35 14.0800000  0  4G 3G12G11G13
  22810846.617    22810847.620   -58296234.890 9  70182425.245 8
  20540844.485    20540846.115   -42137610.571 9  37774022.401 8
  23014429.787    23014432.474    12149650.088 8   7329937.391 9
  20760011.203    20760011.548   -14828170.676 9 -13488119.681 7
 90  3 10  6 35 29.0800000  0  4G 3G12G11G13
  22805798.828    22805801.489   -58322758.073 9  70161757.848 9
  20540146.769    20540147.726   -42141280.564 9  37771162.676 8
  23020809.921    23020813.035    12183176.212 7   7356061.623 8
  20761918.011    20761919.481   -14818150.870 9 -13480312.063 7
 90  3 10  6 35 44.0800000  0  4G 3G12G11G13
  22800763.881    22800765.254   -58349220.899 9  70141137.477 7
  20539478.817    20539477.645   -42144793.288 9  37768425.479 7
  23027189.178    23027192.252    12216702.185 8   7382185.748 8
  20763836.248    20763837.793   -14808072.849 9 -13472459.062 8
 90  3 10  6 35 59.0800000  0  4G 3G12G11G13
  22795739.538    22795740.082   -58375623.321 9  70120564.178 8
  20538840.313    20538841.229   -42148148.749 9  37765810.821 8
  23033569.207    23033571.712    12250227.959 9   7408309.720 9
  20765765.625    20765766.761   -14797936.778 9 -13464560.833 8
 90  3 10  6 36 14.0800000  0  4G 3G12G11G13
  22790726.907    22790727.328   -58401965.533 9  70100037.785 8
  20538231.457    20538232.514   -42151346.693 9  37763318.911 8
  23039948.564    23039951.207    12283753.341 8   7434433.372 8
  20767705.403    20767707.428   -14787742.896 9 -13456617.556 7
 90  3 10  6 36 29.0800000  0  4G 3G12G11G13
  22785725.079    22785726.946   -58428247.506 9  70079558.340 9
  20537652.480    20537654.754   -42154387.122 9  37760949.735 8
  23046328.446    23046330.324    12317278.170 8   7460556.588 8
  20769656.208    20769657.488   -14777491.341 9 -13448629.315 8
 90  3 10  6 36 44.0800000  0  4G 3G12G11G13
  22780734.754    22780737.181   -58454469.394 9  70059125.727 7
  20537102.492    20537107.026   -42157269.933 9  37758703.389 8
  23052706.573    23052710.680    12350802.313 9   7486679.295 8
  20771617.860    20771618.585   -14767182.296 9 -13440596.281 8
 90  3 10  6 36 59.0800000  0  4G 3G12G11G13
  22775757.818    22775757.453   -58480631.215 9  70038739.898 8
  20536584.700    20536588.648   -42159995.020 9  37756579.947 9
  23059086.160    23059090.406    12384325.805 9   7512801.477 9
  20773589.902    20773591.014   -14756816.208 9 -13432518.802 9
 90  3 10  6 37 14.0800000  0  4G 3G12G11G13
  22770790.446    22770790.934   -58506733.050 9  70018400.808 8
  20536096.070    20536098.158   -42162562.292 8  37754579.471 7
  23065467.892    23065469.166    12417848.378 8   7538922.958 9
  20775573.268    20775575.683   -14746393.192 9 -13424396.973 7
 90  3 10  6 37 29.0800000  0  4G 3G12G11G13
  22765834.960    22765835.931   -58532774.978 9  69998108.403 8
  20535639.180    20535639.535   -42164971.725 9  37752701.987 7
  23071845.755    23071848.326    12451369.881 8   7565043.612 9
  20777566.717    20777568.324   -14735913.475 9 -13416230.961 7
 90  3 10  6 37 44.0800000  0  4G 3G12G11G13
  22760889.452    22760891.884   -58558757.007 8  69977862.692 8
  20535209.846    20535210.976   -42167223.351 9  37750947.441 8
  23078223.864    23078227.276    12484890.273 9   7591163.395 8
  20779571.428    20779574.319   -14725377.175 9 -13408020.831 7
 90  3 10  6 37 59.0800000  0  4G 3G12G11G13
  22755956.881    22755960.121   -58584679.134 9  69957663.650 8
  20534810.306    20534811.578   -42169317.039 9  37749315.994 7
  23084602.579    23084605.583    12518409.393 8   7617282.179 9
  20781587.675    20781588.703   -14714784.545 9 -13399766.836 8
 90  3 10  6 38 14.0800000  0  4G 3G12G11G13
  22751037.173    22751036.815   -58610541.595 8  69937511.100 8
  20534442.074    20534443.132   -42171252.698 8  37747807.693 7
  23090981.716    23090984.283    12551927.040 9   7643399.831 9
  20783614.004    20783616.113   -14704135.694 9 -13391469.035 7
 90  3 10  6 38 29.0800000  0  4G 3G12G11G13
  22746126.538    22746128.027   -58636344.275 9  69917405.125 8
  20534102.460    20534105.663   -42173030.290 8  37746422.549 8
  23097359.851    23097362.670    12585443.161 9   7669516.281 9
  20785651.344    20785653.531   -14693431.028 9 -13383127.739 7
 90  3 10  6 38 44.0800000  0  4G 3G12G11G13
  22741227.184    22741229.989   -58662087.228 9  69897345.701 8
  20533794.899    20533798.618   -42174649.632 9  37745160.723 8
  23103737.351    23103739.770    12618957.608 9   7695631.438 9
  20787699.393    20787701.117   -14682670.671 9 -13374743.046 6
 90  3 10  6 38 59.0800000  0  4G 3G12G11G13
  22736339.006    22736341.521   -58687770.805 8  69877332.557 7
  20533517.874    20533521.207   -42176110.706 8  37744022.211 8
  23110114.164    23110116.278    12652470.315 9   7721745.225 9
  20789756.927    20789758.528   -14671854.760 9 -13366315.057 7
 90  3 10  6 39 14.0800000  0  4G 3G12G11G13
  22731463.222    22731466.085   -58713394.803 8  69857365.832 8
  20533270.297    20533274.532   -42177413.518 9  37743007.026 8
  23116490.354    23116494.068    12685981.133 8   7747857.550 9
  20791825.721    20791828.257   -14660983.577 9 -13357844.020 8
 90  3 10  6 39 29.0800000  0  4G 3G12G11G13
  22726598.554    22726601.073   -58738959.309 8  69837445.442 9
  20533052.227    20533057.189   -42178557.935 9  37742115.261 8
  23122866.920    23122870.799    12719489.950 9   7773968.314 9
  20793904.675    20793908.019   -14650057.160 9 -13349329.921 8
 90  3 10  6 39 44.0800000  0  4G 3G12G11G13
  22721744.983    22721747.797   -58764464.517 9  69817571.267 8
  20532863.259    20532869.740   -42179543.821 8  37741347.049 8
  23129241.758    23129246.256    12752996.594 9   7800077.385 9
  20795993.302    20795995.965   -14639075.834 8 -13340773.039 6
 90  3 10  6 39 59.0800000  0  4G 3G12G11G13
  22716902.275    22716905.636   -58789910.506 9  69797743.227 8
  20532707.175    20532711.898   -42180371.254 9  37740702.295 8
  23135618.640    23135621.938    12786500.834 8   7826184.582 9
  20798093.775    20798096.393   -14628039.895 9 -13332173.604 7
 90  3 10  6 40 14.0800000  0  4G 3G12G11G13
  22712071.042    22712072.401   -58815297.374 8  69777961.267 8
  20532580.024    20532582.843   -42181040.130 9  37740181.093 8
  23141991.939    23141996.908    12820002.695 8   7852289.927 9
  20800204.592    20800206.319   -14616949.614 9 -13323531.827 6
 90  3 10  6 40 29.0800000  0  4G 3G12G11G13
  22707251.234    22707254.683   -58840625.069 9  69758225.403 7
  20532483.352    20532485.813   -42181550.440 9  37739783.446 9
  23148368.637    23148371.392    12853502.100 8   7878393.341 9
  20802326.366    20802327.002   -14605805.141 9 -13314847.819 7
 90  3 10  6 40 44.0800000  0  4G 3G12G11G13
  22702443.531    22702446.787   -58865893.542 9  69738535.694 8
  20532417.159    20532417.015   -42181902.074 9  37739509.442 8
  23154742.167    23154746.154    12886998.996 8   7904494.808 9
  20804457.634    20804458.207   -14594606.652 9 -13306121.721 8
 90  3 10  6 40 59.0800000  0  4G 3G12G11G13
  22697646.510    22697647.863   -58891102.968 9  69718892.002 8
  20532380.901    20532381.372   -42182094.899 9  37739359.192 8
  23161116.460    23161120.293    12920493.314 8   7930594.268 9
  20806599.187    20806599.800   -14583354.352 9 -13297353.707 8
 90  3 10  6 41 14.0800000  0  4G 3G12G11G13
  22692861.066    22692861.988   -58916253.788 9  69699293.964 8
  20532373.746    20532375.562   -42182129.309 9  37739332.372 7
  23167489.140    23167494.025    12953984.505 8   7956691.282 8
  20808751.072    20808751.728   -14572048.825 9 -13288544.196 8
 90  3 10  6 41 29.0800000  0  4G 3G12G11G13
  22688086.289    22688087.705   -58941345.500 9  69679742.004 9
  20532397.472    20532398.056   -42182004.711 9  37739429.465 8
  23173861.993    23173867.118    12987472.983 9   7982786.192 9
  20810911.964    20810914.224   -14560689.602 9 -13279692.852 8
 90  3 10  6 41 44.0800000  0  4G 3G12G11G13
  22683321.736    22683323.331   -58966378.468 9  69660235.814 8
  20532450.302    20532452.661   -42181721.443 9  37739650.194 8
  23180235.172    23180238.997    13020958.203 9   8008878.550 9
  20813083.563    20813083.493   -14549277.431 9 -13270800.246 7
 90  3 10  6 41 59.0800000  0  4G 3G12G11G13
  22678569.884    22678571.995   -58991352.727 9  69640775.351 7
  20532534.011    20532537.488   -42181279.337 9  37739994.696 7
  23186607.045    23186610.297    13054440.251 8   8034968.453 9
  20815264.178    20815266.162   -14537812.320 9 -13261866.388 8
 90  3 10  6 42 14.0800000  0  4G 3G12G11G13
  22673828.546    22673830.087   -59016268.245 8  69621360.688 8
  20532648.715    20532652.091   -42180678.241 8  37740463.083 8
  23192976.735    23192980.911    13087919.066 8   8061055.840 9
  20817456.381    20817457.687   -14526294.344 9 -13252891.350 7
 90  3 10  6 42 29.0800000  0  4G 3G12G11G13
  22669097.442    22669100.747   -59041125.210 9  69601991.645 9
  20532793.582    20532796.170   -42179918.108 9  37741055.368 8
  23199347.403    23199349.689    13121394.455 9   8087140.566 9
  20819657.976    20819660.643   -14514723.814 9 -13243875.358 8
 90  3 10  6 42 44.0800000  0  4G 3G12G11G13
  22664378.807    22664380.738   -59065923.779 9  69582668.088 8
  20532969.528    20532968.940   -42178999.024 9  37741771.523 7
  23205717.200    23205720.276    13154866.298 8   8113222.512 9
  20821869.162    20821872.255   -14503100.779 9 -13234818.454 8
 90  3 10  6 42 59.0800000  0  4G 3G12G11G13
  22659670.539    22659672.700   -59090663.830 9  69563390.128 8
  20533174.837    20533175.838   -42177920.742 9  37742611.736 7
  23212085.246    23212089.416    13188334.533 8   8139301.655 9
  20824090.836    20824092.563   -14491425.569 9 -13225720.873 8
 90  3 10  6 43 14.0800000  0  4G 3G12G11G13
  22654973.848    22654977.376   -59115345.437 9  69544157.722 8
  20533409.909    20533412.657   -42176683.381 9  37743575.887 7
  23218454.043    23218456.184    13221799.038 8   8165377.898 9
  20826323.385    20826325.469   -14479698.460 9 -13216582.858 7
 90  3 10  6 43 29.0800000  0  4G 3G12G11G13
  22650289.154    22650290.442   -59139968.816 9  69524970.697 9
  20533674.429    20533676.932   -42175286.958 9  37744664.006 8
  23224821.241    23224824.029    13255259.683 8   8191451.113 9
  20828564.783    20828567.051   -14467919.741 9 -13207404.634 7
 90  3 10  6 43 44.0800000  0  4G 3G12G11G13
  22645613.304    22645616.121   -59164533.898 9  69505829.091 7
  20533970.030    20533973.404   -42173731.467 9  37745876.085 7
  23231187.744    23231190.425    13288716.372 9   8217521.263 9
  20830816.726    20830817.372   -14456089.499 9 -13198186.252 6
 90  3 10  6 43 59.0800000  0  4G 3G12G11G13
  22640949.953    22640952.707   -59189040.816 8  69486732.794 8
  20534296.881    20534299.656   -42172016.831 9  37747212.176 8
  23237552.681    23237556.275    13322168.945 9   8243588.198 9
  20833077.092    20833079.245   -14444207.918 9 -13188927.864 7
 90  3 10  6 44 14.0800000  0  4G 3G12G11G13
  22636296.689    22636300.109   -59213489.761 8  69467681.672 8
  20534653.066    20534656.887   -42170143.121 9  37748672.218 7
  23243917.485    23243921.252    13355617.366 8   8269651.898 9
  20835347.792    20835350.494   -14432275.163 9 -13179629.626 7
 90  3 10  6 44 29.0800000  0  4G 3G12G11G13
  22631657.364    22631658.359   -59237880.627 8  69448675.816 8
  20535040.302    20535043.234   -42168110.246 8  37750256.287 7
  23250281.980    23250284.874    13389061.474 9   8295712.225 8
  20837628.036    20837630.974   -14420291.478 9 -13170291.670 8
 90  3 10  6 44 44.0800000  0  4G 3G12G11G13
  22627025.664    22627027.632   -59262213.588 9  69429715.082 7
  20535457.732    20535459.044   -42165918.162 9  37751964.388 7
  23256645.769    23256648.899    13422501.196 8   8321769.158 9
  20839917.848    20839920.431   -14408257.018 9 -13160914.182 7
 90  3 10  6 44 59.0800000  0  4G 3G12G11G13
  22622407.408    22622409.777   -59286488.708 9  69410799.410 8
  20535905.837    20535907.669   -42163566.919 9  37753796.508 8
  23263007.423    23263010.744    13455936.368 9   8347822.528 8
  20842218.284    20842219.902   -14396172.240 9 -13151497.455 8
 90  3 10  6 45 14.0800000  0  4G 3G12G11G13
  22617799.412    22617801.410   -59310706.206 9  69391928.649 8
  20536382.507    20536385.726   -42161056.415 8  37755752.727 8
  23269368.980    23269372.325    13489366.949 9   8373872.351 8
  20844528.241    20844530.068   -14384037.260 9 -13142041.630 7
 90  3 10  6 45 29.0800000  0  4G 3G12G11G13
  22613201.017    22613201.892   -59334865.848 9  69373102.969 7
  20536891.657    20536894.518   -42158386.618 9  37757833.085 7
  23275730.620    23275733.803    13522792.816 9   8399918.477 8
  20846845.355    20846848.652   -14371852.157 9 -13132546.753 7
 90  3 10  6 45 44.0800000  0  4G 3G12G11G13
  22608614.736    22608616.739   -59358967.911 9  69354322.131 8
  20537429.941    20537432.900   -42155557.543 9  37760037.558 8
  23282090.099    23282093.407    13556213.890 9   8425960.848 8
  20849173.014    20849177.069   -14359617.259 9 -13123013.065 8
 90  3 10  6 45 59.0800000  0  4G 3G12G11G13
  22604038.335    22604042.342   -59383012.386 9  69335586.190 7
  20537998.389    20538000.433   -42152569.128 9  37762366.207 7
  23288450.514    23288452.095    13589630.048 9   8451999.408 8
  20851510.667    20851515.296   -14347332.592 9 -13113440.607 7
 90  3 10  6 46 14.0800000  0  4G 3G12G11G13
  22599474.067    22599476.571   -59406999.358 9  69316895.045 8
  20538597.716    20538598.616   -42149421.360 9  37764819.009 7
  23294807.875    23294810.520    13623041.281 9   8478034.124 9
  20853857.196    20853862.830   -14334998.661 9 -13103829.750 8
 90  3 10  6 46 29.0800000  0  4G 3G12G11G13
  22594920.145    22594922.071   -59430929.152 8  69298248.465 7
  20539226.033    20539229.094   -42146114.375 8  37767395.882 8
  23301164.499    23301166.990    13656447.319 8   8504064.784 8
  20856213.073    20856218.648   -14322615.614 9 -13094180.620 7
 90  3 10  6 46 44.0800000  0  4G 3G12G11G13
  22590377.972    22590378.715   -59454801.558 9  69279646.600 8
  20539885.974    20539886.745   -42142648.058 9  37770096.907 7
  23307520.989    23307522.881    13689848.001 9   8530091.271 9
  20858579.857    20858582.574   -14310183.391 9 -13084493.158 8
 90  3 10  6 46 59.0800000  0  4G 3G12G11G13
  22585847.469    22585847.074   -59478616.733 8  69261089.332 7
  20540575.562    20540577.237   -42139022.347 9  37772922.110 8
  23313874.842    23313877.503    13723243.406 9   8556113.655 9
  20860955.586    20860957.327   -14297702.177 9 -13074767.523 8
 90  3 10  6 47 14.0800000  0  4G 3G12G11G13
  22581324.791    22581326.988   -59502374.714 8  69242576.626 8
  20541296.145    20541296.745   -42135237.287 9  37775871.523 8
  23320229.110    23320231.823    13756633.351 9   8582131.794 8
  20863341.397    20863343.022   -14285172.084 9 -13065003.818 8
 90  3 10  6 47 29.0800000  0  4G 3G12G11G13
  22576813.217    22576817.516   -59526075.572 9  69224108.427 9
  20542047.006    20542048.237   -42131292.812 8  37778945.122 7
  23326582.159    23326585.362    13790017.725 9   8608145.586 8
  20865735.611    20865738.909   -14272593.652 9 -13055202.453 9
 90  3 10  6 47 44.0800000  0  4G 3G12G11G13
  22572314.765    22572318.341   -59549719.553 9  69205684.562 8
  20542827.746    20542829.103   -42127188.907 9  37782142.956 7
  23332933.230    23332936.518    13823396.416 9   8634154.956 9
  20868136.726    20868139.953   -14259966.825 9 -13045363.353 8
 90  3 10  6 47 59.0800000  0  4G 3G12G11G13
  22567825.563    22567830.966   -59573306.590 9  69187305.042 9
  20543639.936    20543641.439   -42122925.644 9  37785464.971 7
  23339284.572    23339286.830    13856769.427 9   8660159.911 8
  20870549.009    20870551.675   -14247292.006 9 -13035486.868 8
 90  3 10  6 48 14.0800000  0  4G 3G12G11G13
  22563349.262    22563352.554   -59596836.748 9  69168969.871 8
  20544481.204    20544482.761   -42118503.104 9  37788911.112 7
  23345633.972    23345636.927    13890136.602 9   8686160.327 8
  20872969.249    20872972.250   -14234569.413 9 -13025573.156 8
 90  3 10  6 48 29.0800000  0  4G 3G12G11G13
  22558881.274    22558885.782   -59620310.166 9  69150678.913 7
  20545351.346    20545355.424   -42113921.216 9  37792481.402 8
  23351982.786    23351985.866    13923497.908 8   8712156.172 9
  20875399.619    20875402.545   -14221799.225 9 -13015622.376 7
 90  3 10  6 48 44.0800000  0  4G 3G12G11G13
  22554424.984    22554428.119   -59643726.817 9  69132432.184 8
  20546254.200    20546257.246   -42109180.048 9  37796175.800 8
  23358329.592    23358331.884    13956853.193 9   8738147.308 8
  20877838.717    20877842.259   -14208981.635 9 -13005634.632 7
 90  3 10  6 48 59.0800000  0  4G 3G12G11G13
  22549979.848    22549983.813   -59667086.947 9  69114229.514 8
  20547186.416    20547190.262   -42104279.570 9  37799994.349 8
  23364675.607    23364679.367    13990202.349 9   8764133.676 9
  20880287.832    20880288.336   -14196116.835 9 -12995610.109 7
 90  3 10  6 49 14.0800000  0  4G 3G12G11G13
  22545546.780    22545549.086   -59690390.606 9  69096070.836 8
  20548149.681    20548152.700   -42099219.777 9  37803937.024 8
  23371020.493    23371023.850    14023545.345 9   8790115.237 8
  20882745.350    20882745.851   -14183205.031 9 -12985548.934 8
 90  3 10  6 49 29.0800000  0  4G 3G12G11G13
  22541122.802    22541124.590   -59713637.957 9  69077956.034 8
  20549142.598    20549147.090   -42094000.661 8  37808003.862 8
  23377364.471    23377368.040    14056882.094 9   8816091.920 8
  20885210.278    20885210.976   -14170246.248 9 -12975451.177 7
 90  3 10  6 49 44.0800000  0  4G 3G12G11G13
  22536710.078    22536710.506   -59736828.757 9  69059885.302 7
  20550165.648    20550170.514   -42088622.318 9  37812194.763 8
  23383707.374    23383709.145    14090212.497 9   8842063.652 9
  20887684.162    20887685.323   -14157240.914 9 -12965317.163 7
 90  3 10  6 49 59.0800000  0  4G 3G12G11G13
  22532307.847    22532309.027   -59759963.429 9  69041858.299 8
  20551220.953    20551224.714   -42083084.592 9  37816509.878 9
  23390049.666    23390050.473    14123536.367 9   8868030.286 9
  20890168.112    20890170.559   -14144189.094 9 -12955146.906 7
 90  3 10  6 50 14.0800000  0  4G 3G12G11G13
  22527914.931    22527916.577   -59783041.867 9  69023875.119 8
  20552304.447    20552307.534   -42077387.554 8  37820949.130 8
  23396389.436    23396390.592    14156853.702 8   8893991.829 8
  20892661.264    20892662.622   -14131090.942 9 -12944940.555 8
 90  3 10  6 50 29.0800000  0  4G 3G12G11G13
  22523534.423    22523534.661   -59806064.241 9  69005935.620 7
  20553419.789    20553422.708   -42071531.221 9  37825512.513 8
  23402728.053    23402729.660    14190164.471 9   8919948.253 8
  20895162.482    20895164.400   -14117946.776 9 -12934698.360 7
 90  3 10  6 50 44.0800000  0  4G 3G12G11G13
  22519163.960    22519164.477   -59829030.433 9  68988039.888 8
  20554564.612    20554567.215   -42065515.652 8  37830199.988 8
  23409065.385    23409066.938    14223468.527 9   8945899.438 9
  20897672.046    20897674.422   -14104756.792 9 -12924420.444 7
 90  3 10  6 50 59.0800000  0  4G 3G12G11G13
  22514805.052    22514806.325   -59851940.725 9  68970187.739 7
  20555740.227    20555741.171   -42059340.903 8  37835011.476 9
  23415401.693    23415403.512    14256765.777 8   8971845.324 8
  20900191.170    20900192.415   -14091521.066 9 -12914106.899 7
 90  3 10  6 51 14.0800000  0  4G 3G12G11G13
  22510455.579    22510456.232   -59874795.068 9  68952379.145 7
  20556944.976    20556946.376   -42053006.902 9  37839947.049 8
  23421736.380    23421738.800    14290056.128 8   8997785.838 8
  20902719.164    20902721.027   -14078239.796 9 -12903757.868 7
 90  3 10  6 51 29.0800000  0  4G 3G12G11G13
  22506117.026    22506118.054   -59897593.817 9  68934613.901 8
  20558180.517    20558182.950   -42046513.824 9  37845006.569 9
  23428070.459    23428072.015    14323339.491 8   9023720.912 8
  20905254.438    20905256.905   -14064913.299 9 -12893373.563 8
 90  3 10  6 51 44.0800000  0  4G 3G12G11G13
  22501790.132    22501790.519   -59920336.790 8  68916892.115 8
  20559446.769    20559447.970   -42039861.659 8  37850190.056 8
  23434401.832    23434404.566    14356615.699 8   9049650.422 8
  20907798.716    20907799.379   -14051541.733 9 -12882954.149 8
 90  3 10  6 51 59.0800000  0  4G 3G12G11G13
  22497473.107    22497473.751   -59943024.252 9  68899213.578 7
  20560741.781    20560744.626   -42033050.436 9  37855497.498 8
  23440733.428    23440735.324    14389884.831 9   9075574.408 9
  20910352.103    20910353.096   -14038125.269 9 -12872499.744 7
 90  3 10  6 52 14.0800000  0  4G 3G12G11G13
  22493165.798    22493166.762   -59965656.249 9  68881578.265 8
  20562069.473    20562070.517   -42026080.165 9  37860928.875 7
  23447062.412    23447064.824    14423146.617 8   9101492.698 8
  20912913.316    20912915.894   -14024664.279 9 -12862010.651 7
 90  3 10  6 52 29.0800000  0  4G 3G12G11G13
  22488869.077    22488870.801   -59988232.748 8  68863986.208 8
  20563425.985    20563425.654   -42018950.984 9  37866484.091 8
  23453390.822    23453394.266    14456400.990 9   9127405.191 8
  20915483.655    20915484.692   -14011158.810 9 -12851486.899 8
 90  3 10  6 52 44.0800000  0  4G 3G12G11G13
  22484583.273    22484586.423   -60010753.959 9  68846437.236 8
  20564813.549    20564812.173   -42011662.888 9  37872163.114 7
  23459717.415    23459719.223    14489647.785 8   9153311.796 8
  20918061.856    20918064.230   -13997608.937 9 -12840928.563 8
 90  3 10  6 52 59.0800000  0  4G 3G12G11G13
  22480308.259    22480310.784   -60033219.899 9  68828931.317 8
  20566228.643    20566230.271   -42004215.848 9  37877966.001 7
  23466042.260    23466044.680    14522887.119 8   9179212.580 8
  20920648.511    20920651.506   -13984015.045 9 -12830335.928 8
 90  3 10  6 53 14.0800000  0  4G 3G12G11G13
  22476043.999    22476045.194   -60055630.713 9  68811468.379 8
  20567676.075    20567678.378   -41996609.947 8  37883892.674 7
  23472366.528    23472368.205    14556118.843 8   9205107.438 9
  20923243.778    20923246.052   -13970377.324 8 -12819709.138 8
 90  3 10  6 53 29.0800000  0  4G 3G12G11G13
  22471790.056    22471790.777   -60077986.500 9  68794048.312 8
  20569152.670    20569154.471   -41988845.333 9  37889943.010 8
  23478688.199    23478691.138    14589342.809 9   9230996.250 7
  20925847.567    20925850.443   -13956696.069 9 -12809048.428 8
 90  3 10  6 53 44.0800000  0  4G 3G12G11G13
  22467546.371    22467546.492   -60100287.261 9  68776671.090 8
  20570660.716    20570663.120   -41980921.957 9  37896117.061 7
  23485008.569    23485013.408    14622559.094 8   9256879.069 7
  20928459.527    20928460.191   -13942971.470 9 -12798353.931 7
 90  3 10  6 53 59.0800000  0  4G 3G12G11G13
  22463313.362    22463313.770   -60122533.086 8  68759336.707 8
  20572198.583    20572201.473   -41972839.828 9  37902414.826 8
  23491329.189    23491331.054    14655767.492 8   9282755.744 9
  20931079.492    20931080.653   -13929203.762 9 -12787625.855 8
 90  3 10  6 54 14.0800000  0  4G 3G12G11G13
  22459090.140    22459091.177   -60144723.984 9  68742045.094 8
  20573766.385    20573769.115   -41964599.032 9  37908836.223 8
  23497647.241    23497649.278    14688968.032 9   9308626.286 8
  20933707.760    20933709.130   -13915393.021 9 -12776864.223 7
 90  3 10  6 54 29.0800000  0  4G 3G12G11G13
  22454876.855    22454879.690   -60166860.295 9  68724796.031 7
  20575365.152    20575367.741   -41956199.638 9  37915381.206 8
  23503963.280    23503965.737    14722160.525 8   9334490.539 8
  20936344.090    20936345.932   -13901539.280 9 -12766069.112 7
 90  3 10  6 54 44.0800000  0  4G 3G12G11G13
  22450675.749    22450676.914   -60188941.788 9  68707589.675 8
  20576994.197    20576998.186   -41947641.605 9  37922049.803 8
  23510277.023    23510280.292    14755344.956 8   9360348.543 9
  20938988.572    20938990.357   -13887642.468 9 -12755240.425 7
 90  3 10  6 54 59.0800000  0  4G 3G12G11G13
  22446485.324    22446484.034   -60210968.823 9  68690425.763 7
  20578654.293    20578655.193   -41938924.990 9  37928841.966 8
  23516590.452    23516594.022    14788521.238 8   9386200.175 8
  20941640.391    20941642.991   -13873702.910 9 -12744378.438 8
 90  3 10  6 55 14.0800000  0  4G 3G12G11G13
  22442304.028    22442303.034   -60232941.320 9  68673304.355 9
  20580343.780    20580345.296   -41930049.827 9  37935757.674 8
  23522902.018    23522906.355    14821689.324 8   9412045.418 8
  20944300.697    20944302.145   -13859721.040 9 -12733483.457 6
 90  3 10  6 55 29.0800000  0  4G 3G12G11G13
  22438132.312    22438132.427   -60254859.480 9  68656225.288 7
  20582061.627    20582063.973   -41921016.203 9  37942796.856 8
  23529211.885    23529216.394    14854849.145 8   9437884.224 9
  20946969.907    20946972.036   -13845696.942 9 -12722555.579 7
 90  3 10  6 55 44.0800000  0  4G 3G12G11G13
  22433970.870    22433970.896   -60276723.409 9  68639188.483 7
  20583810.412    20583814.289   -41911824.310 9  37949959.357 8
  23535520.923    23535524.353    14888000.689 8   9463716.590 9
  20949645.704    20949648.491   -13831630.844 8 -12711594.993 7
 90  3 10  6 55 59.0800000  0  4G 3G12G11G13
  22429821.491    22429821.776   -60298533.220 9  68622193.843 7
  20585588.989    20585593.750   -41902474.046 9  37957245.265 8
  23541827.403    23541831.000    14921143.816 9   9489542.412 8
  20952330.676    20952331.741   -13817523.074 9 -12700601.906 8
 90  3 10  6 56 14.0800000  0  4G 3G12G11G13
  22425681.583    22425682.749   -60320288.925 9  68605241.352 9
  20587397.699    20587400.816   -41892965.499 9  37964654.506 6
  23548132.902    23548136.263    14954278.369 9   9515361.537 8
  20955023.415    20955025.389   -13803373.746 9 -12689576.464 7
 90  3 10  6 56 29.0800000  0  4G 3G12G11G13
  22421551.093    22421552.997   -60341990.528 9  68588331.011 8
  20589237.747    20589242.024   -41883298.717 9  37972187.045 8
  23554437.618    23554440.090    14987404.281 8   9541173.939 8
  20957725.004    20957726.266   -13789183.139 9 -12678518.857 8
 90  3 10  6 56 44.0800000  0  4G 3G12G11G13
  22417432.249    22417434.819   -60363638.244 8  68571462.666 8
  20591108.704    20591111.207   -41873473.896 8  37979842.748 8
  23560738.993    23560740.273    15020521.470 9   9566979.545 7
  20960432.464    20960434.182   -13774951.224 9 -12667429.064 8
 90  3 10  6 56 59.0800000  0  4G 3G12G11G13
  22413323.672    22413324.567   -60385232.185 9  68554636.228 8
  20593007.477    20593009.779   -41863490.992 9  37987621.625 8
  23567039.057    23567041.207    15053629.896 8   9592778.329 8
  20963147.820    20963151.236   -13760678.277 9 -12656307.298 7
 90  3 10  6 57 14.0800000  0  4G 3G12G11G13
  22409224.110    22409224.761   -60406772.287 9  68537851.762 8
  20594937.817    20594940.219   -41853350.177 9  37995523.557 8
  23573339.091    23573340.692    15086729.506 9   9618570.249 8
  20965871.923    20965874.733   -13746364.464 9 -12645153.681 8
 90  3 10  6 57 29.0800000  0  4G 3G12G11G13
  22405135.738    22405135.638   -60428258.703 9  68521109.120 8
  20596897.833    20596901.380   -41843051.446 9  38003548.537 7
  23579635.195    23579637.898    15119820.175 8   9644355.197 7
  20968602.929    20968607.585   -13732010.082 9 -12633968.446 8
 90  3 10  6 57 44.0800000  0  4G 3G12G11G13
  22401056.724    22401056.660   -60449691.643 9  68504408.155 8
  20598888.214    20598891.261   -41832594.886 9  38011696.490 7
  23585930.532    23585932.220    15152901.830 9   9670133.104 9
  20971341.777    20971345.685   -13717615.368 9 -12622751.788 8
 90  3 10  6 57 59.0800000  0  4G 3G12G11G13
  22396988.264    22396990.096   -60471071.124 9  68487748.828 8
  20600908.328    20600909.803   -41821980.580 8  38019967.375 8
  23592224.466    23592225.746    15185974.404 7   9695903.926 7
  20974089.234    20974093.587   -13703180.216 9 -12611503.625 8
 90  3 10  6 58 14.0800000  0  4G 3G12G11G13
  22392931.214    22392930.708   -60492397.194 9  68471131.119 8
  20602957.177    20602958.993   -41811208.516 9  38028361.186 7
  23598515.734    23598518.797    15219037.817 8   9721667.625 8
  20976844.126    20976847.874   -13688705.037 9 -12600224.248 8
 90  3 10  6 58 29.0800000  0  4G 3G12G11G13
  22388882.021    22388883.688   -60513669.957 9  68454554.956 7
  20605038.134    20605039.222   -41800278.866 9  38036877.815 8
  23604805.410    23604808.882    15252092.067 7   9747424.174 7
  20979607.246    20979610.107   -13674190.012 9 -12588913.845 8
 90  3 10  6 58 44.0800000  0  4G 3G12G11G13
  22384843.695    22384845.062   -60534889.579 9  68438020.207 8
  20607146.625    20607147.295   -41789191.649 9  38045517.192 7
  23611093.683    23611096.930    15285137.015 8   9773173.488 8
  20982376.911    20982379.094   -13659635.070 9 -12577572.307 9
 90  3 10  6 58 59.0800000  0  4G 3G12G11G13
  22380815.072    22380817.397   -60556056.041 9  68421526.873 8
  20609287.538    20609288.523   -41777947.141 9  38054279.144 8
  23617381.067    23617381.808    15318172.643 8   9798915.532 8
  20985154.772    20985156.239   -13645040.567 9 -12566199.968 7
 90  3 10  6 59 14.0800000  0  4G 3G12G11G13
  22376798.739    22376799.318   -60577169.433 9  68405074.900 7
  20611456.896    20611457.955   -41766545.151 9  38063163.814 8
  23623665.051    23623667.868    15351198.915 8   9824650.282 8
  20987938.447    20987941.771   -13630406.762 9 -12554796.994 8
 90  3 10  6 59 29.0800000  0  4G 3G12G11G13
  22372789.789    22372792.338   -60598229.916 9  68388664.138 8
  20613656.333    20613658.633   -41754985.830 1  38072171.077 1
  23629948.645    23629950.097    15384215.785 8   9850377.727 8
  20990730.626    20990734.251   -13615733.651 9 -12543363.419 8
 90  3 10  6 59 44.0800000  0  4G 3G12G11G13
  22368791.916    22368794.792   -60619237.617 9  68372294.512 8
  20615882.938    20615886.112   -41743269.435 1  38081300.732 1
  23636228.729    23636232.179    15417223.220 7   9876097.816 6
  20993531.113    20993533.799   -13601021.691 9 -12531899.553 7
 90  3 10  6 59 59.0800000  0  4G 3G12G11G13
  22364804.802    22364806.950   -60640192.589 9  68355965.981 8
  20618142.049    20618147.049   -41731395.963 1  38090552.758 1
  23642507.648    23642511.157    15450221.021 7   9901810.384 7
  20996337.585    20996338.628   -13586270.993 9 -12520405.499 7
 90  3 10  7  0 14.0800000  0  4G 3G12G11G13
  22360827.327    22360830.367   -60661094.861 9  68339678.508 8
  20620433.909    20620436.124   -41719365.581 9  38099927.075 7
  23648785.317    23648787.602    15483209.142 7   9927515.419 6
  20999151.270    20999151.609   -13571481.673 9 -12508881.335 7
 90  3 10  7  0 29.0800000  0  4G 3G12G11G13
  22356860.431    22356861.670   -60681944.625 9  68323431.954 8
  20622753.127    20622754.213   -41707178.363 9  38109423.595 7
  23655061.876    23655064.552    15516187.597 7   9953212.904 6
  21001971.060    21001973.495   -13556653.847 9 -12497327.184 7
 90  3 10  7  0 44.0800000  0  4G 3G12G11G13
  22352901.650    22352904.147   -60702741.926 9  68307226.280 8
  20625102.010    20625103.552   -41694834.260 9  38119042.362 8
  23661334.593    23661338.101    15549156.191 7   9978902.733 7
  21004800.864    21004802.674   -13541787.909 9 -12485743.316 8
 90  3 10  7  0 59.0800000  0  4G 3G12G11G13
  22348952.935    22348957.035   -60723486.947 9  68291061.339 9
  20627481.685    20627483.714   -41682333.417 9  38128783.265 7
  23667607.960    23667611.007    15582114.879 7  10004584.804 7
  21007637.113    21007639.399   -13526883.934 8 -12474129.829 8
 90  3 10  7  1 14.0800000  0  4G 3G12G11G13
  22345015.797    22345018.422   -60744179.698 9  68274937.127 8
  20629890.566    20629892.952   -41669675.938 8  38138646.205 7
  23673878.170    23673880.379    15615063.726 7  10030259.249 7
  21010480.558    21010482.645   -13511942.013 9 -12462486.768 7
 90  3 10  7  1 29.0800000  0  4G 3G12G11G13
  22341088.123    22341090.828   -60764820.272 9  68258853.593 9
  20632327.964    20632330.551   -41656862.055 8  38148631.034 8
  23680148.657    23680148.945    15648002.641 7  10055925.910 7
  21013331.136    21013333.499   -13496962.250 9 -12450814.230 7
 90  3 10  7  1 44.0800000  0  4G 3G12G11G13
  22337170.652    22337172.069   -60785408.760 9  68242810.643 7
  20634795.798    20634800.318   -41643891.761 9  38158737.762 7
  23686413.093    23686414.835    15680931.590 7  10081584.847 6
  21016188.877    21016191.186   -13481944.871 9 -12439112.371 8
 90  3 10  7  1 59.0800000  0  4G 3G12G11G13
  22333263.020    22333264.281   -60805945.161 9  68226808.260 7
  20637293.667    20637297.614   -41630765.134 9  38168966.298 8
  23692675.572    23692678.200    15713850.367 7  10107235.856 6
  21019053.731    21019053.893   -13466890.171 9 -12427381.418 7
 90  3 10  7  2 14.0800000  0  4G 3G12G11G13
  22329365.710    22329366.542   -60826429.696 9  68210846.302 8
  20639821.286    20639826.049   -41617482.398 9  38179316.479 8
  23698938.179    23698941.362    15746759.080 6  10132879.015 4
  21021925.690    21021928.371   -13451798.431 8 -12415621.634 8
 90  3 10  7  2 29.0800000  0  4G 3G12G11G13
  22325478.018    22325478.332   -60846862.623 9  68194924.542 8
  20642380.412    20642384.245   -41604043.710 9  38189788.169 8
  23705198.972    23705201.681    15779657.508 5  10158514.174 6
  21024804.559    21024808.039   -13436669.662 9 -12403832.999 9
 90  3 10  7  2 44.0800000  0  4G 3G12G11G13
  22321598.938    22321600.835   -60867243.813 9  68179043.121 8
  20644967.700    20644970.373   -41590449.182 9  38200381.303 8
  23711457.336    23711459.540    15812545.684 6  10184141.339 5
  21027690.398    21027693.606   -13421504.115 9 -12392015.699 9
 90  3 10  7  2 59.0800000  0  4G 3G12G11G13
  22317730.576    22317732.072   -60887573.363 9  68163201.922 8
  20647583.234    20647587.352   -41576698.794 9  38211095.877 8
  23717714.209    23717713.565    15845423.618 4  10209760.529 5
  21030583.784    21030585.244   -13406301.884 9 -12380169.806 8
 90  3 10  7  3 14.0800000  0  4G 3G12G11G13
  22313872.925    22313872.632   -60907851.375 9  68147400.898 8
  20650228.487    20650231.834   -41562792.667 9  38221931.799 8
  23723967.343    23723968.717    15878291.155 3  10235371.599 2
  21033482.788    21033486.266   -13391063.424 9 -12368295.685 9
 90  3 10  7  3 29.0800000  0  4G 3G12G11G13
  22310023.424    22310024.662   -60928078.157 9  68131639.796 8
  20652902.805    20652905.994   -41548730.922 9  38232888.991 6
  23730221.479    23730222.512    15911148.243 4  10260974.520 3
  21036389.149    21036393.608   -13375788.542 8 -12356393.188 9
 90  3 10  7  3 44.0800000  0  4G 3G12G11G13
  22306183.237    22306184.603   -60948253.599 9  68115918.693 8
  20655609.330    20655613.090   -41534513.668 9  38243967.377 7
  23736471.036    23736470.081    15943994.840 5  10286569.290 4
  21039303.187    21039307.464   -13360477.377 9 -12344462.413 9
 90  3 10  7  3 59.0800000  0  4G 3G12G11G13
  22302352.372    22302354.391   -60968377.867 9  68100237.471 8
  20658345.304    20658348.836   -41520140.988 9  38255166.870 8
  23742720.942    23742723.102    15976830.948 5  10312155.874 4
  21042223.771    21042227.970   -13345130.309 9 -12332503.665 7
 90  3 10  7  4 14.0800000  0  4G 3G12G11G13
  22298532.920    22298535.010   -60988450.839 9  68084596.213 8
  20661109.881    20661112.656   -41505613.004 8  38266487.365 7
  23748968.515    23748969.183    16009656.456 5  10337734.199 4
  21045151.768    21045155.642   -13329747.222 9 -12320516.859 8
 90  3 10  7  4 29.0800000  0  4G 3G12G11G13
  22294722.933    22294725.810   -61008472.833 9  68068994.679 8
  20663905.126    20663907.555   -41490929.785 9  38277928.828 8
  23755210.976    23755212.039    16042471.373 6  10363304.261 4
  21048085.110    21048089.125   -13314328.540 9 -12308502.303 7
 90  3 10  7  4 44.0800000  0  4G 3G12G11G13
  22290923.012    22290925.216   -61028443.816 9  68053432.886 8
  20666729.101    20666730.072   -41476091.621 9  38289491.029 7
  23761454.879    23761454.685    16075275.616 3  10388866.010 4
  21051026.922    21051029.783   -13298874.693 9 -12296460.336 8
 90  3 10  7  4 59.0800000  0  4G 3G12G11G13
  22287133.065    22287133.387   -61048364.068 8  68037910.632 8
  20669580.679    20669581.665   -41461098.676 9  38301173.818 7
  23767694.421    23767696.320    16108069.134 5  10414419.395 4
  21053975.138    21053977.391   -13283385.663 9 -12284390.951 8
 90  3 10  7  5 14.0800000  0  4G 3G12G11G13
  22283351.338    22283352.956   -61068233.508 9  68022427.965 7
  20672462.377    20672464.851   -41445950.850 9  38312977.303 7
  23773933.655    23773932.650    16140852.012 5  10439964.488 3
  21056928.623    21056931.264   -13267861.667 9 -12272294.334 8
 90  3 10  7  5 29.0800000  0  4G 3G12G11G13
  22279580.230    22279581.010   -61088052.330 9  68006984.727 8
  20675375.128    20675378.230   -41430648.427 9  38324901.241 8
  23780169.569    23780169.668    16173624.036 5  10465501.145 4
  21059889.013    21059890.693   -13252302.720 9 -12260170.476 8
 90  3 10  7  5 44.0800000  0  4G 3G12G11G13
  22275817.713    22275818.865   -61107820.554 9  67991580.934 8
  20678316.210    20678319.685   -41415191.573 9  38336945.534 7
  23786404.015    23786404.921    16206385.076 4  10491029.184 4
  21062857.182    21062858.959   -13236708.987 9 -12248019.531 7
 90  3 10  7  5 59.0800000  0  4G 3G12G11G13
  22272065.514    22272067.718   -61127538.520 9  67976216.294 9
  20681286.999    20681289.902   -41399580.476 9  38349110.018 8
  23792634.949    23792634.449    16239135.293 5  10516548.832 6
  21065831.856    21065833.289   -13221080.504 9 -12235841.478 8
 90  3 10  7  6 14.0800000  0  4G 3G12G11G13
  22268323.166    22268323.473   -61147205.989 9  67960891.023 8
  20684287.907    20684289.851   -41383815.196 8  38361394.640 7
  23798863.767    23798866.565    16271874.538 3  10542059.919 3
  21068811.559    21068811.669   -13205417.587 9 -12223636.606 7
 90  3 10  7  6 29.0800000  0  4G 3G12G11G13
  22264589.247    22264590.285   -61166823.283 9  67945604.848 7
  20687317.677    20687319.049   -41367895.876 9  38373799.306 8
  23805093.662    23805094.939    16304602.715 5  10567562.394 4
  21071798.037    21071799.266   -13189720.413 9 -12211405.061 8
 90  3 10  7  6 44.0800000  0  4G 3G12G11G13
  22260867.025    22260868.234   -61186390.433 8  67930357.737 8
  20690379.164    20690377.524   -41351822.681 1  38386323.846 1
  23811320.395    23811320.791    16337319.888 3  10593056.231 5
  21074792.432    21074793.886   -13173989.303 9 -12199147.041 7
 90  3 10  7  6 59.0800000  0  4G 3G12G11G13
  22257152.989    22257153.710   -61205907.449 9  67915149.700 8
  20693462.286    20693466.134   -41335595.734 1  38398968.223 1
  23817538.407    23817543.958    16370025.939 2  10618541.477 4
  21077792.486    21077793.155   -13158224.355 9 -12186862.666 6
 90  3 10  7  7 14.0800000  0  3G 3G12G13
  22253447.280    22253449.839   -61225374.615 6  67899980.492 4
  20696581.062    20696584.196   -41319215.092 6  38411732.358 4
  21080798.131    21080800.702   -13142425.575 7 -12174551.922 7
 90  3 10  7  7 29.0800000  0  4G 3G12G19G13
  22249753.478    22249755.577   -61244791.891 9  67884850.154 9
  20699727.975    20699730.238   -41302680.922 1  38424616.134 1
                  22981040.772   -73956960.742 3
  21083810.567    21083813.706   -13126593.113 9 -12162214.937 7
 90  3 10  7  7 44.0800000  0  4G 3G12G19G13
  22246067.810    22246069.172   -61264159.382 9  67869758.615 9
  20702903.697    20702909.460   -41285993.360 2  38437619.410 1
                  22976252.369   -73982205.687 3
  21086829.483    21086832.476   -13110727.240 9 -12149851.908 7
 90  3 10  7  7 59.0800000  0  4G 3G12G19G13
  22242392.360    22242394.073   -61283477.380 9  67854705.640 8
  20706107.744    20706109.919   -41269152.597 9  38450742.062 8
  22971471.175    22971472.809   -74007328.755 8  93921384.576 8
  21089854.640    21089858.302   -13094828.362 9 -12137463.171 8
 90  3 10  7  8 14.0800000  0  4G 3G12G19G13
  22238725.679    22238727.774   -61302745.563 9  67839691.491 8
  20709340.992    20709344.969   -41252158.828 9  38463983.957 8
  22966712.846    22966715.309   -74032329.766 7  93901903.268 8
  21092887.130    21092889.251   -13078896.441 9 -12125048.681 7
 90  3 10  7  8 29.0800000  0  4G 3G12G19G13
  22235068.164    22235069.129   -61321964.481 9  67824715.711 8
  20712604.288    20712607.651   -41235012.089 9  38477345.043 8
  22961978.764    22961981.250   -74057208.444 8  93882517.301 9
  21095925.226    21095927.961   -13062931.584 9 -12112608.529 8
 90  3 10  7  8 44.0800000  0  4G 3G12G19G13
  22231420.737    22231421.091   -61341133.973 9  67809778.465 8
  20715895.547    20715898.906   -41217712.609 9  38490825.147 7
  22957268.578    22957271.039   -74081964.579 6  93863226.798 4
  21098969.217    21098971.268   -13046934.109 9 -12100142.957 7
 90  3 10  7  8 59.0800000  0  4G 3G12G19G13
  22227782.037    22227782.844   -61360254.246 9  67794879.575 8
  20719216.707    20719220.359   -41200260.463 9  38504424.210 7
  22952579.542    22952582.059   -74106598.185 5  93844031.808 5
  21102019.747    21102021.377   -13030903.963 9 -12087651.957 8
 90  3 10  7  9 14.0800000  0  4G 3G12G19G13
  22224153.077    22224154.175   -61379325.277 8  67780019.037 8
  20722565.745    20722570.994   -41182655.831 9  38518142.090 8
  22947916.005    22947918.234   -74131108.843 5  93824932.594 5
  21105076.688    21105078.507   -13014841.321 9 -12075135.609 8
 90  3 10  7  9 29.0800000  0  4G 3G12G19G13
  22220533.001    22220533.973   -61398347.368 9  67765196.638 9
  20725944.503    20725948.260   -41164898.952 1  38531978.621 1
  22943275.399    22943277.462   -74155496.582 5  93805929.166 4
  21108138.864    21108140.676   -12998746.438 9 -12062594.145 8
 90  3 10  7  9 44.0800000  0  4G 3G12G19G13
  22216921.665    22216923.904   -61417320.394 9  67750412.475 7
  20729355.683    20729355.542   -41146990.070 1  38545933.559 3
  22938659.253    22938659.341   -74179761.204 6  93787021.670 4
  21111208.376    21111209.573   -12982619.496 9 -12050027.702 8
 90  3 10  7  9 59.0800000  0  4G 3G12G19G13
  22213320.398    22213322.426   -61436244.448 9  67735666.466 8
  20732791.357    20732793.052   -41128929.312 4  38560006.862 2
  22934062.882    22934064.774   -74203902.465 6  93768210.305 7
  21114282.055    21114283.965   -12966460.745 9 -12037436.458 9
 90  3 10  7 10 14.0800000  0  4G 3G12G19G13
  22209729.247    22209730.671   -61455119.900 9  67720958.348 8
  20736257.988    20736264.135   -41110716.827 2  38574198.394 1
  22929495.548    22929495.387   -74227920.311 7  93749495.081 6
  21117363.998    21117365.420   -12950270.252 9 -12024820.498 8
 90  3 10  7 10 29.0800000  0  4G 3G12G19G13
  22206146.368    22206150.378   -61473946.715 9  67706288.108 9
  20739752.885    20739752.788   -41092352.697 1  38588508.111 1
  22924946.383    22924949.158   -74251814.296 5  93730876.404 6
  21120450.981    21120452.690   -12934048.094 9 -12012179.850 8
 90  3 10  7 10 44.0800000  0  4G 3G12G19G13
  22202572.497    22202576.705   -61492724.873 9  67691655.800 8
  20743275.498    20743279.504   -41073837.195 3  38602935.757 2
  22920423.976    22920425.707   -74275584.353 6  93712354.295 5
  21123543.634    21123545.128   -12917794.475 9 -11999514.704 9
 90  3 10  7 10 59.0800000  0  4G 3G12G19G13
  22199008.109    22199012.176   -61511454.611 8  67677061.211 9
  20746825.833    20746828.888   -41055170.503 2  38617481.238 2
  22915924.466    22915925.208   -74299230.293 6  93693928.905 6
  21126642.836    21126646.052   -12901509.588 9 -11986825.180 8
 90  3 10  7 11 14.0800000  0  4G 3G12G19G13
  22195454.323    22195457.129   -61530135.959 9  67662504.325 8
  20750408.356    20750413.464   -41036352.711 3  38632144.450 1
  22911448.867    22911450.631   -74322752.063 9  93675600.249 8
  21129748.165    21129750.284   -12885193.755 9 -11974111.537 9
 90  3 10  7 11 29.0800000  0  4G 3G12G19G13
  22191908.090    22191910.109   -61548769.189 8  67647984.933 8
  20754016.549    20754019.738   -41017383.865 1  38646925.357 2
  22906995.406    22906998.228   -74346149.485 8  93657368.485 9
  21132857.797    21132861.718   -12868847.165 9 -11961373.930 9
 90  3 10  7 11 44.0800000  0  4G 3G12G19G13
  22188371.688    22188374.050   -61567354.174 9  67633503.124 8
  20757656.290    20757658.902   -40998264.229 3  38661823.768 2
  22902566.707    22902569.455   -74369422.525 8  93639233.664 9
  21135974.353    21135977.337   -12852469.596 9 -11948612.200 9
 90  3 10  7 11 59.0800000  0  4G 3G12G19G13
  22184844.552    22184846.620   -61585891.032 9  67619058.830 7
  20761322.964    20761324.315   -40978993.875 9  38676839.599 7
  22898163.637    22898164.738   -74392570.761 9  93621196.092 8
  21139097.142    21139100.722   -12836061.362 9 -11935826.561 8
 90  3 10  7 12 14.0800000  0  4G 3G12G19G13
  22181327.048    22181327.021   -61604380.001 9  67604651.867 8
  20765017.596    20765020.477   -40959573.272 9  38691972.529 7
  22893781.211    22893783.005   -74415593.900 9  93603255.989 8
  21142225.396    21142228.128   -12819622.686 9 -11923017.225 8
 90  3 10  7 12 29.0800000  0  4G 3G12G19G13
  22177816.030    22177817.057   -61622821.153 9  67590282.149 7
  20768742.709    20768745.775   -40940002.546 9  38707222.439 8
  22889424.513    22889424.188   -74438492.111 9  93585413.231 8
  21145360.132    21145362.084   -12803153.624 9 -11910184.197 8
 90  3 10  7 12 44.0800000  0  4G 3G12G19G13
  22174314.996    22174318.266   -61641214.558 8  67575949.645 8
  20772495.245    20772500.692   -40920281.767 3  38722589.262 3
  22885089.346    22885090.797   -74461265.088 9  93567668.045 8
  21148499.118    21148501.471   -12786654.388 9 -11897327.640 8
 90  3 10  7 12 59.0800000  0  4G 3G12G19G13
  22170823.454    22170826.996   -61659560.242 9  67561654.311 9
  20776277.395    20776279.165   -40900411.109 4  38738072.879 3
  22880780.547    22880783.459   -74483912.588 9  93550020.634 9
  21151644.518    21151646.896   -12770125.253 9 -11884447.803 8
 90  3 10  7 13 14.0800000  0  4G 3G12G19G13
  22167340.353    22167346.141   -61677858.463 9  67547395.973 8
  20780087.007    20780091.439   -40880390.739 4  38753673.143 2
  22876494.928    22876496.653   -74506434.655 9  93532470.983 9
  21154795.705    21154799.125   -12753566.187 9 -11871544.643 7
 90  3 10  7 13 29.0800000  0  4G 3G12G19G13
  22163869.400    22163871.947   -61696109.345 8  67533174.532 9
  20783923.680    20783927.070   -40860220.899 9  38769389.915 7
  22872234.184    22872233.799   -74528830.766 9  93515019.471 8
  21157952.477    21157953.710   -12736977.717 9 -11858618.565 7
 90  3 10  7 13 44.0800000  0  4G 3G12G19G13
  22160407.069    22160408.345   -61714312.713 9  67518990.106 8
  20787791.885    20787793.244   -40839901.704 9  38785223.055 7
  22867994.477    22867996.912   -74551100.897 9  93497666.106 8
  21161115.251    21161116.004   -12720359.616 9 -11845669.382 7
 90  3 10  7 13 59.0800000  0  4G 3G12G19G13
  22156952.269    22156953.047   -61732468.908 9  67504842.446 9
  20791685.528    20791689.046   -40819433.302 9  38801172.427 7
  22863778.890    22863782.238   -74573245.053 8  93480410.931 8
  21164282.931    21164283.487   -12703712.072 9 -11832697.237 8
 90  3 10  7 14 14.0800000  0  4G 3G12G19G13
  22153504.852    22153506.744   -61750577.783 9  67490731.622 8
  20795609.851    20795611.218   -40798816.043 9  38817237.816 6
  22859590.137    22859593.184   -74595262.929 9  93463254.143 7
  21167456.278    21167456.385   -12687035.150 9 -11819702.220 7
 90  3 10  7 14 29.0800000  0  4G 3G12G19G13
  22150068.280    22150070.980   -61768639.673 9  67476657.423 8
  20799561.704    20799563.104   -40778050.144 9  38833419.029 7
  22855424.536    22855426.030   -74617154.457 8  93446195.818 8
  21170635.640    21170637.615   -12670329.370 9 -11806684.739 7
 90  3 10  7 14 44.0800000  0  4G 3G12G19G13
  22146640.931    22146641.014   -61786654.732 9  67462619.741 8
  20803540.462    20803544.033   -40757135.684 9  38849715.972 7
  22851283.906    22851285.055   -74638919.176 8  93429236.276 8
  21173818.193    21173820.655   -12653594.556 9 -11793644.619 8
 90  3 10  7 14 59.0800000  0  4G 3G12G19G13
  22143222.152    22143221.738   -61804622.734 9  67448618.701 8
  20807547.405    20807552.081   -40736072.826 9  38866128.591 7
  22847166.053    22847168.825   -74660557.269 8  93412375.436 9
  21177008.493    21177009.642   -12636830.901 9 -11780582.024 7
 90  3 10  7 15 14.0800000  0  4G 3G12G19G13
  22139811.682    22139810.398   -61822544.085 8  67434654.032 8
  20811584.739    20811587.844   -40714861.716 9  38882656.715 7
  22843073.916    22843075.678   -74682068.463 9  93395613.462 8
  21180203.982    21180205.772   -12620038.543 9 -11767497.088 7
 90  3 10  7 15 29.0800000  0  4G 3G12G19G13
  22136410.168    22136410.427   -61840418.755 8  67420725.728 7
  20815649.866    20815651.837   -40693502.640 9  38899300.142 8
  22839003.700    22839005.998   -74703452.554 9  93378950.542 8
  21183405.853    21183406.051   -12603217.912 9 -11754390.094 7
 90  3 10  7 15 44.0800000  0  4G 3G12G19G13
  22133017.467    22133019.373   -61858246.942 9  67406833.648 7
  20819743.752    20819745.124   -40671995.831 9  38916058.683 8
  22834958.462    22834959.858   -74724709.356 9  93362386.800 8
  21186611.395    21186611.837   -12586369.154 9 -11741261.206 7
 90  3 10  7 15 59.0800000  0  4G 3G12G19G13
  22129632.813    22129635.539   -61876028.731 9  67392977.716 8
  20823864.629    20823865.722   -40650341.546 9  38932932.144 8
  22830937.374    22830939.789   -74745838.874 9  93345922.237 9
  21189823.451    21189823.741   -12569492.116 9 -11728110.262 6
 90  3 10  7 16 14.0800000  0  4G 3G12G19G13
  22126257.874    22126259.727   -61893764.140 9  67379157.928 9
  20828013.807    20828014.931   -40628539.905 9  38949920.427 8
  22826941.797    22826942.386   -74766840.695 9  93329557.183 8
  21193040.178    21193040.104   -12552587.051 8 -11714937.478 6
 90  3 10  7 16 29.0800000  0  4G 3G12G19G13
  22122890.700    22122894.004   -61911453.325 9  67365374.156 9
  20832189.226    20832193.730   -40606591.068 9  38967023.391 9
  22822968.640    22822969.316   -74787714.911 9  93313291.555 9
  21196263.418    21196264.532   -12535654.275 9 -11701743.132 7
 90  3 10  7 16 44.0800000  0  4G 3G12G19G13
  22119532.755    22119536.594   -61929096.381 9  67351626.324 8
  20836393.694    20836397.183   -40584495.279 9  38984240.875 9
  22819021.912    22819022.243   -74808461.540 9  93297125.341 8
  21199491.285    21199491.609   -12518693.703 9 -11688527.095 6
 90  3 10  7 16 59.0800000  0  4G 3G12G19G13
  22116185.137    22116188.096   -61946693.417 9  67337914.357 9
  20840625.379    20840629.492   -40562252.839 9  39001572.646 7
  22815099.224    22815097.693   -74829080.212 9  93281058.856 9
  21202722.810    21202725.504   -12501705.445 9 -11675289.490 7
 90  3 10  7 17 14.0800000  0  4G 3G12G19G13
  22112844.515    22112847.905   -61964244.575 9  67324238.136 8
  20844885.055    20844889.029   -40539863.930 8  39019018.537 8
  22811199.548    22811198.215   -74849570.865 9  93265092.103 7
  21205960.016    21205961.431   -12484689.797 9 -11662030.531 7
 90  3 10  7 17 29.0800000  0  4G 3G12G19G13
  22109514.757    22109516.267   -61981749.823 9  67310597.700 8
  20849173.632    20849177.372   -40517328.784 9  39036578.374 7
  22807324.926    22807323.382   -74869933.261 9  93249225.315 8
  21209203.332    21209205.073   -12467646.829 9 -11648750.294 7
 90  3 10  7 17 44.0800000  0  4G 3G12G19G13
  22106192.267    22106193.939   -61999209.263 9  67296992.952 8
  20853491.082    20853493.139   -40494647.555 8  39054252.042 8
  22803475.371    22803473.956   -74890167.441 9  93233458.422 8
  21212451.373    21212453.145   -12450576.695 9 -11635448.883 6
 90  3 10  7 17 59.0800000  0  4G 3G12G19G13
  22102878.965    22102880.178   -62016623.059 9  67283423.776 8
  20857835.034    20857836.366   -40471820.430 9  39072039.375 7
  22799648.549    22799647.951   -74910272.891 9  93217791.834 8
  21215704.367    21215707.651   -12433479.633 9 -11622126.507 7
 90  3 10  7 18 14.0800000  0  4G 3G12G19G13
  22099572.691    22099574.379   -62033991.440 9  67269889.996 8
  20862206.865    20862207.584   -40448847.656 9  39089940.238 7
  22795847.281    22795847.014   -74930249.473 9  93202225.665 8
  21218962.808    21218965.453   -12416355.892 9 -11608783.322 7
 90  3 10  7 18 29.0800000  0  4G 3G12G19G13
  22096275.929    22096278.519   -62051314.434 8  67256391.585 9
  20866605.312    20866606.150   -40425729.409 9  39107954.440 9
  22792069.870    22792069.747   -74950097.201 9  93186759.905 7
  21222227.570    21222229.712   -12399205.319 9 -11595419.211 7
 90  3 10  7 18 44.0800000  0  4G 3G12G19G13
  22092988.946    22092989.465   -62068592.040 8  67242928.533 8
  20871033.201    20871033.609   -40402465.907 9  39126081.835 8
  22788317.206    22788317.336   -74969815.957 9  93171394.639 8
  21225497.252    21225499.230   -12382028.197 9 -11582034.453 8
 90  3 10  7 18 59.0800000  0  4G 3G12G19G13
  22089708.368    22089710.894   -62085824.407 8  67229500.716 9
  20875487.711    20875489.009   -40379057.363 9  39144322.254 7
  22784589.599    22784589.843   -74989405.652 9  93156129.937 9
  21228771.342    21228772.269   -12364824.730 9 -11568629.125 9
 90  3 10  7 19 14.0800000  0  4G 3G12G19G13
  22086437.390    22086439.984   -62103011.660 8  67216108.060 8
  20879969.890    20879971.375   -40355504.078 9  39162675.449 8
  22780885.571    22780885.365   -75008866.276 9  93140965.828 8
  21232049.423    21232052.480   -12347595.018 9 -11555203.388 8
 90  3 10  7 19 29.0800000  0  4G 3G12G19G13
  22083176.737    22083178.640   -62120153.931 9  67202750.457 8
  20884479.115    20884481.746   -40331806.410 9  39181141.149 8
  22777207.835    22777207.497   -75028197.559 9  93125902.479 9
  21235333.594    21235335.569   -12330339.086 9 -11541757.216 8
 90  3 10  7 19 44.0800000  0  4G 3G12G19G13
  22079924.257    22079925.311   -62137251.386 9  67189427.761 8
  20889016.274    20889018.948   -40307964.460 9  39199719.270 8
  22773552.173    22773554.347   -75047399.247 9  93110940.114 7
  21238620.376    21238624.097   -12313057.100 9 -11528290.744 8
 90  3 10  7 19 59.0800000  0  4G 3G12G19G13
  22076678.114    22076680.301   -62154304.007 9  67176140.008 9
  20893581.017    20893583.946   -40283978.508 9  39218409.606 7
  22769922.557    22769925.978   -75066471.217 9  93096078.833 8
  21241913.791    21241917.598   -12295749.357 8 -11514804.201 8
 90  3 10  7 20 14.0800000  0  4G 3G12G19G13
  22073441.593    22073444.023   -62171311.854 9  67162887.155 8
  20898171.948    20898174.679   -40259848.710 9  39237212.052 8
  22766318.860    22766319.133   -75085413.345 9  93081318.748 7
  21245211.742    21245215.460   -12278415.957 9 -11501297.657 8
 90  3 10  7 20 29.0800000  0  4G 3G12G19G13
  22070213.335    22070214.840   -62188275.092 9  67149669.063 9
  20902791.211    20902794.718   -40235575.307 9  39256126.372 6
  22762738.152    22762740.201   -75104225.453 9  93066659.963 8
  21248515.852    21248518.880   -12261057.073 9 -11487771.256 8
 90  3 10  7 20 44.0800000  0  4G 3G12G19G13
  22066994.580    22066995.851   -62205193.852 9  67136485.633 7
  20907436.745    20907441.607   -40211158.631 9  39275152.360 8
  22759184.276    22759186.155   -75122907.348 9  93052102.644 8
  21251824.375    21251826.943   -12243672.704 8 -11474224.995 8
 90  3 10  7 20 59.0800000  0  4G 3G12G19G13
  22063783.584    22063784.054   -62222068.270 9  67123336.732 7
  20912110.926    20912114.575   -40186598.857 9  39294289.840 8
  22755653.808    22755655.988   -75141459.137 9  93037646.700 9
  21255137.537    21255140.208   -12226262.962 8 -11460658.980 9
 90  3 10  7 21 14.0800000  0  4G 3G12G19G13
  22060580.427    22060583.411   -62238898.296 9  67110222.433 9
  20916811.755    20916814.980   -40161896.211 9  39313538.644 8
  22752148.218    22752150.132   -75159880.628 9  93023292.303 8
  21258455.455    21258457.965   -12208828.035 8 -11447073.331 8
 90  3 10  7 21 29.0800000  0  4G 3G12G19G13
  22057385.615    22057388.930   -62255684.061 9  67097142.618 8
  20921540.436    20921541.901   -40137050.955 9  39332898.580 7
  22748668.160    22748669.571   -75178171.767 9  93009039.469 7
  21261778.679    21261779.671   -12191368.088 9 -11433468.182 8
 90  3 10  7 21 44.0800000  0  4G 3G12G19G13
  22054200.722    22054202.762   -62272425.773 9  67084097.137 8
  20926294.605    20926297.270   -40112063.329 9  39352369.437 8
  22745212.352    22745212.706   -75196332.201 9  92994888.472 8
  21265105.681    21265106.634   -12173883.385 9 -11419843.749 7
 90  3 10  7 21 59.0800000  0  4G 3G12G19G13
  22051023.489    22051026.518   -62289123.501 9  67071085.926 9
  20931076.472    20931078.859   -40086933.565 9  39371951.040 7
  22741781.016    22741783.138   -75214362.098 9  92980839.206 8
  21268437.861    21268438.582   -12156373.796 9 -11406199.910 8
 90  3 10  7 22 14.0800000  0  4G 3G12G19G13
  22047855.121    22047857.715   -62305777.373 9  67058108.899 8
  20935886.532    20935888.630   -40061661.835 9  39391643.288 7
  22738374.176    22738375.427   -75232261.350 9  92966891.743 8
  21271774.678    21271775.648   -12138839.432 9 -11392536.764 7
 90  3 10  7 22 29.0800000  0  4G 3G12G19G13
  22044693.561    22044697.072   -62322387.250 9  67045166.155 9
  20940721.334    20940724.485   -40036248.388 9  39411445.970 8
  22734993.396    22734995.622   -75250029.691 9  92953046.271 8
  21275115.759    21275117.696   -12121280.585 9 -11378854.543 8
 90  3 10  7 22 44.0800000  0  4G 3G12G19G13
  22041540.246    22041543.874   -62338953.524 9  67032257.388 9
  20945584.556    20945587.813   -40010693.486 9  39431358.860 8
  22731637.882    22731638.807   -75267666.969 8  92939302.940 8
  21278461.136    21278464.135   -12103697.494 9 -11365153.435 8
 90  3 10  7 22 59.0800000  0  4G 3G12G19G13
  22038395.895    22038398.685   -62355476.185 9  67019382.599 8
  20950474.302    20950478.661   -39984997.349 9  39451381.810 7
  22728306.785    22728306.704   -75285172.986 9  92925661.887 9
  21281812.060    21281813.499   -12086090.287 9 -11351433.540 7
 90  3 10  7 23 14.0800000  0  4G 3G12G19G13
  22035259.093    22035261.651   -62371955.268 9  67006541.785 9
  20955391.576    20955394.155   -39959160.227 9  39471514.619 7
  22725000.025    22725001.657   -75302547.441 9  92912123.357 8
  21285166.649    21285168.602   -12068458.927 9 -11337694.807 7
 90  3 10  7 23 29.0800000  0  4G 3G12G19G13
  22032132.068    22032134.185   -62388391.100 9  66993734.657 8
  20960333.728    20960336.373   -39933182.298 9  39491757.155 7
  22721718.966    22721719.831   -75319790.463 9  92898687.219 8
  21288526.477    21288527.630   -12050803.655 9 -11323937.469 7
 90  3 10  7 23 44.0800000  0  4G 3G12G19G13
  22029014.516    22029014.266   -62404783.519 9  66980961.375 8
  20965304.072    20965307.581   -39907063.928 9  39512109.115 7
  22718463.412    22718463.412   -75336901.901 9  92885353.625 7
  21291889.968    21291891.802   -12033124.529 9 -11310161.516 7
 90  3 10  7 23 59.0800000  0  4G 3G12G19G13
  22025903.869    22025902.740   -62421132.855 9  66968221.648 7
  20970300.930    20970302.576   -39880805.266 9  39532570.394 7
  22715231.277    22715232.547   -75353881.976 9  92872122.397 7
  21295258.608    21295260.304   -12015421.739 8 -11296367.139 7
 90  3 10  7 24 14.0800000  0  4G 3G12G19G13
  22022799.921    22022800.445   -62437439.062 9  66955515.522 8
  20975324.928    20975326.642   -39854406.635 9  39553140.753 7
  22712025.917    22712026.169   -75370730.495 9  92858993.686 8
  21298630.913    21298633.868   -11997695.291 9 -11282554.323 7
 90  3 10  7 24 29.0800000  0  4G 3G12G19G13
  22019704.134    22019705.458   -62453702.284 9  66942842.893 8
  20980375.458    20980377.553   -39827868.243 9  39573820.023 6
  22708844.466    22708844.986   -75387447.297 9  92845967.610 8
  21302009.170    21302012.237   -11979945.227 9 -11268723.080 7
 90  3 10  7 24 44.0800000  0  4G 3G12G19G13
  22016616.747    22016620.126   -62469922.580 9  66930203.683 9
  20985451.996    20985454.626   -39801190.433 9  39594607.919 6
  22705687.850    22705689.506   -75404032.054 9  92833044.415 8
  21305392.746    21305395.434   -11962171.883 8 -11254873.731 8
 90  3 10  7 24 59.0800000  0  4G 3G12G19G13
  22013538.848    22013541.491   -62486100.121 9  66917597.810 8
  20990555.401    20990557.954   -39774373.522 9  39615504.214 7
  22702558.040    22702559.883   -75420484.812 9  92820224.091 8
  21308778.392    21308781.413   -11944375.357 9 -11241006.308 8
 90  3 10  7 25 14.0800000  0  4G 3G12G19G13
  22010467.294    22010471.343   -62502234.984 9  66905025.199 8
  20995685.316    20995687.840   -39747417.819 9  39636508.647 7
  22699451.881    22699453.062   -75436805.468 9  92807506.700 9
  21312169.499    21312173.167   -11926555.879 9 -11227120.996 8
 90  3 10  7 25 29.0800000  0  4G 3G12G19G13
  22007406.321    22007409.388   -62518327.198 9  66892485.820 8
  21000841.622    21000843.946   -39720323.516 9  39657621.083 8
  22696371.466    22696372.235   -75452993.839 9  92794892.372 8
  21315564.438    21315567.077   -11908713.524 9 -11213217.848 7
 90  3 10  7 25 44.0800000  0  4G 3G12G19G13
  22004353.982    22004354.805   -62534376.988 9  66879979.495 8
  21006023.493    21006025.899   -39693090.834 9  39678841.348 7
  22693316.331    22693318.343   -75469049.708 9  92782381.293 8
  21318964.876    21318967.183   -11890848.193 9 -11199296.805 7
 90  3 10  7 25 59.0800000  0  4G 3G12G19G13
  22001308.364    22001308.996   -62550384.358 9  66867506.231 8
  21011231.412    21011233.931   -39665720.017 9  39700169.255 7
  22690286.849    22690287.526   -75484973.036 9  92769973.512 9
  21322368.858    21322370.610   -11872960.157 9 -11185358.041 7
 90  3 10  7 26 14.0800000  0  4G 3G12G19G13
  21998268.626    21998270.598   -62566349.497 9  66855065.879 8
  21016465.122    21016467.930   -39638211.321 9  39721604.596 7
  22687281.133    22687282.745   -75500763.819 9  92757668.994 7
  21325777.594    21325778.718   -11855049.541 9 -11171401.690 7
 90  3 10  7 26 29.0800000  0  4G 3G12G19G13
  21995239.053    21995242.286   -62582272.325 9  66842658.495 8
  21021725.983    21021731.034   -39610565.072 9  39743147.112 9
  22684300.353    22684302.105   -75516421.742 9  92745468.007 9
  21329189.391    21329191.474   -11837116.382 8 -11157427.788 7
 90  3 10  7 26 44.0800000  0  4G 3G12G19G13
  21992216.554    21992218.942   -62598153.057 9  66830283.919 8
  21027012.440    21027017.784   -39582781.518 9  39764796.622 7
  22681346.104    22681349.077   -75531947.063 9  92733370.333 8
  21332606.400    21332607.913   -11819160.854 9 -11143436.443 8
 90  3 10  7 26 59.0800000  0  4G 3G12G19G13
  21989202.446    21989205.257   -62613991.882 9  66817941.999 7
  21032325.738    21032330.036   -39554860.924 9  39786552.915 9
  22678417.205    22678419.576   -75547339.298 9  92721376.376 8
  21336026.439    21336029.335   -11801183.143 9 -11129427.837 8
 90  3 10  7 27 14.0800000  0  4G 3G12G19G13
  21986197.010    21986197.957   -62629788.725 9  66805632.791 7
  21037665.365    21037669.088   -39526803.500 9  39808415.824 8
  22675512.246    22675516.260   -75562598.551 9  92709486.058 8
  21339452.948    21339455.116   -11783183.383 9 -11115402.046 8
 90  3 10  7 27 29.0800000  0  4G 3G12G19G13
  21983199.321    21983200.467   -62645543.837 9  66793356.091 8
  21043031.467    21043033.444   -39498609.443 9  39830385.227 8
  22672635.224    22672637.646   -75577724.719 9  92697699.454 7
  21342881.773    21342885.014   -11765161.734 9 -11101359.200 8
 90  3 10  7 27 44.0800000  0  4G 3G12G19G13
  21980207.460    21980208.509   -62661257.235 9  66781111.897 7
  21048422.086    21048424.885   -39470279.086 9  39852460.823 7
  22669783.387    22669782.901   -75592717.734 9  92686016.583 7
  21346315.462    21346318.445   -11747118.294 9 -11087299.372 8
 90  3 10  7 27 59.0800000  0  4G 3G12G19G13
  21977225.129    21977226.751   -62676929.137 9  66768900.033 9
  21053839.733    21053841.498   -39441812.777 9  39874642.334 7
  22666955.435    22666955.880   -75607577.663 9  92674437.415 8
  21349753.389    21349755.999   -11729053.192 9 -11073222.664 7
 90  3 10  7 28 14.0800000  0  4G 3G12G19G13
  21974250.964    21974252.859   -62692559.624 9  66756720.437 7
  21059281.853    21059284.938   -39413210.826 9  39896929.566 7
  22664152.288    22664155.475   -75622304.297 9  92662962.110 7
  21353195.893    21353198.004   -11710966.544 9 -11059129.171 7
 90  3 10  7 28 29.0800000  0  4G 3G12G19G13
  21971285.347    21971288.203   -62708148.564 9  66744573.207 8
  21064749.435    21064752.847   -39384473.502 9  39919322.277 7
  22661375.951    22661376.973   -75636897.345 9  92651590.921 8
  21356642.031    21356643.515   -11692858.353 9 -11045018.861 8
 90  3 10  7 28 44.0800000  0  4G 3G12G19G13
  21968326.128    21968328.837   -62723696.178 9  66732458.202 8
  21070244.406    21070247.554   -39355601.099 9  39941820.224 7
  22658623.900    22658625.803   -75651356.820 9  92640323.798 8
  21360091.493    21360093.106   -11674728.804 9 -11030891.953 7
 90  3 10  7 28 59.0800000  0  4G 3G12G19G13
  21965375.506    21965378.485   -62739202.588 9  66720375.290 8
  21075764.941    21075767.897   -39326593.873 9  39964423.246 8
  22655898.116    22655899.765   -75665682.891 9  92629160.629 8
  21363545.275    21363547.083   -11656578.077 9 -11016748.505 8
 90  3 10  7 29 14.0800000  0  4G 3G12G19G13
  21962431.899    21962434.562   -62754668.006 9  66708324.330 8
  21081309.827    21081313.580   -39297452.169 9  39987131.044 7
  22653197.340    22653199.125   -75679875.226 9  92618101.665 8
  21367003.377    21367005.031   -11638406.249 9 -11002588.632 7
 90  3 10  7 29 29.0800000  0  4G 3G12G19G13
  21959496.938    21959499.251   -62770092.405 9  66696305.327 9
  21086880.888    21086885.167   -39268176.205 9  40009943.457 8
  22650521.929    22650523.081   -75693933.711 9  92607147.000 9
  21370465.456    21370467.367   -11620213.533 9 -10988412.495 7
 90  3 10  7 29 44.0800000  0  4G 3G12G19G13
  21956570.203    21956572.130   -62785475.912 9  66684318.206 8
  21092478.153    21092481.063   -39238766.275 8  40032860.277 8
  22647871.916    22647872.704   -75707858.201 9  92596296.741 9
  21373931.058    21373933.738   -11602000.086 9 -10974220.191 7
 90  3 10  7 29 59.0800000  0  4G 3G12G19G13
  21953651.194    21953651.792   -62800818.639 9  66672362.861 9
  21098099.920    21098102.985   -39209222.612 9  40055881.311 8
  22645246.962    22645248.338   -75721648.777 9  92585550.851 7
  21377401.492    21377402.386   -11583765.825 9 -10960011.667 7
 90  3 10  7 30 14.0800000  0  4G 3G12G19G13
  21950739.841    21950740.411   -62816120.697 9  66660439.181 8
  21103747.932    21103749.478   -39179545.617 9  40079006.249 8
  22642650.393    22642650.718   -75735305.232 9  92574909.456 7
  21380875.080    21380876.519   -11565510.759 9 -10945786.936 7
 90  3 10  7 30 29.0800000  0  4G 3G12G19G13
  21947835.083    21947835.931   -62831382.170 9  66648547.134 8
  21109420.248    21109423.262   -39149735.618 9  40102234.828 8
  22640076.370    22640077.956   -75748827.697 9  92564372.452 7
  21384353.301    21384353.804   -11547235.194 9 -10931546.226 7
 90  3 10  7 30 44.0800000  0  4G 3G12G19G13
  21944937.852    21944939.521   -62846603.094 9  66636686.685 8
  21115118.203    21115120.118   -39119792.701 9  40125566.976 9
  22637529.565    22637530.409   -75762216.082 8  92553939.936 8
  21387835.183    21387835.920   -11528938.997 9 -10917289.452 7
 90  3 10  7 30 59.0800000  0  4G 3G12G19G13
  21942048.207    21942049.706   -62861783.486 9  66624857.813 8
  21120840.535    21120842.948   -39089717.196 9  40149002.423 8
  22635005.434    22635008.904   -75775470.403 9  92543611.878 9
  21391319.814    21391321.208   -11510622.361 9 -10903016.761 8
 90  3 10  7 31 14.0800000  0  4G 3G12G19G13
  21939167.328    21939167.828   -62876923.743 9  66613060.211 8
  21126589.551    21126590.704   -39059509.483 9  40172540.880 7
  22632508.719    22632511.518   -75788590.312 9  92533388.568 8
  21394808.795    21394810.750   -11492285.448 9 -10888728.269 8
 90  3 10  7 31 29.0800000  0  4G 3G12G19G13
  21936292.422    21936295.253   -62892023.749 9  66601293.976 8
  21132363.052    21132364.493   -39029169.847 9  40196182.157 8
  22630037.436    22630040.448   -75801575.817 9  92523269.973 9
  21398301.584    21398303.466   -11473928.460 9 -10874424.145 8
 90  3 10  7 31 44.0800000  0  4G 3G12G19G13
  21933426.253    21933429.514   -62907083.615 9  66589559.032 7
  21138162.001    21138163.659   -38998698.601 8  40219925.975 7
  22627592.357    22627595.685   -75814426.883 9  92513256.148 8
  21401798.178    21401800.306   -11455551.673 9 -10860104.587 8
 90  3 10  7 31 59.0800000  0  4G 3G12G19G13
  21930568.628    21930570.832   -62922103.582 8  66577855.181 8
  21143984.343    21143986.172   -38968096.003 9  40243772.131 8
  22625171.634    22625175.543   -75827143.416 9  92503347.173 9
  21405300.636    21405301.778   -11437154.936 9 -10845769.468 8
 90  3 10  7 32 14.0800000  0  4G 3G12G19G13
  21927718.754    21927720.652   -62937083.662 9  66566182.395 7
  21149833.346    21149835.072   -38937362.361 9  40267720.406 8
  22622777.335    22622780.855   -75839725.456 9  92493542.990 9
  21408803.444    21408806.844   -11418738.400 9 -10831418.933 8
 90  3 10  7 32 29.0800000  0  4G 3G12G19G13
  21924875.652    21924877.498   -62952023.777 9  66554540.764 8
  21155706.488    21155708.544   -38906497.916 9  40291770.596 7
  22620409.587    22620413.175   -75852172.507 9  92483843.987 9
  21412313.114    21412315.883   -11400302.221 9 -10817053.079 9
 90  3 10  7 32 44.0800000  0  4G 3G12G19G13
  21922040.926    21922041.390   -62966924.183 9  66542930.080 7
  21161603.907    21161607.325   -38875503.046 8  40315922.419 8
  22618067.144    22618068.919   -75864484.733 9  92474250.063 8
  21415825.335    21415828.159   -11381846.426 9 -10802671.936 7
 90  3 10  7 32 59.0800000  0  4G 3G12G19G13
  21919213.660    21919214.648   -62981784.956 9  66531350.271 8
  21167526.714    21167530.060   -38844378.041 9  40340175.656 8
  22615750.928    22615751.132   -75876662.411 9  92464760.954 9
  21419341.247    21419344.644   -11363371.233 9 -10788275.683 9
 90  3 10  7 33 14.0800000  0  4G 3G12G19G13
  21916393.862    21916396.313   -62996606.336 9  66519801.154 8
  21173474.708    21173477.613   -38813123.034 8  40364530.188 7
  22613459.675    22613460.686   -75888705.371 9  92455376.828 8
  21422860.678    21422863.277   -11344876.846 9 -10773864.460 9
 90  3 10  7 33 29.0800000  0  4G 3G12G19G13
  21913581.799    21913581.879   -63011388.172 9  66508282.861 8
  21179447.107    21179449.491   -38781738.426 9  40388985.714 7
  22611193.066    22611193.455   -75900613.415 9  92446097.821 8
  21426383.685    21426385.496   -11326363.350 9 -10759438.369 9
 90  3 10  7 33 44.0800000  0  4G 3G12G19G13
  21910776.388    21910776.414   -63026130.719 9  66496795.159 9
  21185444.874    21185448.060   -38750224.584 9  40413541.957 7
  22608952.394    22608953.008   -75912386.495 9  92436923.974 8
  21429910.301    21429911.871   -11307830.629 9 -10744997.281 8
 90  3 10  7 33 59.0800000  0  4G 3G12G19G13
  21907978.150    21907978.345   -63040834.001 9  66485338.067 8
  21191466.214    21191469.116   -38718581.770 9  40438198.672 8
  22606737.612    22606738.193   -75924024.500 9  92427855.396 9
  21433441.096    21433442.817   -11289278.781 9 -10730541.292 8
 90  3 10  7 34 14.0800000  0  4G 3G12G19G13
  21905187.019    21905187.844   -63055498.138 9  66473911.485 8
  21197512.546    21197514.956   -38686810.363 9  40462955.597 9
  22604549.456    22604550.617   -75935527.399 9  92418892.097 7
  21436974.665    21436976.990   -11270708.065 9 -10716070.608 7
 90  3 10  7 34 29.0800000  0  4G 3G12G19G13
  21902404.586    21902404.089   -63070123.190 9  66462515.349 9
  21203583.453    21203584.835   -38654910.665 9  40487812.495 8
  22602386.091    22602386.431   -75946895.102 9  92410034.155 9
  21440511.468    21440515.123   -11252118.556 9 -10701585.285 8
 90  3 10  7 34 44.0800000  0  4G 3G12G19G13
  21899628.746    21899628.853   -63084709.444 9  66451149.443 8
  21209677.059    21209679.893   -38622882.970 9  40512769.133 8
  22600247.795    22600248.171   -75958127.445 9  92401281.694 7
  21444052.161    21444055.545   -11233510.178 9 -10687085.257 8
 90  3 10  7 34 59.0800000  0  4G 3G12G19G13
  21896859.394    21896861.256   -63099256.638 9  66439813.960 9
  21215795.349    21215798.853   -38590727.557 9  40537825.285 8
  22598135.389    22598136.561   -75969224.528 8  92392634.607 8
  21447597.920    21447598.901   -11214883.185 9 -10672570.708 8
 90  3 10  7 35 14.0800000  0  4G 3G12G19G13
  21894098.300    21894100.248   -63113765.223 9  66428508.572 8
  21221938.595    21221942.545   -38558444.679 9  40562980.751 8
  22596048.589    22596051.579   -75980186.361 8  92384092.903 7
  21451145.282    21451146.583   -11196237.486 9 -10658041.597 8
 90  3 10  7 35 29.0800000  0  4G 3G12G19G13
  21891345.062    21891347.470   -63128235.192 9  66417233.281 8
  21228106.541    21228109.824   -38526034.779 9  40588235.202 8
  22593990.008    22593989.805   -75991012.958 9  92375656.586 9
  21454697.054    21454698.635   -11177573.411 9 -10643498.165 7
 90  3 10  7 35 44.0800000  0  4G 3G12G19G13
  21888598.926    21888601.082   -63142666.582 9  66405988.038 8
  21234298.338    21234301.435   -38493498.205 9  40613588.357 7
  22591955.504    22591955.471   -76001704.045 9  92367325.848 7
  21458251.915    21458252.951   -11158890.806 9 -10628940.277 8
 90  3 10  7 35 59.0800000  0  4G 3G12G19G13
  21885860.253    21885862.957   -63157059.416 9  66394772.851 8
  21240514.019    21240516.364   -38460835.177 9  40639040.037 7
  22589946.061    22589948.083   -76012259.709 9  92359100.640 8
  21461810.640    21461811.808   -11140190.111 9 -10614368.294 8
 90  3 10  7 36 14.0800000  0  4G 3G12G19G13
  21883128.342    21883131.184   -63171413.892 9  66383587.562 9
  21246753.560    21246756.127   -38428046.016 9  40664590.012 8
  22587963.312    22587966.206   -76022680.149 9  92350980.799 8
  21465373.371    21465374.025   -11121471.327 9 -10599782.204 7
 90  3 10  7 36 29.0800000  0  4G 3G12G19G13
  21880402.843    21880405.949   -63185730.122 9  66372432.069 8
  21253017.323    21253019.764   -38395131.053 9  40690238.031 7
  22586005.144    22586008.235   -76032965.042 9  92342966.602 8
  21468938.621    21468938.871   -11102734.809 9 -10585182.300 8
 90  3 10  7 36 44.0800000  0  4G 3G12G19G13
  21877685.346    21877689.332   -63200008.139 9  66361306.353 8
  21259304.219    21259306.829   -38362090.572 9  40715983.852 7
  22584074.912    22584077.089   -76043114.406 9  92335058.011 9
  21472507.647    21472508.441   -11083980.475 9 -10570568.518 7
 90  3 10  7 36 59.0800000  0  4G 3G12G19G13
  21874977.961    21874977.545   -63214248.196 9  66350210.228 8
  21265615.294    21265617.950   -38328924.898 9  40741827.222 8
  22582169.911    22582171.681   -76053128.028 9  92327255.200 9
  21476078.507    21476080.286   -11065208.172 9 -10555940.738 8
 90  3 10  7 37 14.0800000  0  4G 3G12G19G13
  21872275.201    21872275.830   -63228450.156 9  66339143.790 9
  21271949.902    21271954.077   -38295634.467 9  40767767.815 7
  22580288.218    22580292.411   -76063006.029 9  92319558.057 8
  21479655.662    21479655.938   -11046418.242 9 -10541299.221 7
 90  3 10  7 37 29.0800000  0  4G 3G12G19G13
  21869579.543    21869581.034   -63242614.170 9  66328106.902 8
  21278309.997    21278311.880   -38262219.613 9  40793805.356 7
  22578434.902    22578437.930   -76072748.317 9  92311966.665 9
  21483232.874    21483234.587   -11027610.613 9 -10526643.915 8
 90  3 10  7 37 44.0800000  0  4G 3G12G19G13
  21866891.474    21866892.226   -63256740.463 9  66317099.424 8
  21284693.385    21284694.181   -38228680.632 9  40819939.626 7
  22576606.981    22576608.383   -76082354.985 9  92304480.946 7
  21486816.438    21486818.093   -11008785.258 8 -10511974.807 7
 90  3 10  7 37 59.0800000  0  4G 3G12G19G13
  21864211.505    21864210.515   -63270828.932 9  66306121.396 8
  21291098.864    21291099.211   -38195017.795 9  40846170.407 8
  22574805.037    22574807.237   -76091825.920 9  92297100.986 9
  21490400.549    21490403.490   -10989942.377 9 -10497292.070 7
 90  3 10  7 38 14.0800000  0  4G 3G12G19G13
  21861537.235    21861536.970   -63284879.828 9  66295172.645 8
  21297525.823    21297527.357   -38161231.495 9  40872497.387 8
  22573028.634    22573029.988   -76101161.196 9  92289826.747 8
  21493990.436    21493992.562   -10971082.172 9 -10482595.792 8
 90  3 10  7 38 29.0800000  0  4G 3G12G19G13
  21858868.904    21858870.615   -63298893.246 9  66284253.091 9
  21303979.140    21303980.230   -38127321.963 9  40898920.377 7
  22571278.690    22571278.756   -76110360.733 9  92282658.256 8
  21497582.186    21497586.459   -10952204.699 9 -10467886.074 9
 90  3 10  7 38 44.0800000  0  4G 3G12G19G13
  21856207.240    21856212.829   -63312869.323 9  66273362.642 8
  21310454.974    21310456.228   -38093289.604 9  40925439.091 7
  22569553.759    22569555.227   -76119424.392 9  92275595.663 7
  21501176.858    21501180.528   -10933310.193 9 -10453163.079 9
 90  3 10  7 38 59.0800000  0  4G 3G12G19G13
  21853554.632    21853559.933   -63326807.984 8  66262501.346 8
  21316953.566    21316956.613   -38059134.662 9  40952053.327 7
  22567855.086    22567857.003   -76128351.973 9  92268639.111 8
  21504776.562    21504780.004   -10914398.662 9 -10438426.820 8
 90  3 10  7 39 14.0800000  0  4G 3G12G19G13
  21850911.152    21850913.674   -63340709.282 9  66251669.172 8
  21323476.574    21323480.295   -38024857.398 9  40978762.866 8
  22566182.404    22566183.829   -76137143.629 9  92261788.457 8
  21508378.705    21508381.556   -10895470.059 9 -10423677.269 8
 90  3 10  7 39 29.0800000  0  4G 3G12G19G13
  21848273.264    21848276.395   -63354573.592 9  66240865.825 8
  21330022.635    21330025.176   -37990458.145 9  41005567.436 7
  22564535.291    22564536.126   -76145799.263 9  92255043.799 8
  21511984.331    21511986.241   -10876524.706 9 -10408914.673 8
 90  3 10  7 39 44.0800000  0  4G 3G12G19G13
  21845642.251    21845645.074   -63368400.644 9  66230091.498 8
  21336591.905    21336594.292   -37955937.475 9  41032466.660 7
  22562914.580    22562915.579   -76154318.955 9  92248405.072 9
  21515593.024    21515595.177   -10857562.436 9 -10394138.885 8
 90  3 10  7 39 59.0800000  0  4G 3G12G19G13
  21843019.043    21843021.357   -63382190.777 8  66219345.944 8
  21343184.920    21343186.903   -37921295.679 9  41059460.254 8
  22561318.231    22561319.487   -76162702.836 9  92241872.174 8
  21519204.462    21519205.016   -10838583.479 9 -10379350.105 8
 90  3 10  7 40 14.0800000  0  4G 3G12G19G13
  21840401.376    21840402.545   -63395944.263 9  66208628.962 9
  21349799.441    21349801.241   -37886532.942 9  41086548.080 8
  22559748.402    22559750.390   -76170950.624 9  92235445.303 7
  21522819.332    21522821.082   -10819588.072 9 -10364548.511 7
 90  3 10  7 40 29.0800000  0  4G 3G12G19G13
  21837790.892    21837792.634   -63409660.715 9  66197940.834 9
  21356438.222    21356440.406   -37851649.711 9  41113729.799 7
  22558204.063    22558206.481   -76179062.373 9  92229124.445 8
  21526437.187    21526436.870   -10800576.069 9 -10349733.954 7
 90  3 10  7 40 44.0800000  0  4G 3G12G19G13
  21835187.431    21835189.586   -63423340.404 9  66187281.339 8
  21363099.023    21363102.433   -37816646.207 9  41141005.237 7
  22556686.582    22556688.535   -76187038.280 9  92222909.439 8
  21530058.297    21530057.393   -10781547.668 9 -10334906.634 7
 90  3 10  7 40 59.0800000  0  4G 3G12G19G13
  21832590.894    21832592.725   -63436983.692 9  66176650.201 8
  21369782.792    21369785.568   -37781522.859 9  41168374.082 7
  22555195.609    22555197.362   -76194878.144 9  92216800.434 8
  21533682.013    21533681.607   -10762502.807 9 -10320066.497 7
 90  3 10  7 41 14.0800000  0  4G 3G12G19G13
  21830001.197    21830003.096   -63450590.418 9  66166047.576 7
  21376489.466    21376490.369   -37746279.999 9  41195836.044 8
  22553729.578    22553732.131   -76202581.978 9  92210797.424 8
  21537309.423    21537311.017   -10743441.628 9 -10305213.640 8
 90  3 10  7 41 29.0800000  0  4G 3G12G19G13
  21827420.277    21827421.637   -63464160.794 9  66155473.257 9
  21383218.883    21383220.384   -37710917.985 9  41223390.840 7
  22552289.186    22552291.831   -76210149.869 9  92204900.363 8
  21540938.981    21540940.762   -10724364.325 9 -10290348.204 7
 90  3 10  7 41 44.0800000  0  4G 3G12G19G13
  21824845.529    21824847.298   -63477694.814 9  66144927.261 8
  21389970.723    21389972.823   -37675437.164 9  41251038.228 7
  22550875.467    22550878.274   -76217581.471 9  92199109.499 8
  21544572.742    21544574.607   -10705270.944 9 -10275470.255 7
 90  3 10  7 41 59.0800000  0  4G 3G12G19G13
  21822278.126    21822278.303   -63491192.569 9  66134409.531 9
  21396744.688    21396746.602   -37639837.846 9  41278777.952 8
  22549487.503    22549489.561   -76224876.807 9  92193424.809 9
  21548209.967    21548210.624   -10686161.390 9 -10260579.710 7
 90  3 10  7 42 14.0800000  0  4G 3G12G19G13
  21819715.569    21819717.673   -63504654.161 9  66123919.979 8
  21403540.524    21403542.765   -37604120.440 9  41306609.681 8
  22548124.516    22548128.305   -76232036.145 9  92187846.099 8
  21551849.311    21551850.816   -10667035.700 9 -10245676.591 8
 90  3 10  7 42 29.0800000  0  4G 3G12G19G13
  21817160.281    21817162.585   -63518079.604 9  66113458.579 9
  21410359.107    21410361.780   -37568285.331 9  41334533.123 9
  22546788.226    22546790.418   -76239059.570 9  92182373.303 8
  21555492.112    21555494.383   -10647894.018 9 -10230760.992 9
 90  3 10  7 42 44.0800000  0  4G 3G12G19G13
  21814612.263    21814614.299   -63531469.075 9  66103025.235 8
  21417200.206    21417203.227   -37532332.867 9  41362548.016 7
  22545477.565    22545478.999   -76245946.741 9  92177006.681 7
  21559137.836    21559140.476   -10628736.555 9 -10215833.110 8
 90  3 10  7 42 59.0800000  0  4G 3G12G19G13
  21812071.379    21812071.694   -63544822.804 9  66092619.739 8
  21424064.042    21424067.656   -37496263.280 9  41390654.179 7
  22544192.812    22544194.573   -76252697.653 9  92171746.212 9
  21562785.766    21562788.420   -10609563.391 9 -10200892.978 8
 90  3 10  7 43 14.0800000  0  4G 3G12G19G13
  21809536.583    21809537.102   -63558140.664 9  66082242.176 7
  21430950.250    21430954.754   -37460076.855 9  41418851.380 7
  22542932.814    22542935.852   -76259312.411 9  92166591.852 8
  21566436.897    21566438.927   -10590374.497 9 -10185940.609 9
 90  3 10  7 43 29.0800000  0  4G 3G12G19G13
  21807009.617    21807009.984   -63571422.675 9  66071892.568 8
  21437859.515    21437862.598   -37423774.025 9  41447139.295 8
  22541700.882    22541702.766   -76265791.034 9  92161543.560 9
  21570090.353    21570093.680   -10571170.120 9 -10170976.152 8
 90  3 10  7 43 44.0800000  0  4G 3G12G19G13
  21804488.939    21804487.631   -63584669.082 9  66061570.731 7
  21444789.264    21444791.891   -37387355.156 9  41475517.640 7
  22540494.159    22540496.822   -76272133.547 9  92156601.324 8
  21573747.955    21573750.579   -10551950.178 9 -10155999.592 9
 90  3 10  7 43 59.0800000  0  4G 3G12G19G13
  21801974.967    21801974.361   -63597880.074 9  66051276.457 8
  21451742.041    21451743.567   -37350820.583 9  41503986.149 8
  22539312.767    22539314.766   -76278339.975 9  92151765.145 8
  21577407.874    21577411.029   -10532714.898 9 -10141011.064 8
 90  3 10  7 44 14.0800000  0  4G 3G12G19G13
  21799468.101    21799467.233   -63611055.596 9  66041009.824 7
  21458716.206    21458719.031   -37314170.664 9  41532544.532 7
  22538157.570    22538160.649   -76284410.405 9  92147034.929 8
  21581072.797    21581073.973   -10513464.359 9 -10126010.636 8
 90  3 10  7 44 29.0800000  0  4G 3G12G19G13
  21796965.919    21796966.578   -63624195.728 9  66030770.754 7
  21465712.490    21465713.210   -37277405.712 9  41561192.540 6
  22537028.889    22537031.208   -76290344.841 9  92142410.695 8
  21584738.439    21584740.538   -10494198.660 9 -10110998.406 8
 90  3 10  7 44 44.0800000  0  4G 3G12G19G13
  21794472.076    21794473.363   -63637300.595 8  66020559.151 8
  21472730.100    21472732.811   -37240526.093 9  41589929.888 8
  22535925.720    22535928.021   -76296143.209 9  92137892.471 9
  21588407.346    21588409.658   -10474917.811 9 -10095974.371 8
 90  3 10  7 44 59.0800000  0  4G 3G12G19G13
  21791984.336    21791987.437   -63650370.229 8  66010375.010 8
  21479770.051    21479772.006   -37203532.042 9  41618756.403 8
  22534848.683    22534849.933   -76301805.359 9  92133480.412 8
  21592080.143    21592080.956   -10455621.871 9 -10080938.579 9
 90  3 10  7 45 14.0800000  0  4G 3G12G19G13
  21789504.715    21789507.086   -63663404.775 9  66000218.218 8
  21486832.105    21486834.801   -37166424.124 9  41647671.638 8
  22533796.962    22533798.424   -76307331.387 9  92129174.414 8
  21595754.280    21595755.856   -10436310.835 9 -10065891.028 8
 90  3 10  7 45 29.0800000  0  4G 3G12G19G13
  21787031.448    21787032.684   -63676404.358 9  65990088.679 8
  21493914.983    21493918.302   -37129202.694 9  41676675.323 7
  22532770.257    22532773.105   -76312721.179 9  92124974.561 9
  21599432.574    21599433.415   -10416984.749 9 -10050831.755 8
